[[{"header":{"parameterUnit":"m.s-1","parameterCategory":1,"la1":31.0,"la2":29.5877,"lo1":-88.7671,"lo2":-86.6584,"dy":0.0162,"dx":0.0185,"nx":115,"ny":88,"refTime":"2024-07-26T12:00:00:Z","depth":0,"parameterNumber":2,"parameterNumberName":"U-component_of_WINDS"},"data":[0.0,0.0,0.0,0.0,0.0,0.0,0.0,0.0,0.0,0.0,0.0,0.0,0.0,0.0,0.0,0.0,0.0,0.0,0.0,0.0,0.0,0.0,0.0,0.0,0.0,0.0,0.0,0.0,0.0,0.0,0.0,0.0,0.0,0.0,0.0,0.0,0.0,0.0,0.0,0.0,0.0,0.0,0.0,0.0,0.0,0.0,0.0,0.0,0.0,0.0,0.0,0.0,0.0,0.0,0.0,0.0,0.0,0.0,0.0,0.0,0.0,0.0,0.0,0.0,0.0,0.0,0.0,0.0,0.0,0.0,0.0,0.0,0.0,0.0,0.0,0.0,0.0,0.0,0.0,0.0,0.0,0.0,0.0,0.0,0.0,0.0,0.0,0.0,0.0,0.0,0.0,0.0,0.0,0.0,0.0,0.0,0.0,0.0,0.0,0.0,0.0,0.0,0.0,0.0,0.0,0.0,0.0,0.0,0.0,0.0,0.0,0.0,0.0,0.0,0.0,0.0,0.0,0.0,0.0,0.0,0.0,0.0,0.0,0.0,0.0,0.0,0.0,0.0,0.0,0.0,0.0,0.0,0.0,0.0,0.0,0.0,0.0,0.0,0.0,0.0,0.0,0.0,0.0,0.0,0.0,0.0,0.0,0.0,0.0,0.0,0.0,0.0,0.0,0.0,0.0,0.0,0.0,0.0,0.0,0.0,0.0,0.0,0.0,0.0,0.0,0.0,0.0,0.0,0.0,0.0,0.0,0.0,0.0,0.0,0.0,0.0,0.0,0.0,0.0,0.0,0.0,0.0,0.0,0.0,0.0,0.0,0.0,0.0,0.0,0.0,0.0,0.0,0.0,0.0,0.0,0.0,0.0,0.0,0.0,0.0,0.0,0.0,0.0,0.0,0.0,0.0,0.0,0.0,0.0,0.0,0.0,0.0,0.0,0.0,0.0,0.0,0.0,0.0,0.0,0.0,0.0,0.0,0.0,0.0,0.0,0.0,0.0,0.0,0.0,0.0,0.0,0.0,0.0,0.0,0.0,0.0,0.0,0.0,0.0,0.0,0.0,0.0,0.0,0.0,0.0,0.0,0.0,0.0,0.0,0.0,0.0,0.0,0.0,0.0,0.0,0.0,0.0,0.0,0.0,0.0,0.0,0.0,0.0,0.0,0.0,0.0,0.0,0.0,0.0,0.0,0.0,0.0,0.0,0.0,0.0,0.0,0.0,0.0,0.0,0.0,0.0,0.0,0.0,0.0,0.0,0.0,0.0,0.0,0.0,0.0,0.0,0.0,0.0,0.0,0.0,0.0,0.0,0.0,0.0,0.0,0.0,0.0,0.0,0.0,0.0,0.0,0.0,0.0,0.0,0.0,0.0,0.0,0.0,0.0,0.0,0.0,0.0,0.0,0.0,0.0,0.0,0.0,0.0,0.0,0.0,0.0,0.0,0.0,0.0,0.0,0.0,0.0,0.0,0.0,0.0,0.0,0.0,0.0,0.0,0.0,0.0,0.0,0.0,0.0,0.0,0.0,0.0,0.0,0.0,0.0,0.0,0.0,0.0,0.0,0.0,0.0,0.0,0.0,0.0,0.0,0.0,0.0,0.0,0.0,0.0,0.0,0.0,0.0,0.0,0.0,0.0,0.0,0.0,0.0,0.0,0.0,0.0,0.0,0.0,0.0,0.0,0.0,0.0,0.0,0.0,0.0,0.0,0.0,0.0,0.0,0.0,0.0,0.0,0.0,0.0,0.0,0.0,0.0,0.0,0.0,0.0,0.0,0.0,0.0,0.0,0.0,0.0,0.0,0.0,0.0,0.0,0.0,0.0,0.0,0.0,0.0,0.0,0.0,0.0,0.0,0.0,0.0,0.0,0.0,0.0,0.0,0.0,0.0,0.0,0.0,0.0,0.0,0.0,0.0,0.0,0.0,0.0,0.0,0.0,0.0,0.0,0.0,0.0,0.0,0.0,0.0,0.0,0.0,0.0,0.0,0.0,0.0,0.0,0.0,0.0,0.0,0.0,0.0,0.0,0.0,0.0,0.0,0.0,0.0,0.0,0.0,0.0,0.0,0.0,0.0,0.0,0.0,0.0,0.0,0.0,0.0,0.0,0.0,0.0,0.0,0.0,0.0,0.0,0.0,0.0,0.0,0.0,0.0,0.0,0.0,0.0,0.0,0.0,0.0,0.0,0.0,0.0,0.0,0.0,0.0,0.0,0.0,0.0,0.0,0.0,0.0,0.0,0.0,0.0,0.0,0.0,0.0,0.0,0.0,0.0,0.0,0.0,0.0,0.0,0.0,0.0,0.0,0.0,0.0,0.0,0.0,0.0,0.0,0.0,0.0,0.0,0.0,0.0,0.0,0.0,0.0,0.0,0.0,0.0,0.0,0.0,0.0,0.0,0.0,0.0,0.0,0.0,0.0,0.0,0.0,0.0,0.0,0.0,0.0,0.0,0.0,0.0,0.0,0.0,0.0,0.0,0.0,0.0,0.0,0.0,0.0,0.0,0.0,0.0,0.0,0.0,0.0,0.0,0.0,0.0,0.0,0.0,0.0,0.0,0.0,0.0,0.0,0.0,0.0,0.0,0.0,0.0,0.0,0.0,0.0,0.0,0.0,0.0,0.0,0.0,0.0,0.0,0.0,0.0,0.0,0.0,0.0,0.0,0.0,0.0,0.0,0.0,0.0,0.0,0.0,0.0,0.0,0.0,0.0,0.0,0.0,0.0,0.0,0.0,0.0,0.0,0.0,0.0,0.0,0.0,0.0,0.0,0.0,0.0,0.0,0.0,0.0,0.0,0.0,0.0,0.0,0.0,0.0,0.0,0.0,0.0,0.0,0.0,0.0,0.0,0.0,0.0,0.0,0.0,0.0,0.0,0.0,0.0,0.0,0.0,0.0,0.0,0.0,0.0,0.0,0.0,0.0,0.0,0.0,0.0,0.0,0.0,0.0,0.0,0.0,0.0,0.0,0.0,0.0,0.0,0.0,0.0,0.0,0.0,0.0,0.0,0.0,0.0,0.0,0.0,0.0,0.0,0.0,0.0,0.0,0.0,0.0,0.0,0.0,0.0,0.0,0.0,0.0,0.0,0.0,0.0,0.0,0.0,0.0,0.0,0.0,0.0,0.0,0.0,0.0,0.0,0.0,0.0,0.0,0.0,0.0,0.0,0.0,0.0,0.0,0.0,0.0,0.0,0.0,0.0,0.0,0.0,0.0,0.0,0.0,0.0,0.0,0.0,0.0,0.0,0.0,0.0,0.0,0.0,0.0,0.0,0.0,0.0,0.0,0.0,0.0,0.0,0.0,0.0,0.0,0.0,0.0,0.0,0.0,0.0,0.0,0.0,0.0,0.0,0.0,0.0,0.0,0.0,0.0,0.0,0.0,0.0,0.0,0.0,0.0,0.0,0.0,0.0,0.0,0.0,0.0,0.0,0.0,0.0,0.0,0.0,0.0,0.0,0.0,0.0,0.0,0.0,0.0,0.0,0.0,0.0,0.0,0.0,0.0,0.0,0.0,0.0,0.0,0.0,0.0,0.0,0.0,0.0,0.0,0.0,0.0,0.0,0.0,0.0,0.0,0.0,0.0,0.0,0.0,0.0,0.0,0.0,0.0,0.0,0.0,0.0,0.0,0.0,0.0,0.0,0.0,0.0,0.0,0.0,0.0,0.0,0.0,0.0,0.0,0.0,0.0,0.0,0.0,0.0,0.0,0.0,0.0,0.0,0.0,0.0,0.0,0.0,0.0,0.0,0.0,0.0,0.0,0.0,0.0,0.0,0.0,0.0,0.0,0.0,0.0,0.0,0.0,0.0,0.0,0.0,0.0,0.0,0.0,0.0,0.0,0.0,0.0,0.0,0.0,0.0,0.0,0.0,0.0,0.0,0.0,0.0,0.0,0.0,0.0,0.0,0.0,0.0,0.0,0.0,0.0,0.0,0.0,0.0,0.0,0.0,0.0,0.0,0.0,0.0,0.0,0.0,0.0,0.0,0.0,0.0,0.0,0.0,0.0,0.0,0.0,0.0,0.0,0.0,0.0,0.0,0.0,0.0,0.0,0.0,0.0,0.0,0.0,0.0,0.0,0.0,0.0,0.0,0.0,0.0,0.0,0.0,0.0,0.0,0.0,0.0,0.0,0.0,0.0,0.0,0.0,0.0,0.0,0.0,0.0,0.0,0.0,0.0,0.0,0.0,0.0,0.0,0.0,0.0,0.0,0.0,0.0,0.0,0.0,0.0,0.0,0.0,0.0,0.0,0.0,0.0,0.0,-1.7919,0.0,0.0,0.0,0.0,0.0,0.0,0.0,0.0,0.0,0.0,0.0,0.0,0.0,0.0,0.0,0.0,0.0,0.0,0.0,0.0,0.0,0.0,0.0,0.0,0.0,0.0,0.0,0.0,0.0,0.0,0.0,0.0,0.0,0.0,0.0,0.0,0.0,0.0,0.0,0.0,0.0,0.0,0.0,0.0,0.0,0.0,0.0,0.0,0.0,0.0,0.0,0.0,0.0,0.0,0.0,0.0,0.0,0.0,0.0,0.0,0.0,0.0,0.0,0.0,0.0,0.0,0.0,0.0,0.0,0.0,0.0,0.0,0.0,0.0,0.0,0.0,0.0,0.0,0.0,0.0,0.0,0.0,0.0,0.0,0.0,0.0,0.0,0.0,0.0,0.0,0.0,0.0,0.0,0.0,0.0,0.0,0.0,0.0,0.0,0.0,0.0,0.0,0.0,0.0,0.0,0.0,0.0,0.0,0.0,0.0,-2.1983,-2.2492,-2.2376,-2.0883,-1.7935,0.0,0.0,0.0,0.0,0.0,0.0,0.0,0.0,0.0,0.0,0.0,0.0,0.0,0.0,0.0,0.0,0.0,0.0,0.0,0.0,0.0,0.0,0.0,0.0,0.0,0.0,0.0,0.0,0.0,0.0,0.0,0.0,0.0,0.0,0.0,0.0,0.0,0.0,0.0,0.0,0.0,0.0,0.0,0.0,0.0,0.0,0.0,0.0,0.0,0.0,0.0,0.0,0.0,0.0,0.0,0.0,0.0,0.0,0.0,0.0,0.0,0.0,0.0,0.0,0.0,0.0,0.0,0.0,0.0,0.0,0.0,0.0,0.0,0.0,0.0,0.0,0.0,0.0,0.0,0.0,0.0,0.0,0.0,0.0,0.0,0.0,0.0,0.0,0.0,0.0,0.0,0.0,0.0,0.0,0.0,0.0,0.0,0.0,0.0,0.0,0.0,0.0,0.0,0.0,0.0,0.0,0.0,0.0,0.0,0.0,0.0,0.0,-2.2932,-2.1549,-1.8274,0.0,0.0,0.0,0.0,0.0,0.0,0.0,0.0,0.0,0.0,0.0,0.0,0.0,0.0,0.0,0.0,0.0,0.0,0.0,0.0,0.0,0.0,0.0,0.0,0.0,0.0,0.0,0.0,0.0,0.0,0.0,0.0,0.0,0.0,0.0,0.0,0.0,0.0,0.0,0.0,0.0,0.0,0.0,0.0,0.0,0.0,0.0,0.0,0.0,0.0,0.0,0.0,0.0,0.0,0.0,0.0,0.0,0.0,0.0,0.0,0.0,0.0,0.0,0.0,0.0,0.0,0.0,0.0,0.0,0.0,0.0,0.0,0.0,0.0,0.0,0.0,0.0,0.0,0.0,0.0,0.0,0.0,0.0,0.0,0.0,0.0,0.0,0.0,0.0,0.0,0.0,0.0,0.0,0.0,0.0,0.0,0.0,0.0,0.0,0.0,0.0,0.0,0.0,0.0,0.0,0.0,0.0,0.0,0.0,0.0,-2.264,-2.278,-2.3583,0.0,-1.9295,0.0,0.0,0.0,0.0,0.0,0.0,0.0,0.0,0.0,0.0,0.0,0.0,0.0,0.0,0.0,0.0,0.0,0.0,0.0,0.0,0.0,0.0,0.0,0.0,0.0,0.0,0.0,0.0,0.0,0.0,0.0,0.0,0.0,0.0,0.0,0.0,0.0,0.0,0.0,0.0,0.0,0.0,0.0,0.0,0.0,0.0,0.0,0.0,0.0,0.0,0.0,0.0,0.0,0.0,0.0,0.0,0.0,0.0,0.0,0.0,0.0,0.0,0.0,0.0,0.0,0.0,0.0,0.0,0.0,0.0,0.0,0.0,0.0,0.0,0.0,0.0,0.0,0.0,0.0,0.0,0.0,0.0,0.0,0.0,0.0,0.0,0.0,0.0,0.0,0.0,0.0,0.0,0.0,0.0,0.0,0.0,0.0,0.0,0.0,0.0,0.0,0.0,0.0,0.0,0.0,0.0,0.0,0.0,0.0,0.0,-2.2725,-2.2859,-2.1813,-2.0611,0.0,0.0,0.0,0.0,0.0,0.0,0.0,0.0,0.0,0.0,0.0,0.0,0.0,0.0,0.0,0.0,0.0,0.0,0.0,0.0,0.0,0.0,0.0,0.0,0.0,0.0,0.0,0.0,0.0,0.0,0.0,0.0,0.0,0.0,0.0,0.0,0.0,0.0,0.0,0.0,0.0,0.0,0.0,0.0,0.0,0.0,0.0,0.0,0.0,0.0,0.0,0.0,0.0,0.0,0.0,0.0,0.0,0.0,0.0,0.0,0.0,0.0,0.0,0.0,0.0,0.0,0.0,0.0,0.0,0.0,0.0,0.0,0.0,0.0,0.0,0.0,0.0,0.0,0.0,0.0,0.0,0.0,0.0,0.0,0.0,0.0,0.0,0.0,0.0,0.0,0.0,0.0,0.0,0.0,0.0,0.0,0.0,0.0,0.0,0.0,0.0,0.0,0.0,0.0,0.0,0.0,0.0,0.0,0.0,0.0,-2.2292,0.0,-2.3176,-2.1339,-1.9953,-1.923,0.0,0.0,0.0,0.0,0.0,0.0,0.0,0.0,0.0,0.0,0.0,0.0,0.0,0.0,0.0,0.0,0.0,0.0,0.0,0.0,0.0,0.0,0.0,0.0,0.0,0.0,0.0,0.0,0.0,0.0,0.0,0.0,0.0,0.0,0.0,0.0,0.0,0.0,0.0,0.0,0.0,0.0,0.0,0.0,0.0,0.0,0.0,0.0,0.0,0.0,0.0,0.0,0.0,0.0,0.0,0.0,0.0,0.0,0.0,0.0,0.0,0.0,0.0,0.0,0.0,0.0,0.0,0.0,0.0,0.0,0.0,0.0,0.0,0.0,0.0,0.0,0.0,0.0,0.0,0.0,0.0,0.0,0.0,0.0,0.0,0.0,0.0,0.0,0.0,0.0,0.0,0.0,0.0,0.0,0.0,0.0,0.0,0.0,0.0,0.0,0.0,0.0,0.0,0.0,0.0,0.0,0.0,0.0,0.0,-2.2671,-2.3336,-2.4188,-2.3377,-2.1741,0.0,0.0,0.0,0.0,0.0,0.0,0.0,0.0,0.0,0.0,0.0,0.0,0.0,0.0,0.0,0.0,0.0,0.0,0.0,0.0,0.0,0.0,0.0,0.0,0.0,0.0,0.0,0.0,0.0,0.0,0.0,0.0,0.0,0.0,0.0,0.0,0.0,0.0,0.0,0.0,0.0,0.0,0.0,0.0,0.0,0.0,0.0,0.0,0.0,0.0,0.0,0.0,0.0,0.0,0.0,0.0,0.0,0.0,0.0,0.0,0.0,0.0,0.0,0.0,0.0,0.0,0.0,0.0,0.0,0.0,0.0,0.0,0.0,0.0,0.0,0.0,0.0,0.0,0.0,0.0,0.0,0.0,0.0,0.0,0.0,0.0,0.0,0.0,0.0,0.0,0.0,0.0,0.0,0.0,0.0,0.0,0.0,0.0,0.0,0.0,0.0,0.0,0.0,0.0,0.0,0.0,0.0,0.0,0.0,-2.1537,-2.3002,-2.4238,-2.5074,-2.281,-2.1027,0.0,0.0,0.0,0.0,0.0,0.0,0.0,0.0,0.0,0.0,0.0,0.0,0.0,0.0,0.0,0.0,0.0,0.0,0.0,0.0,0.0,0.0,0.0,0.0,0.0,0.0,0.0,0.0,0.0,0.0,0.0,0.0,0.0,0.0,0.0,0.0,0.0,0.0,0.0,0.0,0.0,0.0,0.0,0.0,0.0,0.0,0.0,0.0,0.0,0.0,0.0,0.0,0.0,0.0,0.0,0.0,0.0,0.0,0.0,0.0,0.0,0.0,0.0,0.0,0.0,0.0,0.0,0.0,0.0,0.0,0.0,0.0,0.0,0.0,0.0,0.0,0.0,0.0,0.0,0.0,0.0,0.0,0.0,0.0,0.0,0.0,0.0,0.0,0.0,0.0,0.0,0.0,0.0,0.0,0.0,0.0,0.0,0.0,0.0,0.0,0.0,0.0,0.0,0.0,0.0,0.0,0.0,0.0,0.0,-2.1708,0.0,-2.4577,0.0,-2.2771,-2.0996,0.0,0.0,0.0,0.0,0.0,0.0,0.0,0.0,0.0,0.0,0.0,0.0,0.0,0.0,0.0,0.0,0.0,0.0,0.0,0.0,0.0,0.0,0.0,0.0,0.0,0.0,0.0,0.0,0.0,0.0,0.0,0.0,0.0,0.0,0.0,0.0,0.0,0.0,0.0,0.0,0.0,0.0,0.0,0.0,0.0,0.0,0.0,0.0,0.0,0.0,0.0,0.0,0.0,0.0,0.0,0.0,0.0,0.0,0.0,0.0,0.0,0.0,0.0,0.0,0.0,0.0,0.0,0.0,0.0,0.0,0.0,0.0,0.0,0.0,0.0,0.0,0.0,0.0,0.0,0.0,0.0,0.0,0.0,0.0,0.0,0.0,0.0,0.0,0.0,0.0,0.0,0.0,0.0,0.0,0.0,0.0,0.0,0.0,0.0,0.0,0.0,0.0,0.0,0.0,0.0,0.0,0.0,0.0,-2.064,-2.2905,-2.3817,-2.4316,-2.4313,-2.3474,-2.1808,0.0,0.0,0.0,0.0,0.0,0.0,0.0,0.0,0.0,0.0,0.0,0.0,0.0,0.0,0.0,0.0,0.0,0.0,0.0,0.0,0.0,0.0,0.0,0.0,0.0,0.0,0.0,0.0,0.0,0.0,0.0,0.0,0.0,0.0,0.0,0.0,0.0,0.0,0.0,0.0,0.0,0.0,0.0,0.0,0.0,0.0,0.0,0.0,0.0,0.0,0.0,0.0,0.0,0.0,0.0,0.0,0.0,0.0,0.0,0.0,0.0,0.0,0.0,0.0,0.0,0.0,0.0,0.0,0.0,0.0,0.0,0.0,0.0,0.0,0.0,0.0,0.0,0.0,0.0,0.0,0.0,0.0,0.0,0.0,0.0,0.0,0.0,0.0,0.0,0.0,0.0,0.0,0.0,0.0,0.0,0.0,0.0,0.0,0.0,0.0,0.0,0.0,0.0,0.0,0.0,0.0,0.0,0.0,0.0,-2.3861,-2.4672,-2.5159,-2.5213,-2.3318,-2.1836,0.0,0.0,0.0,0.0,0.0,0.0,0.0,0.0,0.0,0.0,0.0,0.0,0.0,0.0,0.0,0.0,0.0,0.0,0.0,0.0,0.0,0.0,0.0,0.0,0.0,0.0,0.0,0.0,0.0,0.0,0.0,0.0,0.0,0.0,0.0,0.0,0.0,0.0,0.0,0.0,0.0,0.0,0.0,0.0,0.0,0.0,0.0,0.0,0.0,0.0,0.0,0.0,0.0,0.0,0.0,0.0,0.0,0.0,0.0,0.0,0.0,0.0,0.0,0.0,0.0,0.0,0.0,0.0,0.0,0.0,0.0,0.0,0.0,0.0,0.0,0.0,0.0,0.0,0.0,0.0,0.0,0.0,0.0,0.0,0.0,0.0,0.0,0.0,0.0,0.0,0.0,0.0,0.0,0.0,0.0,0.0,0.0,0.0,0.0,0.0,0.0,0.0,0.0,0.0,0.0,0.0,0.0,0.0,0.0,-2.4716,-2.5231,-2.5554,-2.5661,-2.3805,-2.2441,-2.163,0.0,0.0,0.0,0.0,0.0,0.0,0.0,0.0,0.0,0.0,0.0,0.0,0.0,0.0,0.0,0.0,0.0,0.0,0.0,0.0,0.0,0.0,0.0,0.0,0.0,0.0,0.0,0.0,0.0,0.0,0.0,0.0,0.0,0.0,0.0,0.0,0.0,0.0,0.0,0.0,0.0,0.0,0.0,0.0,0.0,0.0,0.0,0.0,0.0,0.0,0.0,0.0,0.0,0.0,0.0,0.0,0.0,0.0,0.0,0.0,0.0,0.0,0.0,0.0,0.0,0.0,0.0,0.0,0.0,0.0,0.0,0.0,0.0,0.0,0.0,0.0,0.0,0.0,0.0,0.0,0.0,0.0,0.0,0.0,0.0,0.0,0.0,0.0,0.0,0.0,0.0,0.0,0.0,0.0,0.0,0.0,0.0,0.0,0.0,0.0,0.0,0.0,0.0,0.0,0.0,0.0,0.0,0.0,-2.539,-2.5495,-2.5586,-2.5572,-2.4712,-2.3472,0.0,0.0,0.0,0.0,0.0,0.0,0.0,0.0,0.0,0.0,0.0,0.0,0.0,0.0,0.0,0.0,0.0,0.0,0.0,0.0,0.0,0.0,0.0,0.0,0.0,0.0,0.0,0.0,0.0,0.0,0.0,0.0,0.0,0.0,0.0,0.0,0.0,0.0,0.0,0.0,0.0,0.0,0.0,0.0,0.0,0.0,0.0,0.0,0.0,0.0,0.0,0.0,0.0,0.0,0.0,0.0,0.0,0.0,0.0,0.0,0.0,0.0,0.0,0.0,0.0,0.0,0.0,0.0,0.0,0.0,0.0,0.0,0.0,0.0,0.0,0.0,0.0,0.0,0.0,0.0,0.0,0.0,0.0,0.0,0.0,0.0,0.0,0.0,0.0,0.0,0.0,0.0,0.0,0.0,0.0,0.0,0.0,0.0,0.0,0.0,0.0,0.0,0.0,0.0,0.0,0.0,0.0,0.0,0.0,-2.5444,-2.6033,-2.6094,-2.553,-2.4672,-2.3713,0.0,0.0,0.0,0.0,0.0,0.0,0.0,0.0,0.0,0.0,0.0,0.0,0.0,0.0,0.0,0.0,0.0,0.0,0.0,0.0,0.0,0.0,0.0,0.0,0.0,0.0,0.0,0.0,0.0,0.0,0.0,0.0,0.0,0.0,0.0,0.0,0.0,0.0,0.0,0.0,0.0,0.0,0.0,0.0,0.0,0.0,0.0,0.0,0.0,0.0,0.0,0.0,0.0,0.0,0.0,0.0,0.0,0.0,0.0,0.0,0.0,0.0,0.0,0.0,0.0,0.0,0.0,0.0,0.0,0.0,0.0,0.0,0.0,0.0,0.0,0.0,0.0,0.0,0.0,0.0,0.0,0.0,0.0,0.0,0.0,0.0,0.0,0.0,0.0,0.0,0.0,0.0,0.0,0.0,0.0,0.0,0.0,0.0,0.0,0.0,0.0,0.0,0.0,0.0,0.0,0.0,0.0,0.0,-2.6,-2.5374,-2.6223,-2.6272,-2.5424,-2.4988,-2.4349,0.0,0.0,0.0,0.0,0.0,0.0,0.0,0.0,0.0,0.0,0.0,0.0,0.0,0.0,0.0,0.0,0.0,0.0,0.0,0.0,0.0,0.0,0.0,0.0,0.0,0.0,0.0,0.0,0.0,0.0,0.0,0.0,0.0,0.0,0.0,0.0,0.0,0.0,0.0,0.0,0.0,0.0,0.0,0.0,0.0,0.0,0.0,0.0,0.0,0.0,0.0,0.0,0.0,0.0,0.0,0.0,0.0,0.0,0.0,0.0,0.0,0.0,0.0,0.0,0.0,0.0,0.0,0.0,0.0,0.0,0.0,0.0,0.0,0.0,0.0,0.0,0.0,0.0,0.0,0.0,0.0,0.0,0.0,0.0,0.0,0.0,0.0,0.0,0.0,0.0,0.0,0.0,0.0,0.0,0.0,0.0,0.0,0.0,0.0,0.0,0.0,0.0,0.0,0.0,0.0,0.0,0.0,0.0,-2.5932,-2.5283,-2.6114,-2.6158,-2.5351,-2.5408,-2.5071,0.0,0.0,0.0,0.0,0.0,0.0,0.0,0.0,0.0,0.0,0.0,0.0,0.0,0.0,0.0,0.0,0.0,0.0,0.0,0.0,0.0,0.0,0.0,0.0,0.0,0.0,0.0,0.0,0.0,0.0,0.0,0.0,0.0,0.0,0.0,0.0,0.0,0.0,0.0,0.0,0.0,0.0,0.0,0.0,0.0,0.0,0.0,0.0,0.0,0.0,0.0,0.0,0.0,0.0,0.0,0.0,0.0,0.0,0.0,0.0,0.0,0.0,0.0,0.0,0.0,0.0,0.0,0.0,0.0,0.0,0.0,0.0,0.0,0.0,0.0,0.0,0.0,0.0,0.0,0.0,0.0,0.0,0.0,0.0,0.0,0.0,0.0,0.0,0.0,0.0,0.0,0.0,0.0,0.0,0.0,0.0,0.0,0.0,0.0,0.0,0.0,0.0,0.0,0.0,0.0,0.0,0.0,0.0,-2.5574,-2.5103,-2.5912,-2.6027,-2.5322,-2.534,-2.4958,0.0,0.0,0.0,0.0,0.0,0.0,0.0,0.0,0.0,0.0,0.0,0.0,0.0,0.0,0.0,0.0,0.0,0.0,0.0,0.0,0.0,0.0,0.0,0.0,0.0,0.0,0.0,0.0,0.0,0.0,0.0,0.0,0.0,0.0,0.0,0.0,0.0,0.0,0.0,0.0,0.0,0.0,0.0,0.0,0.0,0.0,0.0,0.0,-2.4255,0.0,0.0,0.0,0.0,0.0,0.0,0.0,0.0,0.0,0.0,0.0,0.0,0.0,0.0,0.0,0.0,0.0,0.0,0.0,0.0,0.0,0.0,0.0,0.0,0.0,0.0,0.0,0.0,0.0,0.0,0.0,0.0,0.0,0.0,0.0,0.0,0.0,0.0,0.0,0.0,0.0,0.0,0.0,0.0,0.0,0.0,0.0,0.0,0.0,0.0,0.0,0.0,0.0,0.0,0.0,0.0,0.0,0.0,0.0,-2.5103,-2.5018,-2.5443,-2.5553,-2.5317,-2.5308,-2.5115,0.0,0.0,0.0,0.0,0.0,0.0,0.0,0.0,0.0,0.0,0.0,0.0,0.0,0.0,0.0,0.0,0.0,0.0,0.0,0.0,0.0,0.0,0.0,0.0,0.0,0.0,0.0,0.0,0.0,0.0,0.0,0.0,0.0,0.0,0.0,0.0,0.0,0.0,0.0,0.0,0.0,0.0,0.0,0.0,0.0,0.0,0.0,0.0,0.0,0.0,0.0,0.0,0.0,0.0,0.0,0.0,0.0,0.0,0.0,0.0,0.0,0.0,0.0,0.0,0.0,0.0,0.0,0.0,0.0,0.0,0.0,0.0,0.0,0.0,0.0,0.0,0.0,0.0,0.0,0.0,0.0,0.0,0.0,0.0,0.0,0.0,0.0,0.0,0.0,0.0,0.0,0.0,0.0,0.0,0.0,0.0,0.0,0.0,0.0,0.0,0.0,0.0,0.0,0.0,0.0,0.0,0.0,-2.3439,-2.4481,-2.4898,-2.4955,-2.5065,-2.5253,-2.5279,-2.5308,-2.5269,0.0,0.0,0.0,0.0,0.0,0.0,0.0,0.0,0.0,0.0,0.0,0.0,0.0,0.0,0.0,0.0,0.0,0.0,0.0,0.0,0.0,0.0,0.0,0.0,0.0,0.0,0.0,0.0,0.0,0.0,0.0,0.0,0.0,0.0,0.0,0.0,0.0,0.0,-2.2917,-2.4985,0.0,0.0,0.0,0.0,0.0,0.0,0.0,0.0,-2.5271,0.0,0.0,0.0,0.0,0.0,0.0,0.0,0.0,0.0,0.0,0.0,0.0,0.0,0.0,0.0,0.0,0.0,0.0,0.0,0.0,0.0,0.0,0.0,0.0,0.0,0.0,0.0,0.0,0.0,0.0,0.0,0.0,0.0,0.0,0.0,0.0,0.0,0.0,0.0,0.0,0.0,0.0,0.0,0.0,0.0,0.0,0.0,0.0,0.0,0.0,0.0,0.0,0.0,0.0,0.0,0.0,-2.2422,-2.2969,-2.3691,-2.4572,-2.4749,-2.4916,-2.5034,-2.5233,-2.5308,-2.5231,0.0,0.0,0.0,0.0,0.0,0.0,0.0,0.0,0.0,0.0,0.0,0.0,0.0,0.0,0.0,0.0,0.0,0.0,0.0,0.0,0.0,0.0,0.0,0.0,0.0,0.0,0.0,0.0,0.0,0.0,0.0,0.0,0.0,0.0,0.0,0.0,0.0,0.0,0.0,-2.6248,-2.7362,0.0,0.0,0.0,0.0,0.0,0.0,0.0,0.0,-2.5797,0.0,0.0,0.0,0.0,0.0,0.0,0.0,0.0,0.0,0.0,0.0,0.0,0.0,0.0,0.0,0.0,0.0,0.0,0.0,0.0,0.0,0.0,0.0,0.0,0.0,0.0,0.0,0.0,0.0,0.0,0.0,0.0,0.0,0.0,0.0,0.0,0.0,0.0,0.0,0.0,0.0,0.0,0.0,0.0,0.0,0.0,0.0,0.0,0.0,0.0,0.0,0.0,0.0,0.0,0.0,-2.1778,-2.2992,-2.3969,-2.4639,-2.4746,-2.4916,-2.5152,-2.486,-2.4466,0.0,0.0,0.0,0.0,0.0,0.0,0.0,0.0,0.0,0.0,0.0,0.0,0.0,0.0,0.0,0.0,0.0,0.0,0.0,0.0,0.0,0.0,0.0,0.0,0.0,0.0,0.0,0.0,0.0,0.0,0.0,0.0,0.0,0.0,0.0,0.0,0.0,0.0,0.0,0.0,-2.6823,-2.7661,-2.7961,0.0,0.0,0.0,0.0,0.0,0.0,-2.7616,-2.6919,0.0,0.0,0.0,0.0,0.0,0.0,0.0,0.0,0.0,0.0,0.0,0.0,0.0,0.0,0.0,0.0,0.0,0.0,0.0,0.0,0.0,0.0,0.0,0.0,0.0,0.0,0.0,0.0,0.0,0.0,0.0,0.0,0.0,0.0,0.0,0.0,0.0,0.0,0.0,0.0,0.0,0.0,0.0,0.0,0.0,0.0,0.0,0.0,0.0,0.0,0.0,0.0,0.0,0.0,0.0,-2.1049,-2.2953,-2.4227,-2.4704,-2.4782,-2.4936,-2.5224,-2.4649,-2.3932,0.0,0.0,0.0,0.0,0.0,0.0,0.0,0.0,0.0,0.0,0.0,0.0,0.0,0.0,0.0,0.0,0.0,0.0,0.0,0.0,0.0,0.0,0.0,0.0,0.0,0.0,0.0,0.0,0.0,0.0,0.0,0.0,0.0,0.0,0.0,0.0,0.0,0.0,0.0,0.0,0.0,-2.84,-2.8535,-2.9141,0.0,0.0,0.0,0.0,-2.9379,-2.876,0.0,0.0,0.0,0.0,0.0,0.0,0.0,0.0,0.0,0.0,0.0,0.0,0.0,0.0,0.0,0.0,0.0,0.0,0.0,0.0,0.0,0.0,0.0,0.0,0.0,0.0,0.0,0.0,0.0,0.0,0.0,0.0,0.0,0.0,0.0,0.0,0.0,0.0,0.0,0.0,0.0,0.0,0.0,0.0,0.0,0.0,0.0,0.0,0.0,0.0,0.0,0.0,0.0,0.0,0.0,0.0,-2.1013,-2.2416,-2.3611,-2.4481,-2.4708,-2.4883,-2.5028,-2.5112,-2.4774,0.0,0.0,0.0,0.0,0.0,0.0,0.0,0.0,0.0,0.0,0.0,0.0,0.0,0.0,0.0,0.0,0.0,0.0,0.0,0.0,0.0,0.0,0.0,0.0,0.0,0.0,0.0,0.0,0.0,0.0,0.0,0.0,0.0,0.0,0.0,0.0,0.0,0.0,0.0,0.0,0.0,-3.0772,-3.0435,-3.0467,-3.0528,0.0,0.0,-3.0351,-2.9706,-2.9423,0.0,0.0,0.0,0.0,0.0,0.0,0.0,0.0,0.0,0.0,0.0,0.0,0.0,0.0,0.0,0.0,0.0,0.0,0.0,0.0,0.0,0.0,0.0,0.0,0.0,0.0,0.0,0.0,0.0,0.0,0.0,0.0,0.0,0.0,0.0,0.0,0.0,0.0,0.0,0.0,0.0,0.0,0.0,0.0,0.0,0.0,0.0,0.0,0.0,0.0,0.0,0.0,0.0,0.0,0.0,-2.0662,-2.1049,-2.2771,-2.3988,-2.4636,-2.4753,-2.4916,-2.5163,-2.4822,-2.4235,0.0,0.0,0.0,0.0,0.0,0.0,0.0,0.0,0.0,0.0,0.0,0.0,0.0,0.0,0.0,0.0,0.0,0.0,0.0,0.0,0.0,0.0,0.0,0.0,0.0,0.0,0.0,0.0,0.0,0.0,0.0,0.0,0.0,0.0,0.0,0.0,0.0,0.0,0.0,0.0,0.0,0.0,-3.1258,-3.1403,0.0,0.0,0.0,-3.0937,-3.1055,0.0,0.0,0.0,0.0,0.0,0.0,0.0,0.0,0.0,0.0,0.0,0.0,0.0,0.0,0.0,0.0,0.0,0.0,0.0,0.0,0.0,0.0,0.0,0.0,0.0,0.0,0.0,0.0,0.0,0.0,0.0,0.0,0.0,0.0,0.0,0.0,0.0,0.0,0.0,0.0,0.0,0.0,0.0,0.0,0.0,0.0,0.0,0.0,0.0,0.0,0.0,0.0,0.0,0.0,0.0,0.0,0.0,-2.1031,-2.3039,-2.4302,-2.4782,-2.4804,-2.4949,-2.5279,-2.4524,0.0,0.0,0.0,0.0,0.0,0.0,0.0,0.0,0.0,0.0,0.0,0.0,0.0,0.0,0.0,0.0,0.0,0.0,0.0,0.0,0.0,0.0,0.0,0.0,0.0,0.0,0.0,-1.9238,0.0,0.0,0.0,0.0,0.0,0.0,0.0,0.0,0.0,0.0,0.0,0.0,0.0,0.0,-3.0653,-3.1802,-3.2159,-3.258,0.0,0.0,-3.1133,-3.1758,-3.1328,-3.0292,0.0,0.0,0.0,0.0,0.0,0.0,0.0,0.0,0.0,0.0,0.0,0.0,0.0,0.0,0.0,0.0,0.0,0.0,0.0,0.0,0.0,0.0,0.0,0.0,0.0,0.0,0.0,0.0,0.0,0.0,0.0,0.0,0.0,0.0,0.0,0.0,0.0,0.0,0.0,0.0,0.0,0.0,0.0,0.0,0.0,0.0,0.0,0.0,0.0,0.0,0.0,0.0,0.0,0.0,0.0,-2.101,-2.2789,-2.408,-2.4775,-2.4804,-2.4949,-2.5279,-2.4529,-2.3701,0.0,0.0,0.0,0.0,0.0,0.0,0.0,0.0,0.0,0.0,0.0,0.0,0.0,0.0,0.0,0.0,0.0,0.0,0.0,0.0,0.0,0.0,0.0,0.0,0.0,0.0,0.0,0.0,0.0,0.0,0.0,0.0,0.0,0.0,0.0,0.0,0.0,0.0,0.0,0.0,0.0,-3.2652,-3.2154,-3.2742,-3.326,0.0,0.0,-3.0918,-3.0976,-3.0957,-3.0293,-2.8574,0.0,0.0,0.0,0.0,0.0,0.0,0.0,0.0,0.0,0.0,0.0,0.0,0.0,0.0,0.0,0.0,0.0,0.0,0.0,0.0,0.0,0.0,0.0,0.0,0.0,0.0,0.0,0.0,0.0,0.0,0.0,0.0,0.0,0.0,0.0,0.0,0.0,0.0,0.0,0.0,0.0,0.0,0.0,0.0,0.0,0.0,0.0,0.0,0.0,0.0,0.0,0.0,0.0,-2.0279,-2.0699,-2.2672,-2.3905,-2.4306,-2.4613,-2.4903,-2.5105,-2.4922,-2.4197,0.0,0.0,0.0,0.0,0.0,0.0,0.0,0.0,0.0,0.0,0.0,0.0,0.0,0.0,0.0,0.0,0.0,0.0,0.0,0.0,0.0,0.0,0.0,0.0,0.0,0.0,0.0,0.0,-2.3655,-2.4024,-2.4902,0.0,0.0,0.0,0.0,0.0,0.0,0.0,0.0,0.0,0.0,-3.3108,-3.2803,-3.3101,0.0,0.0,-3.2305,-3.125,-3.2285,-3.1582,-3.0488,-2.9277,-2.9055,0.0,0.0,0.0,0.0,0.0,0.0,0.0,0.0,0.0,0.0,0.0,0.0,0.0,0.0,0.0,0.0,0.0,0.0,0.0,0.0,0.0,0.0,0.0,0.0,0.0,0.0,0.0,0.0,0.0,0.0,0.0,0.0,0.0,0.0,0.0,0.0,0.0,0.0,0.0,0.0,0.0,0.0,0.0,0.0,0.0,0.0,0.0,0.0,0.0,0.0,0.0,0.0,-2.0511,-2.083,-2.2522,-2.3599,-2.3988,-2.4366,-2.47,-2.4998,-2.4911,-2.4332,0.0,0.0,0.0,0.0,0.0,0.0,0.0,0.0,0.0,0.0,0.0,0.0,0.0,0.0,0.0,0.0,0.0,0.0,0.0,0.0,0.0,0.0,0.0,0.0,0.0,0.0,0.0,0.0,-2.454,-2.4801,-2.5415,0.0,0.0,0.0,0.0,0.0,0.0,0.0,0.0,0.0,0.0,-3.3583,-3.3271,-3.3299,-3.3495,-3.3906,-3.2187,-3.1268,-3.2461,-3.168,-3.0605,-2.9726,0.0,0.0,0.0,0.0,0.0,0.0,0.0,0.0,0.0,0.0,0.0,0.0,0.0,0.0,0.0,0.0,0.0,0.0,0.0,0.0,0.0,0.0,0.0,0.0,0.0,0.0,0.0,-2.3212,0.0,0.0,-2.4141,0.0,0.0,0.0,0.0,0.0,0.0,0.0,0.0,0.0,0.0,0.0,0.0,0.0,0.0,0.0,0.0,0.0,0.0,0.0,0.0,0.0,0.0,-2.0542,-2.1552,-2.2352,-2.313,-2.3941,-2.4007,-2.4336,-2.4955,-2.4242,-2.3932,-2.4052,0.0,0.0,0.0,0.0,0.0,0.0,0.0,0.0,0.0,0.0,0.0,0.0,0.0,0.0,0.0,0.0,0.0,0.0,0.0,0.0,0.0,0.0,0.0,0.0,0.0,0.0,-2.5337,-2.5371,-2.5371,0.0,0.0,0.0,0.0,0.0,0.0,0.0,0.0,0.0,0.0,-3.2964,-3.4252,-3.343,-3.3295,-3.3168,-3.2616,-3.1513,-3.0804,-3.1074,-3.0976,-3.0605,0.0,0.0,0.0,0.0,0.0,0.0,0.0,0.0,0.0,0.0,0.0,0.0,0.0,0.0,0.0,0.0,0.0,0.0,0.0,0.0,0.0,0.0,0.0,0.0,0.0,0.0,0.0,-2.3593,-2.3931,0.0,0.0,0.0,0.0,0.0,0.0,0.0,0.0,0.0,0.0,0.0,-2.5391,-2.5648,0.0,0.0,0.0,0.0,0.0,0.0,0.0,0.0,0.0,0.0,0.0,0.0,-2.0972,-2.1357,-2.2229,-2.2954,-2.3461,-2.3812,-2.4218,-2.4648,-2.4638,-2.4454,-2.4181,0.0,0.0,0.0,0.0,0.0,0.0,0.0,0.0,0.0,0.0,0.0,0.0,0.0,0.0,0.0,0.0,0.0,0.0,0.0,0.0,0.0,0.0,0.0,0.0,0.0,-2.5336,0.0,0.0,0.0,0.0,0.0,0.0,0.0,0.0,0.0,0.0,0.0,-3.1215,-3.1617,-3.3899,-3.4968,-3.3444,-3.3756,-3.4042,0.0,0.0,0.0,0.0,0.0,0.0,0.0,0.0,0.0,0.0,0.0,0.0,0.0,0.0,-2.9274,-2.8164,-2.7975,-2.7975,-2.7971,0.0,0.0,0.0,0.0,0.0,0.0,0.0,0.0,0.0,0.0,0.0,0.0,0.0,0.0,-2.4275,0.0,-2.4787,0.0,0.0,0.0,0.0,0.0,0.0,0.0,0.0,-2.5521,-2.5823,-2.6594,-2.6319,-2.6337,0.0,-2.6602,-2.5658,0.0,0.0,0.0,0.0,0.0,0.0,0.0,0.0,-2.1667,-2.161,-2.2234,-2.2717,-2.3033,-2.3494,-2.3909,-2.4309,-2.4778,-2.4738,-2.4175,-2.365,-2.3026,0.0,0.0,0.0,0.0,0.0,0.0,0.0,0.0,0.0,0.0,0.0,0.0,0.0,0.0,0.0,0.0,0.0,0.0,0.0,0.0,0.0,0.0,0.0,-2.5329,0.0,0.0,0.0,0.0,0.0,0.0,0.0,0.0,0.0,-2.9002,-3.0972,-3.2526,-3.2922,-3.4696,-3.5387,-3.3815,0.0,0.0,0.0,0.0,0.0,0.0,0.0,-3.1753,-3.2358,-3.1991,-3.1609,-3.1552,-3.0965,-3.0496,-3.0433,0.0,0.0,-2.8967,-2.8775,-2.8756,-2.8775,-2.8775,-2.8717,-2.8549,-2.8429,-2.8272,0.0,0.0,0.0,0.0,0.0,0.0,0.0,0.0,-2.4557,-2.4735,0.0,-2.5054,0.0,0.0,0.0,0.0,0.0,-2.5429,0.0,0.0,-2.586,-2.5907,-2.6612,-2.5933,-2.5944,-2.6638,-2.6675,-2.6227,-2.5419,-2.5085,0.0,0.0,0.0,0.0,0.0,0.0,-2.259,-2.2304,-2.2321,-2.2436,-2.2708,-2.3045,-2.3461,-2.4016,-2.4643,-2.4711,-2.4177,-2.4134,-2.3789,-2.3077,-2.3095,0.0,0.0,0.0,0.0,0.0,0.0,0.0,0.0,0.0,0.0,0.0,0.0,0.0,0.0,0.0,0.0,0.0,0.0,0.0,0.0,-2.5359,0.0,0.0,0.0,0.0,0.0,0.0,0.0,0.0,0.0,0.0,-3.1031,-3.2325,-3.365,-3.4477,0.0,0.0,0.0,0.0,-3.2933,-3.2377,-3.2173,-3.179,-3.086,-3.0735,-3.0788,-3.0851,0.0,0.0,-3.0781,-3.0606,-3.051,-3.0483,-3.0454,-3.0404,-3.0365,-3.0288,-3.0308,-3.0327,-3.0288,-3.0359,-3.0334,-2.9945,-2.9768,-2.5253,0.0,0.0,0.0,0.0,-2.4508,-2.4812,-2.527,-2.5287,-2.549,-2.5774,-2.5774,0.0,0.0,0.0,0.0,0.0,0.0,-2.6686,-2.742,-2.721,-2.753,-2.829,-2.8069,-2.8088,-2.829,-2.775,-2.7053,-2.6235,-2.5568,-2.4738,-2.3721,0.0,0.0,0.0,0.0,-2.2898,-2.2599,-2.2651,-2.2673,-2.2695,-2.3033,-2.3567,-2.4336,-2.4538,-2.4693,-2.4802,-2.4816,-2.4532,-2.3896,-2.3861,0.0,0.0,0.0,0.0,0.0,0.0,0.0,0.0,0.0,0.0,0.0,0.0,0.0,0.0,0.0,0.0,0.0,0.0,0.0,-2.5308,-2.5322,-2.5813,0.0,0.0,0.0,0.0,0.0,0.0,0.0,0.0,0.0,-3.3532,-3.3954,-3.4309,0.0,0.0,-3.5529,-3.4454,-3.4095,-3.4095,-3.4465,-3.3477,0.0,-3.1754,-3.1561,-3.1725,-3.2445,-3.2143,-3.1777,-3.166,-3.1047,-3.0563,-3.0518,-3.046,-3.0404,-3.0404,-3.0404,-3.0404,-3.0404,-3.0404,-3.0273,-2.9968,-2.9842,-2.9679,-2.6786,-2.6121,-2.6071,-2.6142,-2.6285,-2.6268,-2.6352,-2.6471,-2.6455,-2.6417,-2.6336,-2.6336,-2.6031,-2.5542,-2.5366,0.0,0.0,0.0,-2.7353,-2.8246,-2.7934,-2.8062,-2.8503,-2.818,-2.8051,-2.8014,-2.7236,-2.6586,-2.6109,-2.5319,-2.4579,-2.3907,0.0,0.0,-2.3421,-2.3392,-2.3224,-2.2923,-2.2928,-2.2945,-2.291,-2.3212,-2.3762,-2.4478,-2.4503,-2.467,-2.4983,-2.4975,-2.4849,-2.4529,-2.4554,-2.4203,0.0,0.0,0.0,0.0,0.0,0.0,0.0,0.0,0.0,0.0,0.0,-2.4372,-2.4773,0.0,0.0,0.0,-2.5847,-2.6467,-2.6774,-2.7115,0.0,0.0,0.0,0.0,0.0,0.0,0.0,-3.2337,-3.3558,-3.445,-3.4668,-3.4958,-3.5119,-3.5056,-3.5478,-3.5444,-3.4392,0.0,-3.384,-3.4109,-3.2884,-3.1805,-3.1476,-3.1337,-3.1507,-3.2147,-3.1922,-3.1619,-3.1562,-3.1032,-3.0631,-3.0546,-3.0477,-3.0439,-3.0396,-3.0404,-3.0404,-3.0398,-3.0311,-3.0137,-2.9855,-2.9685,-2.9399,-2.8496,-2.8453,-2.8323,-2.8538,-2.8993,-2.8993,-2.8569,-2.7908,-2.7807,-2.7418,-2.6793,-2.6742,-2.6319,-2.5659,-2.5347,0.0,-2.7196,-2.7264,-2.7894,-2.8934,-2.8216,-2.7879,-2.7853,-2.709,-2.6704,-2.6704,-2.5815,-2.5384,-2.5374,-2.4593,-2.4199,-2.4199,-2.4199,-2.4054,-2.3764,-2.3724,-2.3566,-2.3247,-2.3224,-2.3224,-2.32,-2.3511,-2.3903,-2.4408,-2.4469,-2.4559,-2.4749,-2.4775,-2.4842,-2.498,-2.5042,-2.4807,-2.4212,0.0,0.0,0.0,0.0,0.0,0.0,0.0,0.0,0.0,0.0,0.0,0.0,0.0,0.0,0.0,-2.6892,0.0,-2.9146,-2.9904,0.0,0.0,0.0,-3.0968,-3.1909,-3.2837,-3.3403,-3.3397,0.0,0.0,-3.4902,-3.5508,-3.5888,-3.5629,-3.559,-3.5266,-3.4327,-3.3397,-3.2622,-3.2288,-3.1179,-3.0423,-3.0523,-3.0535,-3.0649,-3.0806,-3.0693,-3.0786,-3.0898,-3.0694,-3.0594,-3.0622,-3.0429,-3.0264,-3.0273,-3.0173,-3.0192,-3.0079,-2.9998,-2.9846,-2.9627,-2.9317,-2.8849,-2.9016,-2.9824,-2.9786,-2.949,-2.8993,-2.8993,-2.8891,-2.867,-2.806,-2.7705,-2.7503,-2.6945,-2.6623,-2.6437,-2.665,-2.6926,-2.7309,-2.7853,-2.8278,-2.8547,-2.868,-2.8712,-2.8675,-2.7897,-2.7512,-2.742,-2.6072,-2.5384,-2.5366,-2.4575,-2.4199,-2.4199,-2.4199,-2.4161,-2.4084,-2.4084,-2.3917,-2.3577,-2.3577,-2.3466,-2.32,-2.3259,-2.3486,-2.3881,-2.4125,-2.4366,-2.4551,-2.4559,-2.4643,-2.4842,-2.4852,-2.4777,-2.4644,-2.398,0.0,0.0,0.0,0.0,0.0,0.0,0.0,0.0,0.0,-2.4543,-2.4503,0.0,-2.5927,0.0,-2.8676,-2.9885,-3.0058,-3.0269,0.0,0.0,-3.2314,-3.294,-3.4489,-3.4932,-3.5148,-3.5236,-3.5695,-3.5918,-3.5703,-3.5833,-3.5646,-3.4908,-3.4795,-3.4629,-3.4224,-3.291,-3.2025,-3.1974,-3.1121,-3.0404,-3.0396,-3.0452,-3.0506,-3.0617,-3.0652,-3.0745,-3.0859,-3.0285,-2.9948,-3.037,-2.9458,-2.8921,-2.9322,-2.8929,-2.8485,-2.8351,-2.8695,-2.8767,-2.7855,-2.7577,-2.7382,-2.9695,-3.033,-3.0597,-3.0429,-2.9973,-2.9974,-2.977,-2.9431,-2.867,-2.8128,-2.7773,-2.7012,-2.6708,-2.6725,-2.6922,-2.7131,-2.7317,-2.7715,-2.8098,-2.842,-2.8633,-2.8645,-2.8436,-2.764,-2.709,-2.6696,-2.5466,-2.486,-2.4842,-2.441,-2.4199,-2.4199,-2.4199,-2.4199,-2.4199,-2.4199,-2.4122,-2.3927,-2.3917,-2.3756,-2.3426,-2.3414,-2.3511,-2.371,-2.3886,-2.4086,-2.4375,-2.4347,-2.4461,-2.4654,-2.4662,-2.4708,-2.4778,-2.4249,-2.3963,0.0,0.0,0.0,0.0,0.0,0.0,0.0,0.0,0.0,0.0,0.0,-2.7065,-2.9068,-3.0529,-3.1526,-3.2058,-3.2442,-3.3058,-3.3968,-3.4064,-3.4455,-3.5498,-3.5663,-3.5758,-3.5877,-3.5951,-3.6016,-3.5996,-3.5621,-3.5167,-3.4564,-3.3826,-3.3289,-3.3066,-3.2237,-3.1621,-3.1358,-3.0808,-3.0404,-3.0404,-3.0419,-3.0322,-3.0086,-3.0367,-3.0464,-2.9837,-2.9648,-2.9549,-2.9438,-2.8696,-2.8148,-2.8457,-2.8222,-2.7731,-2.7211,-2.7285,-2.7354,-2.6979,-2.6823,-2.6658,-3.0335,-3.0477,-3.0978,-3.119,-3.119,-3.119,-3.0784,-3.004,-2.9194,-2.8399,-2.7638,-2.708,-2.6793,-2.6708,-2.6793,-2.6975,-2.7208,-2.7288,-2.7675,-2.8329,-2.8381,-2.8221,-2.7915,-2.7034,-2.6245,-2.554,-2.463,-2.4199,-2.4199,-2.4199,-2.4199,-2.4199,-2.4199,-2.4199,-2.4199,-2.4199,-2.4199,-2.4199,-2.4161,-2.3976,-2.3649,-2.3639,-2.361,-2.3577,-2.361,-2.3795,-2.4103,-2.4141,-2.4238,-2.4462,-2.4461,-2.4553,-2.4708,-2.4551,-2.42,0.0,-2.3694,0.0,0.0,0.0,0.0,0.0,0.0,0.0,0.0,-2.721,-2.8637,-3.1298,-3.2313,-3.3242,-3.4229,-3.5025,-3.55,-3.5481,-3.55,-3.5522,-3.5616,-3.5671,-3.5761,-3.5905,-3.5874,-3.582,-3.5762,-3.5078,-3.446,-3.4008,-3.2895,-3.1957,-3.1609,-3.1525,-3.1212,-3.0481,-3.0404,-3.0404,-3.0385,-3.0288,-2.9985,-2.944,-2.9703,-2.9793,-2.8508,-2.8786,-2.9018,-2.8431,-2.7954,-2.7718,-2.7764,-2.7656,-2.7193,-2.6314,-2.6043,-2.6042,-2.6354,-2.6309,-2.6059,-3.058,-3.1035,-3.1151,-3.119,-3.119,-3.119,-3.0768,-2.9987,-2.8618,-2.7621,-2.6945,-2.7384,-2.7266,-2.6759,-2.7317,-2.7317,-2.6841,-2.7162,-2.756,-2.7992,-2.8259,-2.853,-2.8663,-2.7262,-2.6521,-2.6282,-2.4905,-2.4199,-2.4199,-2.4199,-2.4199,-2.4199,-2.4199,-2.4199,-2.4199,0.0,0.0,0.0,-2.3927,-2.3639,-2.3323,-2.33,-2.3165,-2.2893,-2.3153,0.0,-2.3774,-2.3777,-2.3919,-2.4228,-2.4247,0.0,0.0,0.0,0.0,0.0,0.0,0.0,0.0,0.0,0.0,0.0,-2.608,-2.6211,-2.7501,-2.9576,-3.1376,-3.2585,-3.3866,-3.4693,-3.4915,-3.528,-3.55,-3.55,-3.55,-3.5546,-3.5671,-3.5693,-3.578,-3.5953,-3.5371,-3.4941,-3.4902,-3.4132,-3.328,-3.2597,-3.2066,-3.1506,-3.0747,-3.0679,-3.0577,-3.0423,-3.0327,-3.0385,-3.0404,-2.9775,-2.9305,-2.9169,-2.8761,-2.8525,-2.8172,-2.7729,-2.7967,-2.8423,-2.7289,-2.6307,-2.6985,-2.6462,-2.5791,-2.5327,-2.5163,-2.5009,-2.4964,-2.482,-2.4612,-3.0935,0.0,-3.119,-3.119,0.0,-3.0801,-3.0243,-2.9482,-2.8721,-2.796,-2.7232,-2.7249,-2.7266,-2.7249,-2.7266,-2.7046,-2.6708,-2.6923,-2.7317,-2.7897,-2.8075,-2.8252,-2.8381,-2.7152,-2.6392,-2.598,-2.4777,-2.4199,-2.4199,-2.4199,-2.4199,-2.4199,-2.4199,-2.4199,-2.4199,-2.4199,-2.4199,-2.4199,-2.4026,-2.3785,-2.3466,-2.3288,-2.3117,-2.296,-2.2947,0.0,0.0,0.0,0.0,0.0,0.0,0.0,0.0,0.0,0.0,-2.5063,-2.5129,-2.5237,-2.5504,-2.5851,-2.6362,-2.6951,-2.7652,-2.8329,-2.8962,-3.0964,-3.2578,-3.351,-3.44,-3.4963,-3.5096,-3.5327,-3.55,-3.55,-3.55,-3.5534,-3.5596,-3.5325,-3.5165,-3.5198,-3.4588,-3.4062,-3.4062,-3.3317,-3.2598,-3.2013,-3.1495,-3.0866,-3.0057,-3.0142,-3.0288,-2.9827,-2.9756,-2.9602,-2.9217,-2.8857,-2.8335,-2.8015,-2.7993,-2.7698,-2.6991,-2.6914,-2.7089,-2.7229,-2.6273,-2.5692,-2.6013,-2.5685,-2.5269,-2.5157,-2.5011,-2.4843,-2.4678,-2.4419,-2.4199,-3.119,-3.119,-3.119,-3.119,-3.114,-3.0548,-2.9833,-2.9033,0.0,0.0,0.0,-2.7452,-2.7503,-2.7773,-2.7317,-2.6979,-2.6708,-2.6708,-2.7099,-2.7779,-2.7797,-2.7803,-2.7782,-2.6852,-2.606,-2.5395,-2.4523,-2.4132,-2.4113,-2.417,-2.4199,-2.4199,-2.4199,-2.4199,-2.4199,-2.4199,-2.4199,-2.4199,-2.4199,-2.4036,-2.3703,-2.3369,-2.3165,-2.3117,-2.2802,-2.2789,-2.3093,-2.3117,-2.3141,-2.32,-2.3459,-2.3628,-2.3628,-2.3927,-2.4346,-2.4884,-2.5301,-2.5489,-2.5418,-2.6207,-2.6778,-2.6967,-2.8907,-3.0186,-3.0381,-3.1739,-3.3011,-3.4055,-3.4412,-3.4734,-3.4999,-3.5273,-3.5388,-3.5282,-3.5276,-3.5245,-3.5131,-3.4648,-3.4276,-3.4273,-3.3643,-3.3164,-3.3164,-3.248,-3.1932,-3.1697,-3.0951,-3.0066,-2.9299,-2.9457,-2.9583,-2.903,-2.889,-2.8665,-2.8107,-2.7736,-2.7395,-2.6881,-2.7164,-2.7008,-2.6032,-2.6144,-2.6323,-2.5915,-2.5585,-2.5525,-2.5451,-2.5398,-2.5317,-2.5308,-2.5124,-2.4943,-2.4792,-2.4478,-2.4227,-3.119,-3.119,-3.119,-3.119,-3.119,-3.1089,-3.0348,-2.9135,-2.8335,-2.7908,-2.7891,-2.911,-2.8939,-2.7841,-2.8416,-2.796,-2.6725,-2.6708,-2.6955,-2.7363,-2.7378,-2.7566,-2.7802,-2.6343,-2.5595,-2.5394,-2.4311,-2.3767,-2.3806,-2.4064,-2.4199,-2.4199,-2.4199,-2.4199,-2.4199,-2.4199,-2.4199,-2.4199,-2.4199,-2.4044,-2.3703,-2.3369,-2.3057,-2.2772,-2.25,-2.249,-2.2759,-2.2772,-2.291,-2.3177,-2.3253,-2.3277,-2.3271,-2.3606,-2.4264,-2.5283,-2.5464,-2.5932,-2.6868,-2.6803,-2.7001,-2.7734,-2.8955,-3.0124,-3.1157,-3.2082,-3.2939,-3.3771,-3.4074,-3.4412,-3.4724,-3.4952,-3.4894,-3.4461,-3.4372,-3.4159,-3.3626,-3.3397,-3.3331,-3.3434,-3.273,-3.2256,-3.2285,-3.1641,-3.1092,-3.0821,-3.0082,-2.9262,-2.8435,-2.8203,-2.8209,-2.8107,-2.8063,-2.8011,-2.7684,-2.7217,-2.6774,-2.664,-2.6146,-2.587,-2.5527,-2.5666,-2.5813,-2.5713,-2.5619,-2.557,-2.5501,-2.5434,-2.5375,-2.5313,-2.5066,-2.4862,-2.4825,-2.4512,-2.4228,-3.119,-3.119,-3.119,-3.119,-3.1137,-3.0422,-2.9779,-2.9156,-2.8398,-2.8063,-2.8115,-2.8394,-2.8306,-2.7977,-2.7877,-2.7457,-2.6708,-2.6708,-2.6923,-2.7303,-2.7319,-2.729,-2.7187,-2.6489,-2.5681,-2.4875,-2.4491,-2.4086,-2.3761,-2.4026,-2.4199,-2.4199,-2.4199,-2.4199,-2.4199,-2.4199,-2.4199,-2.4199,-2.4199,-2.4141,-2.3976,-2.3649,-2.3305,-2.2984,-2.2695,-2.25,-2.2473,-2.249,-2.2554,-2.2712,-2.287,-2.2917,-2.2947,-2.3602,-2.4376,-2.5176,-2.5614,-2.6157,-2.6918,-2.7003,-2.7178,-2.7577,-2.8419,-2.9365,-3.035,-3.1369,-3.2284,-3.3054,-3.3395,-3.3605,-3.3768,-3.4035,-3.3961,-3.3393,-3.3339,-3.3236,-3.2987,-3.26,-3.2431,-3.2452,-3.1814,-3.1352,-3.1484,-3.1152,-3.0664,-3.0131,-2.9029,-2.7928,-2.7349,-2.6848,-2.6732,-2.7098,-2.7198,-2.6967,-2.6601,-2.6178,-2.5904,-2.5885,-2.5586,-2.5378,-2.5387,-2.5486,-2.5554,-2.5621,-2.5605,-2.5586,-2.5531,-2.5434,-2.5379,-2.5317,-2.5192,-2.5043,-2.491,-2.4707,-2.4467,-3.1092,-3.119,-3.119,-3.1114,-3.0868,-2.958,-2.9046,-2.8999,-2.8399,-2.8131,-2.809,-2.7799,-2.7879,-2.8061,-2.7473,-2.7013,-2.6756,-2.6708,-2.6873,-2.7147,-2.7162,-2.6989,-2.6691,-2.6527,-2.5705,-2.4471,-2.453,-2.4253,-2.3689,-2.3917,-2.4141,-2.418,-2.4199,-2.4199,-2.4199,-2.4199,-2.4199,-2.4199,-2.4199,-2.4199,-2.419,-2.3876,-2.3577,-2.3323,-2.2923,-2.2599,-2.2398,-2.2321,-2.2254,-2.2163,-2.2446,-2.2569,-2.2485,-2.3393,-2.4226,-2.483,-2.5486,-2.6107,-2.6656,-2.6987,-2.7192,-2.7286,-2.7816,-2.8457,-2.9175,-3.0059,-3.1117,-3.2137,-3.252,-3.2648,-3.2743,-3.2918,-3.2836,-3.2317,-3.2283,-3.2251,-3.2192,-3.1788,-3.1529,-3.1524,-3.1053,-3.0766,-3.0879,-3.0918,-3.0469,-2.9355,-2.7903,-2.6864,-2.6459,-2.5802,-2.5731,-2.6091,-2.6314,-2.612,-2.5404,-2.5346,-2.5346,-2.5308,-2.5313,-2.5336,-2.5371,-2.5425,-2.549,-2.5558,-2.5599,-2.5581,-2.5529,-2.5479,-2.5417,-2.5352,-2.5249,-2.5141,-2.4962,-2.4849,-2.4714,-3.0699,-3.1171,-3.1171,-3.0878,-3.0293,-2.9123,-2.8607,-2.849,-2.7951,-2.767,-2.7767,-2.8746,-2.8792,-2.8298,-2.8017,-2.7498,-2.6867,-2.6738,-2.6708,-2.6758,-2.6758,-2.6741,-2.6637,-2.6043,-2.5279,-2.4539,-2.4219,-2.3889,-2.3372,-2.3606,-2.3896,-2.417,-2.4199,-2.4199,-2.4199,-2.4199,-2.4199,-2.4199,-2.4199,-2.4199,-2.418,-2.3876,-2.3682,-2.366,-2.3033,-2.2695,-2.2647,-2.2409,-2.2106,-2.1749,-2.2104,-2.2147,-2.1834,-2.2463,-2.3353,-2.4477,-2.4937,-2.5571,-2.6555,-2.6741,-2.6923,-2.7257,-2.7363,-2.7607,-2.805,-2.8205,-2.9184,-3.089,-3.1488,-3.1598,-3.1879,-3.1926,-3.1686,-3.124,-3.1295,-3.1134,-3.0574,-3.0499,-3.0637,-3.071,-3.0739,-3.0746,-3.0879,-3.0781,-3.0156,-2.875,-2.7534,-2.654,-2.5948,-2.5621,-2.5417,-2.5511,-2.5483,-2.5452,-2.5288,-2.5308,-2.5308,-2.5308,-2.5308,-2.5303,-2.5326,-2.5368,-2.5437,-2.5505,-2.5566,-2.5585,-2.5564,-2.5524,-2.5477,-2.5379,-2.5231,-2.5018,-2.4869,-2.4832,-2.4801,-3.0123,-3.0658,-3.0658,-3.0539,-3.0187,-2.9384,-2.8826,-2.8455,-2.7885,-2.7585,-2.7635,-2.8125,-2.8108,-2.7745,-2.7294,-2.6865,-2.6464,-2.6017,-2.5998,-2.6262,-2.6297,-2.6419,-2.664,-2.6404,-2.5862,-2.52,-2.518,-2.4646,-2.3771,-2.3676,-2.3767,-2.3935,-2.4112,-2.4199,-2.4199,-2.4199,-2.4199,-2.4199,-2.4199,-2.4199,-2.419,-2.4074,-2.3896,-2.3682,-2.3236,-2.2898,-2.2669,-2.2195,-2.1794,-2.1597,-2.1553,-2.1553,-2.1613,-2.2289,-2.335,-2.4751,-2.5826,-2.6463,-2.6691,-2.6708,-2.6775,-2.6922,-2.7162,-2.7378,-2.753,-2.7751,-2.8368,-2.9139,-2.9755,-3.0241,-3.0721,-3.0655,-3.0388,-3.0129,-3.0232,-3.0257,-3.0056,-3.0247,-3.0477,-3.0581,-3.0611,-3.0703,-3.0684,-3.0,-2.9141,-2.8203,-2.7147,-2.6067,-2.5663,-2.5551,-2.5481,-2.5409,-2.5379,-2.5333,-2.5313,-2.5308,-2.5308,-2.5308,-2.5308,-2.5308,-2.5303,-2.5346,-2.5414,-2.5468,-2.5545,-2.5604,-2.5608,-2.5572,-2.5537,-2.5428,-2.5324,-2.5146,-2.5109,-2.5084,-2.5103,-2.9518,-2.9978,-2.9892,-2.9805,-2.9739,-2.9157,-2.8662,-2.8247,-2.7785,-2.7585,-2.7585,-2.7585,-2.7538,-2.7362,-2.671,-2.6361,-2.6171,-2.5536,-2.5392,-2.5762,-2.5924,-2.6157,-2.6487,-2.6657,-2.6319,-2.5742,-2.5811,-2.534,-2.4316,-2.4217,-2.4123,-2.4053,-2.4262,-2.4303,-2.4208,-2.4199,-2.4199,-2.4199,-2.4199,-2.4199,-2.4199,-2.4199,-2.4084,-2.3845,-2.3511,-2.3195,-2.2835,-2.2144,-2.1625,-2.143,-2.1166,-2.1071,-2.1244,-2.1966,-2.3115,-2.4651,-2.5949,-2.6645,-2.6551,-2.6436,-2.6488,-2.6691,-2.6971,-2.7131,-2.7194,-2.7394,-2.7604,-2.7824,-2.8172,-2.8755,-2.9396,-2.9391,-2.9258,-2.9167,-2.9428,-2.9773,-2.9908,-3.0222,-3.0496,-3.0547,-3.0613,-3.057,-3.0332,-2.9297,-2.8301,-2.7832,-2.666,-2.5683,-2.5635,-2.5605,-2.5542,-2.5468,-2.5415,-2.5344,-2.5298,-2.5308,-2.5308,-2.5308,-2.5308,-2.5308,-2.5308,-2.5346,-2.5415,-2.5477,-2.5533,-2.5583,-2.5623,-2.561,-2.5559,-2.5447,-2.5363,-2.5303,-2.5259,-2.5284,-2.5284,-2.8896,-2.9332,-2.8826,-2.8677,-2.8543,-2.8018,-2.771,-2.7685,-2.7625,-2.7585,-2.7585,-2.7585,-2.7595,-2.752,-2.6757,-2.6399,-2.6262,-2.5535,-2.5176,-2.5278,-2.5723,-2.5979,-2.605,-2.647,-2.6302,-2.5679,-2.5726,-2.5456,-2.4974,-2.5212,-2.5202,-2.4763,-2.4773,-2.4588,-2.4296,-2.4272,-2.4226,-2.4199,-2.4199,-2.4199,-2.4199,-2.4199,-2.418,-2.4113,-2.3855,-2.3459,-2.3129,-2.2464,-2.1738,-2.1039,-2.0943,-2.078,-2.05,-2.1246,-2.2463,-2.3853,-2.4711,-2.5443,-2.5975,-2.5868,-2.5964,-2.6556,-2.6708,-2.6741,-2.6791,-2.6791,-2.6938,-2.727,-2.7072,-2.7251,-2.7917,-2.829,-2.8476,-2.8565,-2.9211,-2.9615,-2.9712,-3.019,-3.0501,-3.0548,-3.0616,-3.0402,-2.9718,-2.8843,-2.7988,-2.7246,-2.6289,-2.5703,-2.5702,-2.5636,-2.5599,-2.5554,-2.5449,-2.5298,-2.5303,-2.5308,-2.5308,-2.5274,-2.5259,-2.5279,-2.5288,-2.5317,-2.5383,-2.5459,-2.5483,-2.5556,-2.5624,-2.5633,-2.5552,-2.5479,-2.5418,-2.5376,-2.5069,-2.5212,-2.5087,-2.8271,-2.885,-2.9012,-2.8873,-2.8503,-2.8262,-2.7944,-2.7585,-2.7585,-2.7585,-2.7585,-2.7585,-2.7585,-2.754,-2.6835,-2.628,-2.5834,-2.516,-2.4761,-2.4719,-2.491,-2.5163,-2.554,-2.6015,-2.6144,-2.593,-2.6152,-2.5978,-2.5405,-2.5248,-2.5104,-2.5064,-2.5355,-2.5256,-2.4733,-2.4852,-2.4732,-2.4254,-2.4199,-2.4199,-2.4236,-2.4199,-2.4199,-2.417,-2.3671,-2.3335,-2.32,-2.2035,-2.1275,-2.0991,-2.0162,-1.9866,-2.0398,-2.1836,-2.2878,-2.3463,-2.4471,-2.5169,-2.5362,-2.5526,-2.5694,-2.5981,-2.6437,-2.6674,-2.6641,-2.6436,-2.6332,-2.6419,-2.6351,-2.6437,-2.6707,-2.728,-2.7872,-2.8376,-2.8822,-2.9303,-2.965,-2.9982,-3.0237,-3.0433,-3.057,-3.0338,-2.9528,-2.8771,-2.7923,-2.7109,-2.625,-2.5781,-2.5703,-2.5664,-2.5644,-2.5605,-2.5572,-2.5521,-2.5375,-2.5332,-2.5279,-2.5208,-2.5163,-2.5163,-2.5168,-2.5253,-2.5329,-2.5374,-2.5404,-2.528,-2.5303,-2.5544,-2.5492,-2.5428,-2.5386,-2.5208,-2.4702,-2.4783,-2.4394,-2.7835,-2.8262,-2.8662,-2.8591,-2.8222,-2.8198,-2.7984,-2.761,-2.7585,-2.7585,-2.7585,-2.7585,-2.7585,-2.7525,-2.7121,-2.6542,-2.5854,-2.5031,-2.4437,-2.4183,-2.4343,-2.4592,-2.4969,-2.5503,-2.5817,-2.605,-2.6487,-2.642,-2.5997,-2.5675,-2.5463,-2.54,-2.5839,-2.5754,-2.5319,-2.5459,-2.5343,-2.4986,-2.4722,-2.4593,-2.4557,-2.4328,-2.4199,-2.4103,-2.3544,-2.3189,-2.3177,-2.1992,-2.1228,-2.0878,-1.9798,-1.9405,-2.0158,-2.1567,-2.2637,-2.3039,-2.3921,-2.4655,-2.4917,-2.5112,-2.5225,-2.5409,-2.5895,-2.6219,-2.6101,-2.5849,-2.5764,-2.5744,-2.5744,-2.5797,-2.6068,-2.6556,-2.7251,-2.808,-2.8573,-2.9023,-2.9514,-2.9771,-3.0011,-3.0246,-3.0453,-3.0101,-2.9215,-2.8574,-2.7719,-2.6758,-2.6035,-2.5723,-2.5703,-2.5703,-2.5684,-2.5644,-2.5644,-2.5574,-2.5446,-2.5322,-2.5196,-2.5116,-2.5031,-2.5018,-2.5041,-2.513,-2.5216,-2.5277,-2.5192,-2.5007,-2.5073,-2.5351,-2.5384,-2.5312,-2.5366,-2.5286,-2.4788,-2.4284,-2.3932,-2.7625,-2.7635,-2.761,-2.771,-2.766,-2.7685,-2.7625,-2.7585,-2.7585,-2.7585,-2.7585,-2.7585,-2.7585,-2.757,-2.7419,-2.7121,-2.6266,-2.507,-2.4246,-2.3853,-2.4168,-2.4364,-2.443,-2.495,-2.5521,-2.6013,-2.6453,-2.6674,-2.6606,-2.6538,-2.6378,-2.6148,-2.6165,-2.6135,-2.5961,-2.6009,-2.6195,-2.6169,-2.5674,-2.5411,-2.5311,-2.4713,-2.4328,-2.4215,-2.3591,-2.3189,-2.3177,-2.2421,-2.1681,-2.1023,-2.0095,-1.9606,-1.968,-2.049,-2.1351,-2.2447,-2.3007,-2.3715,-2.4574,-2.4518,-2.4628,-2.4936,-2.5256,-2.5396,-2.521,-2.5206,-2.5259,-2.5202,-2.5205,-2.5373,-2.5834,-2.605,-2.6607,-2.7704,-2.8317,-2.878,-2.9295,-2.9683,-2.992,-2.9985,-3.018,-2.9764,-2.8634,-2.8054,-2.7417,-2.625,-2.5762,-2.5703,-2.5703,-2.5703,-2.5703,-2.5684,-2.5664,-2.5606,-2.5452,-2.5282,-2.5135,-2.5009,-2.4929,-2.4874,-2.4857,-2.4923,-2.505,-2.512,-2.5054,-2.4907,-2.4849,-2.5076,-2.5077,-2.5051,-2.5195,-2.5024,-2.4131,-2.35,-2.3602,-2.7585,-2.7585,-2.7585,-2.7585,-2.7585,-2.7585,-2.7585,-2.7585,-2.7585,-2.7585,-2.7585,-2.7585,-2.7585,-2.7458,-2.7086,-2.6487,-2.5752,-2.4543,-2.4048,-2.4216,-2.3993,-2.3858,-2.3964,-2.441,-2.5128,-2.5888,-2.6156,-2.6401,-2.6641,-2.6708,-2.6622,-2.6567,-2.6785,-2.6601,-2.6174,-2.6545,-2.6682,-2.6209,-2.6231,-2.6227,-2.6153,-2.5448,-2.5026,-2.4902,-2.3842,-2.3189,-2.3153,-2.2262,-2.167,-2.1399,-2.0251,-1.9459,-1.9405,-2.0254,-2.1251,-2.2027,-2.2583,-2.317,-2.3921,-2.4231,-2.4353,-2.4633,-2.5305,-2.5564,-2.5213,-2.5127,-2.4983,-2.4716,-2.4657,-2.4871,-2.5354,-2.5781,-2.6403,-2.7361,-2.7672,-2.8143,-2.889,-2.9428,-2.9763,-2.9828,-2.9576,-2.8934,-2.8194,-2.7704,-2.688,-2.5924,-2.5682,-2.5703,-2.5703,-2.5684,-2.5703,-2.5703,-2.5664,-2.562,-2.547,-2.5255,-2.5056,-2.4905,-2.4792,-2.4673,-2.4659,-2.4733,-2.4867,-2.4845,-2.4799,-2.473,-2.4691,-2.4888,-2.4977,-2.4941,-2.5076,-2.4287,-2.3037,-2.2753,-2.2928,-2.7974,-2.7989,-2.7974,-2.7824,-2.76,-2.7585,-2.7585,-2.7585,-2.7585,-2.7585,-2.7585,-2.7585,-2.7585,-2.7433,-2.6826,-2.628,-2.573,-2.4497,-2.4123,-2.4259,-2.3327,-2.3143,-2.358,-2.4158,-2.4692,-2.5373,-2.5815,-2.6156,-2.6453,-2.6607,-2.6691,-2.6758,-2.6938,-2.7016,-2.6792,-2.7187,-2.7266,-2.7127,-2.7101,-2.7034,-2.6888,-2.6264,-2.5635,-2.5142,-2.418,-2.3483,-2.3019,-2.2261,-2.1779,-2.1413,-2.032,-1.9495,-1.9292,-2.0165,-2.1021,-2.174,-2.2479,-2.3159,-2.3671,-2.4066,-2.4199,-2.4277,-2.4758,-2.4976,-2.4646,-2.4521,-2.4327,-2.4158,-2.408,-2.4389,-2.5105,-2.5468,-2.6106,-2.6987,-2.7239,-2.7683,-2.85,-2.9069,-2.9429,-2.9477,-2.9194,-2.8543,-2.7894,-2.7278,-2.6493,-2.581,-2.5643,-2.5681,-2.5661,-2.5644,-2.5644,-2.5644,-2.5644,-2.5582,-2.547,-2.5255,-2.4976,-2.4796,-2.4647,-2.4503,-2.4418,-2.4562,-2.4691,-2.4465,-2.4351,-2.4049,-2.4019,-2.4955,-2.5357,-2.5219,-2.4763,-2.4043,-2.3102,-2.2462,-2.2417,-2.8592,-2.8592,-2.8547,-2.8098,-2.7615,-2.7585,-2.7585,-2.7585,-2.7585,-2.7585,-2.7585,-2.7585,-2.7585,-2.7433,-2.6707,-2.6281,-2.6128,-2.4707,-2.4013,-2.365,-2.2663,-2.2292,-2.3399,-2.3891,-2.4266,-2.4652,-2.5449,-2.5959,-2.6103,-2.6487,-2.6708,-2.6774,-2.6841,-2.7131,-2.7616,-2.7876,-2.8169,-2.8463,-2.8127,-2.7879,-2.7824,-2.709,-2.6155,-2.5109,-2.4581,-2.3804,-2.285,-2.2405,-2.2046,-2.1521,-2.047,-1.9836,-1.9748,-2.0034,-2.075,-2.1526,-2.2561,-2.32,-2.366,-2.3982,-2.4107,-2.3937,-2.3996,-2.3602,-2.3735,-2.3788,-2.3756,-2.3704,-2.3681,-2.4074,-2.495,-2.5259,-2.5746,-2.6556,-2.7083,-2.7616,-2.8214,-2.8579,-2.8894,-2.9078,-2.89,-2.8388,-2.7547,-2.6958,-2.6317,-2.5827,-2.5586,-2.5598,-2.5604,-2.5586,-2.5549,-2.5568,-2.5627,-2.5582,-2.5488,-2.5194,-2.4903,-2.4594,-2.4429,-2.4275,-2.4248,-2.4414,-2.4529,-2.4276,-2.4047,-2.3687,-2.3879,-2.4926,-2.4996,-2.4355,-2.4003,-2.3758,-2.3123,-2.2245,-2.1861,-2.8592,-2.8547,-2.8053,-2.7764,-2.76,-2.7585,-2.7585,-2.7585,-2.7585,-2.7585,-2.7585,-2.7585,-2.7575,-2.7458,-2.6269,-2.5673,-2.5246,-2.3756,-2.2882,-2.271,-2.1615,-2.1762,-2.2721,-2.3084,-2.3599,-2.4353,-2.5086,-2.5615,-2.5997,-2.647,-2.6824,-2.7131,-2.7115,-2.7363,-2.7851,-2.8143,-2.8342,-2.8559,-2.868,-2.8638,-2.8528,-2.7879,-2.6922,-2.585,-2.4926,-2.3915,-2.2812,-2.2436,-2.2075,-2.1658,-2.1305,-2.0749,-2.0248,-2.0534,-2.0943,-2.1422,-2.2049,-2.2813,-2.3537,-2.3905,-2.409,-2.4303,-2.4371,-2.4507,-2.4035,-2.4098,-2.3975,-2.3748,-2.3616,-2.4053,-2.495,-2.524,-2.5709,-2.6522,-2.6966,-2.7328,-2.7643,-2.8112,-2.8433,-2.8127,-2.7838,-2.7331,-2.681,-2.6217,-2.578,-2.5595,-2.554,-2.5517,-2.5515,-2.549,-2.5437,-2.5564,-2.5605,-2.5561,-2.5446,-2.5151,-2.4807,-2.441,-2.4191,-2.3991,-2.4098,-2.429,-2.4406,-2.4373,-2.4265,-2.3964,-2.4451,-2.5236,-2.4509,-2.3954,-2.3899,-2.3874,-2.2359,-2.1303,-2.1327,-2.9101,-2.8607,-2.8498,-2.8109,-2.763,-2.7585,-2.7585,-2.7585,-2.7585,-2.7585,-2.7585,-2.7585,-2.7448,-2.7008,-2.5919,-2.5217,-2.4755,-2.3344,-2.2718,-2.2536,-2.1602,-2.1446,-2.1959,-2.2351,-2.3061,-2.3728,-2.4716,-2.5332,-2.5744,-2.6349,-2.6906,-2.7225,-2.7319,-2.7589,-2.8098,-2.829,-2.8502,-2.867,-2.8887,-2.8987,-2.8932,-2.8576,-2.7714,-2.67,-2.5742,-2.4739,-2.3257,-2.2661,-2.2298,-2.194,-2.1688,-2.1275,-2.0715,-2.0845,-2.1007,-2.1053,-2.1678,-2.2456,-2.3124,-2.3623,-2.4023,-2.4238,-2.4409,-2.4241,-2.4067,-2.403,-2.3683,-2.3646,-2.38,-2.4348,-2.5067,-2.5561,-2.5921,-2.6168,-2.6446,-2.6788,-2.722,-2.7519,-2.7602,-2.7333,-2.695,-2.6532,-2.6174,-2.5636,-2.5445,-2.5454,-2.5464,-2.5436,-2.5414,-2.5356,-2.532,-2.541,-2.5541,-2.554,-2.5368,-2.5087,-2.4661,-2.4271,-2.3745,-2.3588,-2.3793,-2.4007,-2.4116,-2.4195,-2.4282,-2.4466,-2.4848,-2.513,-2.4941,-2.455,-2.4387,-2.3643,-2.2261,-2.1203,-2.1149,-2.9744,-2.8742,-2.9202,-2.8708,-2.7675,-2.7585,-2.7585,-2.7585,-2.7585,-2.7509,-2.7433,-2.7473,-2.7008,-2.6336,-2.5508,-2.4908,-2.4279,-2.345,-2.3059,-2.2631,-2.1914,-2.1361,-2.1084,-2.1864,-2.2489,-2.3002,-2.4343,-2.4976,-2.5414,-2.6192,-2.6824,-2.7225,-2.7365,-2.7747,-2.8246,-2.8446,-2.8658,-2.8887,-2.8964,-2.8987,-2.8987,-2.8847,-2.8273,-2.7218,-2.6308,-2.5216,-2.3788,-2.2983,-2.2546,-2.231,-2.1853,-2.1399,-2.1039,-2.0975,-2.0748,-2.0584,-2.1256,-2.1975,-2.2561,-2.3211,-2.3772,-2.4027,-2.3667,-2.35,-2.3841,-2.3604,-2.3356,-2.3597,-2.4085,-2.4621,-2.5335,-2.6139,-2.6202,-2.593,-2.5692,-2.6123,-2.6659,-2.6723,-2.6628,-2.6836,-2.6062,-2.5855,-2.5665,-2.5494,-2.5194,-2.5368,-2.5377,-2.5353,-2.5288,-2.52,-2.5172,-2.5174,-2.5324,-2.5488,-2.529,-2.5027,-2.4554,-2.4065,-2.3382,-2.3117,-2.3323,-2.3534,-2.3696,-2.3841,-2.4147,-2.4459,-2.4764,-2.4934,-2.4978,-2.459,-2.403,-2.3431,-2.27,-2.1852,-2.1481,-2.9624,-2.9322,-2.8408,-2.7869,-2.7615,-2.7585,-2.7585,-2.7585,-2.7585,-2.7306,-2.6852,-2.6747,-2.6322,-2.5591,-2.4894,-2.4436,-2.4089,-2.3327,-2.2895,-2.238,-2.1832,-2.1209,-2.086,-2.1224,-2.1779,-2.262,-2.344,-2.4327,-2.5131,-2.5854,-2.6556,-2.7208,-2.7545,-2.7978,-2.8355,-2.8658,-2.8893,-2.8994,-2.8987,-2.8987,-2.8987,-2.8975,-2.8486,-2.7357,-2.597,-2.4778,-2.3944,-2.3115,-2.2577,-2.226,-2.1906,-2.1531,-2.1055,-2.0649,-2.0366,-2.0316,-2.0452,-2.1115,-2.204,-2.2656,-2.3358,-2.3886,-2.3751,-2.3905,-2.4059,-2.3555,-2.3375,-2.3644,-2.4096,-2.4733,-2.5693,-2.6333,-2.6218,-2.5742,-2.5489,-2.5353,-2.5236,-2.5322,-2.5357,-2.5143,-2.5168,-2.518,-2.4899,-2.5071,-2.5041,-2.5233,-2.5286,-2.5274,-2.5172,-2.5042,-2.5001,-2.4977,-2.5091,-2.5247,-2.5252,-2.4941,-2.441,-2.3887,-2.3204,-2.273,-2.2938,-2.3223,-2.3447,-2.3765,-2.4158,-2.4425,-2.4652,-2.4795,-2.4845,-2.4241,-2.3717,-2.3257,-2.2763,-2.2151,-2.166,-2.9475,-2.8648,-2.8229,-2.7884,-2.7615,-2.7585,-2.7585,-2.7585,-2.7585,-2.7178,-2.6616,-2.6496,-2.5892,-2.4838,-2.4053,-2.3526,-2.3015,-2.2304,-2.1611,-2.1218,-2.1083,-2.0978,-2.0705,-2.0932,-2.1592,-2.2311,-2.3135,-2.3998,-2.48,-2.5582,-2.6334,-2.6901,-2.7374,-2.7876,-2.8324,-2.8602,-2.8785,-2.8964,-2.8987,-2.8987,-2.8987,-2.8987,-2.87,-2.7852,-2.6604,-2.5661,-2.4743,-2.4344,-2.3715,-2.3122,-2.2543,-2.1859,-2.1022,-2.035,-1.9904,-1.9671,-1.9609,-2.0056,-2.0969,-2.1633,-2.2393,-2.3618,-2.3253,-2.3016,-2.2972,-2.2706,-2.2777,-2.317,-2.3746,-2.4527,-2.5988,-2.6068,-2.5894,-2.542,-2.4871,-2.4288,-2.3788,-2.4079,-2.4479,-2.4164,-2.4201,-2.4281,-2.4311,-2.45,-2.4901,-2.5104,-2.5279,-2.5259,-2.5054,-2.4927,-2.4828,-2.4828,-2.4881,-2.5007,-2.5114,-2.4837,-2.4259,-2.3702,-2.3082,-2.2682,-2.2592,-2.293,-2.3276,-2.3609,-2.3933,-2.4236,-2.4456,-2.4591,-2.4764,-2.4591,-2.4142,-2.3438,-2.291,-2.2656,-2.2122,-2.9385,-2.7929,-2.8293,-2.8098,-2.7645,-2.7585,-2.7585,-2.7585,-2.7585,-2.71,-2.6416,-2.6351,-2.5356,-2.4008,-2.3187,-2.2445,-2.1698,-2.1152,-2.0597,-2.0333,-2.0737,-2.0569,-2.0428,-2.0884,-2.1423,-2.1751,-2.2738,-2.3619,-2.4369,-2.5224,-2.5859,-2.6404,-2.6917,-2.748,-2.8053,-2.8329,-2.8502,-2.8785,-2.8821,-2.8929,-2.8975,-2.8987,-2.8773,-2.8433,-2.7795,-2.6969,-2.5961,-2.5419,-2.4989,-2.4126,-2.344,-2.2453,-2.1319,-2.0196,-1.9409,-1.8993,-1.8873,-1.9246,-2.0011,-2.0543,-2.1401,-2.3001,-2.2141,-2.1696,-2.1825,-2.1732,-2.186,-2.2453,-2.3162,-2.4253,-2.5997,-2.5779,-2.5341,-2.4874,-2.3979,-2.2998,-2.2483,-2.2932,-2.3252,-2.3528,-2.3319,-2.3289,-2.3679,-2.4017,-2.4515,-2.4964,-2.5139,-2.5221,-2.5023,-2.4845,-2.4774,-2.4745,-2.4834,-2.4949,-2.5057,-2.4842,-2.426,-2.3694,-2.3076,-2.2704,-2.2422,-2.2594,-2.2932,-2.332,-2.3652,-2.3964,-2.4274,-2.4506,-2.4679,-2.4841,-2.4545,-2.3769,-2.3419,-2.3237,-2.2532,-2.9577,-2.916,-2.8184,-2.769,-2.7615,-2.7585,-2.7585,-2.7585,-2.7585,-2.6811,-2.5701,-2.5577,-2.4427,-2.2804,-2.2237,-2.1604,-2.0814,-2.0354,-2.031,-2.0188,-2.0473,-2.0288,-2.0072,-2.0687,-2.1166,-2.1511,-2.2307,-2.3087,-2.3719,-2.4343,-2.5253,-2.5982,-2.6472,-2.6963,-2.7495,-2.7808,-2.8143,-2.8476,-2.8552,-2.87,-2.8893,-2.8964,-2.8998,-2.882,-2.8305,-2.7627,-2.6959,-2.6038,-2.531,-2.4829,-2.3737,-2.2826,-2.1887,-2.0687,-1.9624,-1.8898,-1.8366,-1.8508,-1.9406,-1.9894,-2.0655,-2.1376,-2.1159,-2.1144,-2.1363,-2.1104,-2.0911,-2.1599,-2.2539,-2.3791,-2.5497,-2.4896,-2.4661,-2.4232,-2.3463,-2.2416,-2.1644,-2.1546,-2.1919,-2.2288,-2.2306,-2.2483,-2.2982,-2.3544,-2.4118,-2.4623,-2.4985,-2.5136,-2.5104,-2.4941,-2.4799,-2.4799,-2.4799,-2.493,-2.5065,-2.4766,-2.4333,-2.3803,-2.3231,-2.2733,-2.2494,-2.2363,-2.2571,-2.2935,-2.3338,-2.3726,-2.4035,-2.4349,-2.4433,-2.4501,-2.4278,-2.4067,-2.3841,-2.3531,-2.2667,-2.9397,-2.8966,-2.8004,-2.7809,-2.8034,-2.7735,-2.7585,-2.7585,-2.756,-2.6785,-2.5755,-2.5315,-2.4368,-2.2695,-2.1491,-2.0526,-1.9562,-1.9276,-1.9266,-1.9299,-1.9661,-1.9825,-1.9586,-2.0378,-2.0827,-2.1267,-2.1926,-2.2729,-2.3475,-2.4094,-2.4792,-2.5481,-2.602,-2.659,-2.7177,-2.75,-2.7794,-2.8088,-2.8303,-2.8471,-2.8725,-2.8863,-2.9044,-2.9041,-2.8833,-2.8355,-2.7757,-2.7591,-2.6783,-2.5957,-2.5012,-2.4088,-2.2938,-2.1415,-1.9823,-1.8703,-1.7794,-1.7767,-1.8627,-1.8994,-1.9557,-2.0588,-2.0241,-2.0022,-2.0134,-1.9763,-1.9449,-1.991,-2.1139,-2.2219,-2.3169,-2.3222,-2.3338,-2.3339,-2.2673,-2.1854,-2.1183,-2.0829,-2.0927,-2.121,-2.1394,-2.1761,-2.2396,-2.3017,-2.3683,-2.4247,-2.4741,-2.4973,-2.5118,-2.5033,-2.4873,-2.4783,-2.4818,-2.5022,-2.5092,-2.4856,-2.4517,-2.3993,-2.3402,-2.2926,-2.2554,-2.2426,-2.2368,-2.2502,-2.2949,-2.3432,-2.3787,-2.4091,-2.4114,-2.4207,-2.4302,-2.4308,-2.4161,-2.3728,-2.2918,-2.9385,-2.8757,-2.8229,-2.8319,-2.8622,-2.8094,-2.7809,-2.7779,-2.7645,-2.6864,-2.5701,-2.5398,-2.4526,-2.2912,-2.1184,-1.9529,-1.8076,-1.8066,-1.8134,-1.8303,-1.8721,-1.9044,-1.9276,-1.9879,-2.0502,-2.0986,-2.1665,-2.2525,-2.34,-2.39,-2.4505,-2.5203,-2.5705,-2.6194,-2.6839,-2.7099,-2.7394,-2.7751,-2.8016,-2.8206,-2.8458,-2.8785,-2.9123,-2.9372,-2.9384,-2.905,-2.8585,-2.8467,-2.8003,-2.7059,-2.6126,-2.5221,-2.4042,-2.2092,-2.0182,-1.8618,-1.7349,-1.7392,-1.8038,-1.8432,-1.9257,-2.0671,-1.9715,-1.9399,-1.9034,-1.8635,-1.7673,-1.7818,-1.8499,-1.9893,-2.0681,-2.106,-2.1611,-2.2134,-2.1807,-2.1165,-2.073,-2.0381,-2.0108,-2.0333,-2.0549,-2.0959,-2.1538,-2.2384,-2.3064,-2.3754,-2.4276,-2.4919,-2.5048,-2.5078,-2.4964,-2.4816,-2.4841,-2.508,-2.5145,-2.5054,-2.4731,-2.4319,-2.3685,-2.3112,-2.2759,-2.2477,-2.2433,-2.2378,-2.2695,-2.3183,-2.3519,-2.3825,-2.4035,-2.4244,-2.4487,-2.4643,-2.4645,-2.417,-2.3384,-3.0028,-2.946,-2.9382,-2.9427,-2.9355,-2.8757,-2.8472,-2.8397,-2.7899,-2.7152,-2.6315,-2.5577,-2.45,-2.2729,-2.0557,-1.9044,-1.8303,-1.8008,-1.8008,-1.8076,-1.8202,-1.8303,-1.8337,-1.9044,-1.9976,-2.0642,-2.1471,-2.2512,-2.3504,-2.3806,-2.4341,-2.522,-2.5429,-2.5631,-2.6325,-2.6539,-2.6971,-2.7286,-2.7407,-2.7759,-2.8355,-2.8773,-2.9082,-2.9332,-2.9405,-2.9429,-2.9288,-2.9109,-2.8546,-2.7949,-2.6579,-2.5361,-2.4074,-2.2106,-2.072,-1.9486,-1.8455,-1.7791,-1.8727,-1.8892,-1.9526,-2.067,-2.0367,-1.9861,-1.898,-1.7541,-1.6369,-1.6227,-1.6269,-1.6913,-1.8214,-1.8741,-1.9666,-2.0466,-2.0802,-2.0362,-2.0017,-2.0122,-1.9841,-1.9719,-2.0019,-2.021,-2.057,-2.1532,-2.244,-2.3146,-2.3847,-2.4512,-2.4984,-2.5021,-2.5116,-2.5009,-2.4909,-2.5131,-2.5215,-2.5135,-2.4899,-2.4555,-2.3923,-2.3298,-2.2942,-2.2607,-2.2377,-2.2415,-2.2699,-2.2665,-2.2667,-2.3067,-2.3776,-2.4233,-2.4429,-2.4851,-2.5279,-2.4627,-2.3924,-2.9377,-2.8958,-2.9387,-2.9816,-2.9998,-2.9415,-2.9187,-2.9011,-2.8457,-2.7738,-2.6915,-2.5854,-2.4299,-2.2402,-2.0643,-1.9584,-1.8787,-1.8236,-1.8008,-1.8008,-1.8008,-1.8008,-1.811,-1.8462,-1.9177,-2.0462,-2.1192,-2.2653,-2.366,-2.4299,-2.466,-2.572,-2.5561,-2.564,-2.5934,-2.5924,-2.6156,-2.6556,-2.7033,-2.7657,-2.8246,-2.8597,-2.8952,-2.9523,-2.9551,-2.9678,-2.9719,-2.9541,-2.905,-2.8446,-2.7208,-2.6135,-2.4862,-2.3115,-2.1423,-2.0414,-1.8823,-1.8477,-1.9316,-1.9239,-1.9996,-2.0729,-2.067,-1.9963,-1.8609,-1.6556,-1.4861,-1.4373,-1.3971,-1.4499,-1.5735,-1.6496,-1.7807,-1.8815,-1.9747,-1.9955,-1.9749,-1.9729,-1.9693,-1.9584,-1.9515,-1.9752,-2.0126,-2.1052,-2.202,-2.28,-2.3593,-2.4368,-2.4822,-2.5048,-2.5146,-2.5241,-2.5168,-2.5161,-2.5229,-2.5205,-2.4997,-2.463,-2.4008,-2.3438,-2.3059,-2.276,-2.2457,-2.2378,-2.2573,-2.241,-2.2008,-2.2717,-2.3796,-2.4144,-2.4359,-2.4854,-2.5349,-2.5419,-2.4766,-2.8552,-2.8426,-2.9383,-3.016,-3.0687,-3.0073,-2.9741,-2.9532,-2.8876,-2.8272,-2.7536,-2.6273,-2.4385,-2.2317,-2.1078,-2.0009,-1.9199,-1.8405,-1.8076,-1.8008,-1.8008,-1.8008,-1.8042,-1.8168,-1.8977,-2.0602,-2.0655,-2.2256,-2.407,-2.494,-2.5268,-2.6375,-2.5682,-2.5649,-2.5724,-2.5621,-2.5598,-2.6123,-2.6921,-2.7601,-2.817,-2.835,-2.8931,-2.9419,-2.9712,-2.9813,-3.0018,-2.9796,-2.9372,-2.8761,-2.7677,-2.6568,-2.5522,-2.382,-2.2238,-2.107,-1.9561,-1.9189,-1.9617,-1.9719,-2.0108,-2.094,-2.1056,-2.0495,-1.824,-1.5705,-1.371,-1.3274,-1.2564,-1.2739,-1.3456,-1.4851,-1.6358,-1.773,-1.8839,-1.9255,-1.9678,-1.9764,-1.9624,-1.9369,-1.9336,-1.9479,-1.9969,-2.075,-2.1599,-2.2435,-2.3295,-2.4177,-2.4663,-2.5033,-2.5172,-2.5293,-2.5182,-2.5139,-2.5205,-2.5192,-2.4993,-2.4723,-2.4087,-2.3621,-2.3251,-2.2789,-2.2377,-2.2409,-2.2462,-2.2445,-2.2235,-2.3059,-2.3812,-2.3888,-2.41,-2.4836,-2.5315,-2.5485,-2.5505,-2.7966,-2.8335,-2.9686,-3.0675,-3.1346,-3.0703,-3.0118,-2.9714,-2.8981,-2.8618,-2.8228,-2.6903,-2.5012,-2.3078,-2.1467,-2.0268,-1.9332,-1.8395,-1.8134,-1.8042,-1.8008,-1.8008,-1.8008,-1.8236,-1.8888,-2.0365,-2.0655,-2.2034,-2.3949,-2.494,-2.5607,-2.6365,-2.5842,-2.5549,-2.5425,-2.5389,-2.5406,-2.598,-2.6774,-2.7472,-2.7922,-2.8272,-2.8787,-2.9467,-2.9722,-2.9907,-3.0292,-2.9896,-2.9504,-2.9029,-2.7893,-2.6891,-2.5907,-2.4309,-2.2885,-2.1643,-2.0227,-1.9903,-2.0183,-2.0083,-2.1044,-2.2557,-2.2651,-2.0926,-1.8922,-1.6726,-1.4745,-1.3062,-1.2424,-1.2224,-1.3001,-1.4028,-1.5687,-1.7148,-1.8464,-1.9251,-1.9678,-1.9927,-1.9734,-1.9247,-1.9321,-1.9719,-2.0076,-2.0927,-2.1271,-2.2057,-2.3207,-2.4097,-2.4711,-2.507,-2.5185,-2.524,-2.5127,-2.5094,-2.5166,-2.5109,-2.5003,-2.4757,-2.4282,-2.3836,-2.3464,-2.2957,-2.2281,-2.2183,-2.2202,-2.2358,-2.2574,-2.3112,-2.3485,-2.3501,-2.3896,-2.4757,-2.5289,-2.5485,-2.5562,-2.7458,-2.8296,-2.9159,-3.0254,-3.1481,-3.1212,-3.1001,-3.0687,-3.0058,-2.9218,-2.8422,-2.7004,-2.5654,-2.4082,-2.2278,-2.091,-2.0042,-1.9199,-1.8553,-1.8134,-1.8008,-1.8008,-1.8008,-1.8269,-1.8888,-2.0236,-2.0719,-2.1892,-2.4134,-2.4639,-2.5149,-2.56,-2.5883,-2.5854,-2.564,-2.531,-2.5368,-2.5672,-2.6454,-2.7225,-2.7808,-2.8034,-2.853,-2.9416,-2.9513,-2.9662,-2.9856,-2.9671,-2.9447,-2.9026,-2.812,-2.7295,-2.6371,-2.4824,-2.3449,-2.2173,-2.0648,-2.0183,-2.0647,-2.0408,-2.1195,-2.2321,-2.1917,-2.0559,-1.9522,-1.7333,-1.5579,-1.4111,-1.2987,-1.2813,-1.3369,-1.4462,-1.5742,-1.7092,-1.8252,-1.9181,-1.9788,-2.0122,-2.0174,-1.9831,-2.0093,-2.0483,-2.0814,-2.1179,-2.1377,-2.1701,-2.29,-2.397,-2.4568,-2.5041,-2.5154,-2.5192,-2.5095,-2.5045,-2.5097,-2.5066,-2.5016,-2.4745,-2.443,-2.4054,-2.3599,-2.2712,-2.2154,-2.2036,-2.1947,-2.2053,-2.2364,-2.2905,-2.3268,-2.352,-2.4095,-2.4845,-2.5229,-2.5444,-2.5488,-2.7322,-2.7972,-2.853,-2.9733,-3.1154,-3.1421,-3.1271,-3.0898,-3.0597,-2.972,-2.8401,-2.7187,-2.6137,-2.4794,-2.2579,-2.1239,-2.0301,-1.9365,-1.8586,-1.8202,-1.8008,-1.8008,-1.8008,-1.8202,-1.8721,-2.002,-2.0675,-2.1787,-2.3357,-2.4018,-2.4584,-2.5191,-2.5773,-2.5777,-2.5627,-2.5358,-2.5231,-2.5424,-2.6126,-2.7049,-2.7747,-2.8061,-2.8448,-2.9283,-2.9404,-2.9532,-2.9653,-2.9561,-2.9336,-2.896,-2.8335,-2.759,-2.6602,-2.5428,-2.404,-2.2592,-2.126,-2.0309,-2.0594,-2.1336,-2.169,-2.2427,-2.2236,-2.1205,-1.9976,-1.8271,-1.697,-1.5644,-1.4517,-1.4007,-1.462,-1.5591,-1.6641,-1.8049,-1.8759,-1.9618,-2.0177,-2.0581,-2.0582,-2.0484,-2.0814,-2.1086,-2.1374,-2.1692,-2.2084,-2.2293,-2.2988,-2.3923,-2.4492,-2.4883,-2.5041,-2.5091,-2.5071,-2.504,-2.5035,-2.4975,-2.4927,-2.4859,-2.4534,-2.4194,-2.3648,-2.281,-2.2239,-2.2137,-2.2036,-2.1844,-2.2195,-2.2827,-2.3298,-2.3691,-2.4294,-2.4898,-2.4995,-2.5195,-2.5301,-2.7666,-2.7324,-2.8053,-2.9172,-3.0494,-3.1212,-3.0838,-3.0178,-3.0402,-2.9899,-2.8732,-2.767,-2.6562,-2.4978,-2.2414,-2.0974,-2.0333,-1.9044,-1.8144,-1.8076,-1.8008,-1.8008,-1.8008,-1.8168,-1.8563,-1.9332,-2.0204,-2.1184,-2.2206,-2.3488,-2.4134,-2.4481,-2.5011,-2.5493,-2.5477,-2.5425,-2.53,-2.5355,-2.6142,-2.6932,-2.773,-2.8088,-2.8523,-2.9031,-2.9137,-2.9196,-2.925,-2.9214,-2.8968,-2.8664,-2.8174,-2.7477,-2.667,-2.5775,-2.4618,-2.3434,-2.2258,-2.1348,-2.0851,-2.2128,-2.2346,-2.2276,-2.2131,-2.2192,-2.1109,-1.9856,-1.8675,-1.7343,-1.6509,-1.64,-1.6728,-1.7142,-1.8081,-1.8763,-1.9495,-2.0028,-2.0601,-2.1134,-2.1166,-2.1211,-2.1363,-2.1571,-2.1891,-2.2237,-2.2752,-2.3106,-2.3419,-2.3901,-2.4489,-2.4773,-2.4987,-2.5048,-2.5078,-2.5057,-2.5015,-2.49,-2.4851,-2.4791,-2.4687,-2.4412,-2.3949,-2.3237,-2.2742,-2.2368,-2.2051,-2.1831,-2.2257,-2.2786,-2.3287,-2.3802,-2.4316,-2.4797,-2.4861,-2.4957,-2.5082,-2.7973,-2.7953,-2.8211,-2.8674,-2.9361,-3.0374,-3.0778,-3.0868,-3.0987,-3.0629,-2.959,-2.8153,-2.6895,-2.5284,-2.2994,-2.108,-2.0398,-1.9562,-1.8721,-1.8042,-1.8008,-1.8008,-1.8008,-1.811,-1.8462,-1.9309,-2.0171,-2.1037,-2.197,-2.31,-2.3442,-2.3695,-2.4383,-2.4957,-2.5329,-2.5485,-2.5503,-2.5819,-2.6204,-2.669,-2.7739,-2.7855,-2.8071,-2.873,-2.8578,-2.856,-2.8627,-2.856,-2.8422,-2.8179,-2.7689,-2.7282,-2.6771,-2.6038,-2.5118,-2.4035,-2.2873,-2.1615,-2.0749,-2.0889,-2.1383,-2.1827,-2.227,-2.2368,-2.1423,-2.0824,-1.9913,-1.9223,-1.8511,-1.8422,-1.8549,-1.8962,-1.9615,-1.9823,-2.0339,-2.0701,-2.1181,-2.166,-2.1928,-2.1929,-2.202,-2.2623,-2.3034,-2.3178,-2.3592,-2.3838,-2.4101,-2.4214,-2.4667,-2.4853,-2.5034,-2.5076,-2.5106,-2.5074,-2.5018,-2.4957,-2.4971,-2.4968,-2.4917,-2.4742,-2.4205,-2.3624,-2.2975,-2.2457,-2.2119,-2.1862,-2.2337,-2.2827,-2.338,-2.3918,-2.436,-2.4624,-2.4719,-2.4797,-2.4886,-2.8325,-2.8023,-2.8042,-2.8277,-2.879,-2.9968,-3.0776,-3.1077,-3.0913,-3.0462,-2.9487,-2.7812,-2.6589,-2.5278,-2.3014,-2.127,-2.0462,-1.9332,-1.871,-1.8008,-1.8008,-1.8008,-1.8008,-1.8076,-1.8519,-1.9332,-2.0204,-2.1049,-2.1908,-2.2702,-2.3095,-2.3352,-2.3872,-2.4508,-2.5008,-2.5243,-2.585,-2.6355,-2.6831,-2.723,-2.7872,-2.807,-2.8062,-2.8164,-2.8093,-2.795,-2.7908,-2.7855,-2.7736,-2.7497,-2.7187,-2.6871,-2.6522,-2.602,-2.5211,-2.4271,-2.3183,-2.1973,-2.1079,-2.0661,-2.1227,-2.1519,-2.1856,-2.1976,-2.1779,-2.1353,-2.1022,-2.054,-2.0208,-2.011,-2.0127,-2.0571,-2.0604,-2.0799,-2.1115,-2.1488,-2.1799,-2.2295,-2.2537,-2.2574,-2.2886,-2.3523,-2.4054,-2.4294,-2.4489,-2.4636,-2.4771,-2.481,-2.4815,-2.4934,-2.5076,-2.5134,-2.5145,-2.5124,-2.5116,-2.508,-2.5088,-2.5143,-2.5081,-2.4997,-2.4617,-2.4033,-2.3274,-2.2593,-2.2426,-2.2317,-2.2459,-2.2863,-2.3504,-2.3919,-2.4229,-2.4441,-2.4567,-2.4642,-2.4692,-2.8783,-2.7619,-2.7587,-2.7993,-2.8697,-2.9714,-3.0313,-3.0417,-2.9921,-2.9295,-2.8547,-2.7158,-2.616,-2.4917,-2.2072,-2.0719,-2.0268,-1.8854,-1.8269,-1.8042,-1.8008,-1.8008,-1.8076,-1.8178,-1.8687,-1.9387,-2.0301,-2.1302,-2.197,-2.2732,-2.3078,-2.3215,-2.3738,-2.42,-2.4571,-2.5196,-2.5971,-2.6658,-2.6913,-2.7356,-2.7877,-2.8209,-2.7997,-2.788,-2.7739,-2.7666,-2.7634,-2.7572,-2.7203,-2.6836,-2.6438,-2.5952,-2.5566,-2.524,-2.4855,-2.428,-2.332,-2.247,-2.1863,-2.1575,-2.1313,-2.1509,-2.152,-2.1835,-2.1943,-2.1763,-2.1595,-2.1444,-2.1164,-2.132,-2.1459,-2.1413,-2.1368,-2.1654,-2.1972,-2.2269,-2.2534,-2.284,-2.3045,-2.3275,-2.3645,-2.4145,-2.4523,-2.4834,-2.4934,-2.5038,-2.5085,-2.5094,-2.5091,-2.5065,-2.5183,-2.5227,-2.5237,-2.5195,-2.519,-2.5194,-2.5217,-2.5266,-2.5284,-2.5174,-2.4802,-2.4446,-2.3843,-2.3279,-2.2911,-2.2813,-2.2967,-2.3259,-2.3703,-2.4027,-2.4238,-2.4275,-2.4392,-2.445,-2.4504,-2.88,-2.7613,-2.7584,-2.7705,-2.7929,-2.8289,-2.8936,-2.9744,-2.9624,-2.922,-2.8498,-2.7045,-2.5993,-2.5119,-2.206,-2.0919,-1.9944,-1.9011,-1.8269,-1.8042,-1.811,-1.8042,-1.8236,-1.863,-1.9044,-1.9759,-2.0687,-2.1616,-2.2032,-2.2732,-2.3108,-2.3185,-2.3424,-2.3767,-2.4328,-2.5053,-2.5857,-2.6423,-2.657,-2.7235,-2.7506,-2.7606,-2.7497,-2.7494,-2.7345,-2.7264,-2.7083,-2.6789,-2.642,-2.6179,-2.5752,-2.5357,-2.53,-2.5182,-2.4953,-2.4413,-2.3676,-2.3047,-2.2774,-2.2013,-2.1608,-2.1726,-2.1553,-2.1419,-2.169,-2.1961,-2.2022,-2.193,-2.1871,-2.1899,-2.1913,-2.1901,-2.1886,-2.2058,-2.2361,-2.2643,-2.2915,-2.3147,-2.338,-2.3731,-2.4127,-2.4503,-2.4904,-2.5053,-2.5166,-2.531,-2.5379,-2.5362,-2.5347,-2.5297,-2.5282,-2.5341,-2.5323,-2.5281,-2.5327,-2.5342,-2.5364,-2.5374,-2.5379,-2.5329,-2.5082,-2.4732,-2.4358,-2.3931,-2.3466,-2.3367,-2.3471,-2.3767,-2.3989,-2.4066,-2.4237,-2.4218,-2.4218,-2.431,-2.4347,-2.8738,-2.8019,-2.7705,-2.7585,-2.7585,-2.76,-2.8109,-2.8753,-2.8798,-2.8558,-2.8047,-2.6634,-2.5771,-2.5021,-2.253,-2.0942,-2.043,-1.9299,-1.8428,-1.8076,-1.8337,-1.8529,-1.8821,-1.9375,-2.0009,-2.0623,-2.1239,-2.2044,-2.2353,-2.272,-2.3095,-2.3095,-2.3095,-2.3395,-2.3975,-2.477,-2.5531,-2.6064,-2.6539,-2.7195,-2.7421,-2.7446,-2.7581,-2.7334,-2.7199,-2.6945,-2.6486,-2.6101,-2.5852,-2.5468,-2.4953,-2.4772,-2.4652,-2.4532,-2.4677,-2.4246,-2.409,-2.3807,-2.3615,-2.312,-2.2699,-2.2368,-2.1988,-2.181,-2.1834,-2.2059,-2.218,-2.2225,-2.2254,-2.2282,-2.2299,-2.2313,-2.2299,-2.2296,-2.2611,-2.2903,-2.3147,-2.3398,-2.3715,-2.4063,-2.442,-2.4792,-2.5055,-2.5222,-2.5339,-2.5431,-2.5474,-2.55,-2.549,-2.5445,-2.5418,-2.5445,-2.5401,-2.5371,-2.5402,-2.5437,-2.5418,-2.542,-2.5414,-2.5344,-2.5234,-2.5044,-2.4671,-2.4316,-2.3949,-2.3925,-2.3943,-2.4014,-2.4174,-2.4284,-2.4339,-2.4339,-2.4321,-2.4265,-2.4274,-2.8562,-2.8427,-2.7854,-2.7585,-2.7585,-2.7585,-2.7645,-2.7585,-2.772,-2.7615,-2.7361,-2.6149,-2.5564,-2.498,-2.2977,-2.1436,-2.0579,-1.9529,-1.862,-1.811,-1.8754,-1.9077,-1.9398,-2.0236,-2.0878,-2.1585,-2.2094,-2.2457,-2.2884,-2.3095,-2.3095,-2.3095,-2.3095,-2.3305,-2.3738,-2.4781,-2.5562,-2.6014,-2.7076,-2.8095,-2.8589,-2.8823,-2.8691,-2.804,-2.767,-2.7311,-2.6438,-2.5881,-2.5468,-2.4792,-2.4287,-2.411,-2.3921,-2.3752,-2.397,-2.4184,-2.4199,-2.4371,-2.4292,-2.3948,-2.3711,-2.3362,-2.2981,-2.2671,-2.2586,-2.2515,-2.2627,-2.2519,-2.2492,-2.2437,-2.2398,-2.233,-2.2313,-2.2405,-2.2634,-2.2915,-2.3183,-2.3526,-2.3966,-2.428,-2.4529,-2.4884,-2.5077,-2.5215,-2.5379,-2.5474,-2.5539,-2.5572,-2.5572,-2.5558,-2.5526,-2.5506,-2.5431,-2.5379,-2.5438,-2.5468,-2.5459,-2.5446,-2.5428,-2.5408,-2.5325,-2.5175,-2.5004,-2.4658,-2.4357,-2.4344,-2.4366,-2.4398,-2.4447,-2.4556,-2.4591,-2.4526,-2.4461,-2.4393,-2.4284,-2.8293,-2.7839,-2.766,-2.7585,-2.7585,-2.7585,-2.7585,-2.7585,-2.7585,-2.7585,-2.7408,-2.6654,-2.5919,-2.5217,-2.3618,-2.2084,-2.0803,-2.0042,-1.8888,-1.863,-1.9044,-1.9595,-1.9694,-2.0846,-2.1628,-2.2032,-2.2414,-2.2823,-2.3035,-2.3095,-2.3095,-2.3095,-2.3125,-2.3275,-2.3796,-2.4936,-2.5591,-2.6,-2.7166,-2.8138,-2.8542,-2.8227,-2.7816,-2.8139,-2.8227,-2.754,-2.6677,-2.5802,-2.5217,-2.4491,-2.3991,-2.3767,-2.3638,-2.3595,-2.3659,-2.3837,-2.4184,-2.4532,-2.4693,-2.4585,-2.4364,-2.4305,-2.4,-2.3671,-2.3438,-2.3249,-2.3068,-2.2871,-2.2673,-2.257,-2.2513,-2.2415,-2.2324,-2.2467,-2.2647,-2.292,-2.3195,-2.3681,-2.4165,-2.4445,-2.4652,-2.4846,-2.5063,-2.525,-2.5397,-2.5493,-2.5552,-2.5599,-2.5602,-2.5572,-2.5506,-2.5482,-2.5387,-2.5363,-2.5442,-2.5466,-2.5455,-2.544,-2.5415,-2.5405,-2.5376,-2.5197,-2.4999,-2.4948,-2.4791,-2.4714,-2.4666,-2.4689,-2.474,-2.4847,-2.4799,-2.4708,-2.4712,-2.4651,-2.4461,-2.7959,-2.76,-2.7585,-2.7585,-2.7585,-2.7585,-2.7585,-2.7585,-2.7585,-2.7585,-2.7484,-2.6852,-2.627,-2.5673,-2.4271,-2.2922,-2.1588,-2.0855,-2.0128,-1.9694,-1.9562,-2.0171,-2.0782,-2.1428,-2.2032,-2.2476,-2.2793,-2.3065,-2.3095,-2.3095,-2.3095,-2.3095,-2.3125,-2.3365,-2.3972,-2.4781,-2.5591,-2.6,-2.7086,-2.7823,-2.8381,-2.8311,-2.8563,-2.9078,-2.8766,-2.7935,-2.6665,-2.5696,-2.4886,-2.4282,-2.3752,-2.3659,-2.3595,-2.3595,-2.3595,-2.3767,-2.4095,-2.4532,-2.4744,-2.4871,-2.4834,-2.4805,-2.4946,-2.4596,-2.423,-2.4064,-2.3969,-2.3711,-2.2841,-2.2618,-2.2731,-2.2716,-2.2415,-2.2405,-2.2677,-2.2963,-2.3348,-2.3807,-2.4275,-2.4681,-2.4818,-2.4904,-2.5111,-2.5296,-2.5441,-2.5483,-2.5551,-2.5598,-2.5603,-2.557,-2.5508,-2.5454,-2.539,-2.5395,-2.5474,-2.5478,-2.5461,-2.5416,-2.539,-2.5325,-2.5263,-2.5126,-2.4976,-2.4919,-2.4901,-2.4963,-2.4938,-2.4911,-2.5014,-2.511,-2.5002,-2.4865,-2.4884,-2.4884,-2.4726,-2.7615,-2.7585,-2.7585,-2.7585,-2.7585,-2.7585,-2.7585,-2.7585,-2.7585,-2.7585,-2.7534,-2.6956,-2.6628,-2.6027,-2.5106,-2.4011,-2.2905,-2.1811,-2.1164,-2.0655,-2.0655,-2.0974,-2.1428,-2.2032,-2.2506,-2.2823,-2.3065,-2.3095,-2.3095,-2.3095,-2.3095,-2.3095,-2.3125,-2.3215,-2.3738,-2.4553,-2.5591,-2.6242,-2.7097,-2.787,-2.8456,-2.9019,-2.9415,-2.9566,-2.9349,-2.8218,-2.6932,-2.5759,-2.4898,-2.4213,-2.3799,-2.3616,-2.3595,-2.3595,-2.3595,-2.3724,-2.3921,-2.4246,-2.4541,-2.5045,-2.5104,-2.5219,-2.5481,-2.5447,-2.5042,-2.4825,-2.4713,-2.4396,-2.3521,-2.2828,-2.2953,-2.2714,-2.2396,-2.2194,-2.2514,-2.2908,-2.3348,-2.3808,-2.4284,-2.4723,-2.4891,-2.4942,-2.5127,-2.5309,-2.5434,-2.5494,-2.5527,-2.5575,-2.5591,-2.5537,-2.5474,-2.5451,-2.541,-2.5451,-2.551,-2.5482,-2.5448,-2.5455,-2.5404,-2.5274,-2.5105,-2.4898,-2.4792,-2.4855,-2.4885,-2.4927,-2.5039,-2.506,-2.5199,-2.5305,-2.5192,-2.5053,-2.5053,-2.5047,-2.4966,-2.7585,-2.7585,-2.7585,-2.7585,-2.7585,-2.7585,-2.7585,-2.7585,-2.7585,-2.7585,-2.7534,-2.7458,-2.7126,-2.6457,-2.5632,-2.457,-2.3369,-2.2518,-2.1522,-2.073,-2.127,-2.1659,-2.2044,-2.2476,-2.2896,-2.3047,-2.3095,-2.3095,-2.3095,-2.3095,-2.3095,-2.3095,-2.3095,-2.3636,-2.4866,-2.5508,-2.5864,-2.6575,-2.7148,-2.7845,-2.8286,-2.8803,-2.9329,-2.95,-2.9529,-2.9101,-2.8338,-2.6969,-2.598,-2.5071,-2.4182,-2.3734,-2.3595,-2.3595,-2.3595,-2.3595,-2.3815,-2.3991,-2.4369,-2.4697,-2.4783,-2.543,-2.5688,-2.5965,-2.5599,-2.5277,-2.5318,-2.5581,-2.4663,-2.3341,-2.3054,-2.2356,-2.1958,-2.1753,-2.1859,-2.2413,-2.2933,-2.3453,-2.3999,-2.4415,-2.4749,-2.4871,-2.5033,-2.5235,-2.5418,-2.5462,-2.5492,-2.5543,-2.5552,-2.5503,-2.5454,-2.542,-2.541,-2.5444,-2.5481,-2.5481,-2.5448,-2.5457,-2.539,-2.5202,-2.495,-2.4608,-2.4551,-2.4542,-2.4708,-2.4808,-2.4944,-2.5056,-2.5265,-2.5329,-2.5312,-2.5253,-2.5229,-2.5189,-2.5113]},{"header":{"parameterUnit":"m.s-1","parameterCategory":1,"la1":31.0,"la2":29.5877,"lo1":-88.7671,"lo2":-86.6584,"dy":0.0162,"dx":0.0185,"nx":115,"ny":88,"refTime":"2024-07-26T12:00:00:Z","depth":0,"parameterNumber":3,"parameterNumberName":"V-component_of_WINDS"},"data":[0.0,0.0,0.0,0.0,0.0,0.0,0.0,0.0,0.0,0.0,0.0,0.0,0.0,0.0,0.0,0.0,0.0,0.0,0.0,0.0,0.0,0.0,0.0,0.0,0.0,0.0,0.0,0.0,0.0,0.0,0.0,0.0,0.0,0.0,0.0,0.0,0.0,0.0,0.0,0.0,0.0,0.0,0.0,0.0,0.0,0.0,0.0,0.0,0.0,0.0,0.0,0.0,0.0,0.0,0.0,0.0,0.0,0.0,0.0,0.0,0.0,0.0,0.0,0.0,0.0,0.0,0.0,0.0,0.0,0.0,0.0,0.0,0.0,0.0,0.0,0.0,0.0,0.0,0.0,0.0,0.0,0.0,0.0,0.0,0.0,0.0,0.0,0.0,0.0,0.0,0.0,0.0,0.0,0.0,0.0,0.0,0.0,0.0,0.0,0.0,0.0,0.0,0.0,0.0,0.0,0.0,0.0,0.0,0.0,0.0,0.0,0.0,0.0,0.0,0.0,0.0,0.0,0.0,0.0,0.0,0.0,0.0,0.0,0.0,0.0,0.0,0.0,0.0,0.0,0.0,0.0,0.0,0.0,0.0,0.0,0.0,0.0,0.0,0.0,0.0,0.0,0.0,0.0,0.0,0.0,0.0,0.0,0.0,0.0,0.0,0.0,0.0,0.0,0.0,0.0,0.0,0.0,0.0,0.0,0.0,0.0,0.0,0.0,0.0,0.0,0.0,0.0,0.0,0.0,0.0,0.0,0.0,0.0,0.0,0.0,0.0,0.0,0.0,0.0,0.0,0.0,0.0,0.0,0.0,0.0,0.0,0.0,0.0,0.0,0.0,0.0,0.0,0.0,0.0,0.0,0.0,0.0,0.0,0.0,0.0,0.0,0.0,0.0,0.0,0.0,0.0,0.0,0.0,0.0,0.0,0.0,0.0,0.0,0.0,0.0,0.0,0.0,0.0,0.0,0.0,0.0,0.0,0.0,0.0,0.0,0.0,0.0,0.0,0.0,0.0,0.0,0.0,0.0,0.0,0.0,0.0,0.0,0.0,0.0,0.0,0.0,0.0,0.0,0.0,0.0,0.0,0.0,0.0,0.0,0.0,0.0,0.0,0.0,0.0,0.0,0.0,0.0,0.0,0.0,0.0,0.0,0.0,0.0,0.0,0.0,0.0,0.0,0.0,0.0,0.0,0.0,0.0,0.0,0.0,0.0,0.0,0.0,0.0,0.0,0.0,0.0,0.0,0.0,0.0,0.0,0.0,0.0,0.0,0.0,0.0,0.0,0.0,0.0,0.0,0.0,0.0,0.0,0.0,0.0,0.0,0.0,0.0,0.0,0.0,0.0,0.0,0.0,0.0,0.0,0.0,0.0,0.0,0.0,0.0,0.0,0.0,0.0,0.0,0.0,0.0,0.0,0.0,0.0,0.0,0.0,0.0,0.0,0.0,0.0,0.0,0.0,0.0,0.0,0.0,0.0,0.0,0.0,0.0,0.0,0.0,0.0,0.0,0.0,0.0,0.0,0.0,0.0,0.0,0.0,0.0,0.0,0.0,0.0,0.0,0.0,0.0,0.0,0.0,0.0,0.0,0.0,0.0,0.0,0.0,0.0,0.0,0.0,0.0,0.0,0.0,0.0,0.0,0.0,0.0,0.0,0.0,0.0,0.0,0.0,0.0,0.0,0.0,0.0,0.0,0.0,0.0,0.0,0.0,0.0,0.0,0.0,0.0,0.0,0.0,0.0,0.0,0.0,0.0,0.0,0.0,0.0,0.0,0.0,0.0,0.0,0.0,0.0,0.0,0.0,0.0,0.0,0.0,0.0,0.0,0.0,0.0,0.0,0.0,0.0,0.0,0.0,0.0,0.0,0.0,0.0,0.0,0.0,0.0,0.0,0.0,0.0,0.0,0.0,0.0,0.0,0.0,0.0,0.0,0.0,0.0,0.0,0.0,0.0,0.0,0.0,0.0,0.0,0.0,0.0,0.0,0.0,0.0,0.0,0.0,0.0,0.0,0.0,0.0,0.0,0.0,0.0,0.0,0.0,0.0,0.0,0.0,0.0,0.0,0.0,0.0,0.0,0.0,0.0,0.0,0.0,0.0,0.0,0.0,0.0,0.0,0.0,0.0,0.0,0.0,0.0,0.0,0.0,0.0,0.0,0.0,0.0,0.0,0.0,0.0,0.0,0.0,0.0,0.0,0.0,0.0,0.0,0.0,0.0,0.0,0.0,0.0,0.0,0.0,0.0,0.0,0.0,0.0,0.0,0.0,0.0,0.0,0.0,0.0,0.0,0.0,0.0,0.0,0.0,0.0,0.0,0.0,0.0,0.0,0.0,0.0,0.0,0.0,0.0,0.0,0.0,0.0,0.0,0.0,0.0,0.0,0.0,0.0,0.0,0.0,0.0,0.0,0.0,0.0,0.0,0.0,0.0,0.0,0.0,0.0,0.0,0.0,0.0,0.0,0.0,0.0,0.0,0.0,0.0,0.0,0.0,0.0,0.0,0.0,0.0,0.0,0.0,0.0,0.0,0.0,0.0,0.0,0.0,0.0,0.0,0.0,0.0,0.0,0.0,0.0,0.0,0.0,0.0,0.0,0.0,0.0,0.0,0.0,0.0,0.0,0.0,0.0,0.0,0.0,0.0,0.0,0.0,0.0,0.0,0.0,0.0,0.0,0.0,0.0,0.0,0.0,0.0,0.0,0.0,0.0,0.0,0.0,0.0,0.0,0.0,0.0,0.0,0.0,0.0,0.0,0.0,0.0,0.0,0.0,0.0,0.0,0.0,0.0,0.0,0.0,0.0,0.0,0.0,0.0,0.0,0.0,0.0,0.0,0.0,0.0,0.0,0.0,0.0,0.0,0.0,0.0,0.0,0.0,0.0,0.0,0.0,0.0,0.0,0.0,0.0,0.0,0.0,0.0,0.0,0.0,0.0,0.0,0.0,0.0,0.0,0.0,0.0,0.0,0.0,0.0,0.0,0.0,0.0,0.0,0.0,0.0,0.0,0.0,0.0,0.0,0.0,0.0,0.0,0.0,0.0,0.0,0.0,0.0,0.0,0.0,0.0,0.0,0.0,0.0,0.0,0.0,0.0,0.0,0.0,0.0,0.0,0.0,0.0,0.0,0.0,0.0,0.0,0.0,0.0,0.0,0.0,0.0,0.0,0.0,0.0,0.0,0.0,0.0,0.0,0.0,0.0,0.0,0.0,0.0,0.0,0.0,0.0,0.0,0.0,0.0,0.0,0.0,0.0,0.0,0.0,0.0,0.0,0.0,0.0,0.0,0.0,0.0,0.0,0.0,0.0,0.0,0.0,0.0,0.0,0.0,0.0,0.0,0.0,0.0,0.0,0.0,0.0,0.0,0.0,0.0,0.0,0.0,0.0,0.0,0.0,0.0,0.0,0.0,0.0,0.0,0.0,0.0,0.0,0.0,0.0,0.0,0.0,0.0,0.0,0.0,0.0,0.0,0.0,0.0,0.0,0.0,0.0,0.0,0.0,0.0,0.0,0.0,0.0,0.0,0.0,0.0,0.0,0.0,0.0,0.0,0.0,0.0,0.0,0.0,0.0,0.0,0.0,0.0,0.0,0.0,0.0,0.0,0.0,0.0,0.0,0.0,0.0,0.0,0.0,0.0,0.0,0.0,0.0,0.0,0.0,0.0,0.0,0.0,0.0,0.0,0.0,0.0,0.0,0.0,0.0,0.0,0.0,0.0,0.0,0.0,0.0,0.0,0.0,0.0,0.0,0.0,0.0,0.0,0.0,0.0,0.0,0.0,0.0,0.0,0.0,0.0,0.0,0.0,0.0,0.0,0.0,0.0,0.0,0.0,0.0,0.0,0.0,0.0,0.0,0.0,0.0,0.0,0.0,0.0,0.0,0.0,0.0,0.0,0.0,0.0,0.0,0.0,0.0,0.0,0.0,0.0,0.0,0.0,0.0,0.0,0.0,0.0,0.0,0.0,0.0,0.0,0.0,0.0,0.0,0.0,0.0,0.0,0.0,0.0,0.0,0.0,0.0,0.0,0.0,0.0,0.0,0.0,0.0,0.0,0.0,0.0,0.0,0.0,0.0,0.0,0.0,0.0,0.0,0.0,0.0,0.0,0.0,0.0,0.0,0.0,0.0,0.0,0.0,0.0,0.0,0.0,0.0,0.0,0.0,0.0,0.0,0.0,0.0,0.0,0.0,0.0,0.0,0.0,0.0,0.0,0.0,0.0,0.0,0.0,0.0,0.0,0.0,0.0,0.0,0.0,0.0,0.0,0.1785,0.0,0.0,0.0,0.0,0.0,0.0,0.0,0.0,0.0,0.0,0.0,0.0,0.0,0.0,0.0,0.0,0.0,0.0,0.0,0.0,0.0,0.0,0.0,0.0,0.0,0.0,0.0,0.0,0.0,0.0,0.0,0.0,0.0,0.0,0.0,0.0,0.0,0.0,0.0,0.0,0.0,0.0,0.0,0.0,0.0,0.0,0.0,0.0,0.0,0.0,0.0,0.0,0.0,0.0,0.0,0.0,0.0,0.0,0.0,0.0,0.0,0.0,0.0,0.0,0.0,0.0,0.0,0.0,0.0,0.0,0.0,0.0,0.0,0.0,0.0,0.0,0.0,0.0,0.0,0.0,0.0,0.0,0.0,0.0,0.0,0.0,0.0,0.0,0.0,0.0,0.0,0.0,0.0,0.0,0.0,0.0,0.0,0.0,0.0,0.0,0.0,0.0,0.0,0.0,0.0,0.0,0.0,0.0,0.0,0.0,0.5481,0.5115,0.3795,0.268,0.1826,0.0,0.0,0.0,0.0,0.0,0.0,0.0,0.0,0.0,0.0,0.0,0.0,0.0,0.0,0.0,0.0,0.0,0.0,0.0,0.0,0.0,0.0,0.0,0.0,0.0,0.0,0.0,0.0,0.0,0.0,0.0,0.0,0.0,0.0,0.0,0.0,0.0,0.0,0.0,0.0,0.0,0.0,0.0,0.0,0.0,0.0,0.0,0.0,0.0,0.0,0.0,0.0,0.0,0.0,0.0,0.0,0.0,0.0,0.0,0.0,0.0,0.0,0.0,0.0,0.0,0.0,0.0,0.0,0.0,0.0,0.0,0.0,0.0,0.0,0.0,0.0,0.0,0.0,0.0,0.0,0.0,0.0,0.0,0.0,0.0,0.0,0.0,0.0,0.0,0.0,0.0,0.0,0.0,0.0,0.0,0.0,0.0,0.0,0.0,0.0,0.0,0.0,0.0,0.0,0.0,0.0,0.0,0.0,0.0,0.0,0.0,0.0,0.4018,0.2861,0.1298,0.0,0.0,0.0,0.0,0.0,0.0,0.0,0.0,0.0,0.0,0.0,0.0,0.0,0.0,0.0,0.0,0.0,0.0,0.0,0.0,0.0,0.0,0.0,0.0,0.0,0.0,0.0,0.0,0.0,0.0,0.0,0.0,0.0,0.0,0.0,0.0,0.0,0.0,0.0,0.0,0.0,0.0,0.0,0.0,0.0,0.0,0.0,0.0,0.0,0.0,0.0,0.0,0.0,0.0,0.0,0.0,0.0,0.0,0.0,0.0,0.0,0.0,0.0,0.0,0.0,0.0,0.0,0.0,0.0,0.0,0.0,0.0,0.0,0.0,0.0,0.0,0.0,0.0,0.0,0.0,0.0,0.0,0.0,0.0,0.0,0.0,0.0,0.0,0.0,0.0,0.0,0.0,0.0,0.0,0.0,0.0,0.0,0.0,0.0,0.0,0.0,0.0,0.0,0.0,0.0,0.0,0.0,0.0,0.0,0.0,0.4709,0.4094,0.2974,0.0,-0.0295,0.0,0.0,0.0,0.0,0.0,0.0,0.0,0.0,0.0,0.0,0.0,0.0,0.0,0.0,0.0,0.0,0.0,0.0,0.0,0.0,0.0,0.0,0.0,0.0,0.0,0.0,0.0,0.0,0.0,0.0,0.0,0.0,0.0,0.0,0.0,0.0,0.0,0.0,0.0,0.0,0.0,0.0,0.0,0.0,0.0,0.0,0.0,0.0,0.0,0.0,0.0,0.0,0.0,0.0,0.0,0.0,0.0,0.0,0.0,0.0,0.0,0.0,0.0,0.0,0.0,0.0,0.0,0.0,0.0,0.0,0.0,0.0,0.0,0.0,0.0,0.0,0.0,0.0,0.0,0.0,0.0,0.0,0.0,0.0,0.0,0.0,0.0,0.0,0.0,0.0,0.0,0.0,0.0,0.0,0.0,0.0,0.0,0.0,0.0,0.0,0.0,0.0,0.0,0.0,0.0,0.0,0.0,0.0,0.0,0.0,0.3956,0.3365,0.21,0.117,0.0,0.0,0.0,0.0,0.0,0.0,0.0,0.0,0.0,0.0,0.0,0.0,0.0,0.0,0.0,0.0,0.0,0.0,0.0,0.0,0.0,0.0,0.0,0.0,0.0,0.0,0.0,0.0,0.0,0.0,0.0,0.0,0.0,0.0,0.0,0.0,0.0,0.0,0.0,0.0,0.0,0.0,0.0,0.0,0.0,0.0,0.0,0.0,0.0,0.0,0.0,0.0,0.0,0.0,0.0,0.0,0.0,0.0,0.0,0.0,0.0,0.0,0.0,0.0,0.0,0.0,0.0,0.0,0.0,0.0,0.0,0.0,0.0,0.0,0.0,0.0,0.0,0.0,0.0,0.0,0.0,0.0,0.0,0.0,0.0,0.0,0.0,0.0,0.0,0.0,0.0,0.0,0.0,0.0,0.0,0.0,0.0,0.0,0.0,0.0,0.0,0.0,0.0,0.0,0.0,0.0,0.0,0.0,0.0,0.0,0.4258,0.0,0.241,0.1422,0.1046,0.1345,0.0,0.0,0.0,0.0,0.0,0.0,0.0,0.0,0.0,0.0,0.0,0.0,0.0,0.0,0.0,0.0,0.0,0.0,0.0,0.0,0.0,0.0,0.0,0.0,0.0,0.0,0.0,0.0,0.0,0.0,0.0,0.0,0.0,0.0,0.0,0.0,0.0,0.0,0.0,0.0,0.0,0.0,0.0,0.0,0.0,0.0,0.0,0.0,0.0,0.0,0.0,0.0,0.0,0.0,0.0,0.0,0.0,0.0,0.0,0.0,0.0,0.0,0.0,0.0,0.0,0.0,0.0,0.0,0.0,0.0,0.0,0.0,0.0,0.0,0.0,0.0,0.0,0.0,0.0,0.0,0.0,0.0,0.0,0.0,0.0,0.0,0.0,0.0,0.0,0.0,0.0,0.0,0.0,0.0,0.0,0.0,0.0,0.0,0.0,0.0,0.0,0.0,0.0,0.0,0.0,0.0,0.0,0.0,0.0,0.3921,0.2376,0.1215,0.0995,0.0854,0.0,0.0,0.0,0.0,0.0,0.0,0.0,0.0,0.0,0.0,0.0,0.0,0.0,0.0,0.0,0.0,0.0,0.0,0.0,0.0,0.0,0.0,0.0,0.0,0.0,0.0,0.0,0.0,0.0,0.0,0.0,0.0,0.0,0.0,0.0,0.0,0.0,0.0,0.0,0.0,0.0,0.0,0.0,0.0,0.0,0.0,0.0,0.0,0.0,0.0,0.0,0.0,0.0,0.0,0.0,0.0,0.0,0.0,0.0,0.0,0.0,0.0,0.0,0.0,0.0,0.0,0.0,0.0,0.0,0.0,0.0,0.0,0.0,0.0,0.0,0.0,0.0,0.0,0.0,0.0,0.0,0.0,0.0,0.0,0.0,0.0,0.0,0.0,0.0,0.0,0.0,0.0,0.0,0.0,0.0,0.0,0.0,0.0,0.0,0.0,0.0,0.0,0.0,0.0,0.0,0.0,0.0,0.0,0.0,0.5495,0.3463,0.1695,0.0438,0.0348,0.0574,0.0,0.0,0.0,0.0,0.0,0.0,0.0,0.0,0.0,0.0,0.0,0.0,0.0,0.0,0.0,0.0,0.0,0.0,0.0,0.0,0.0,0.0,0.0,0.0,0.0,0.0,0.0,0.0,0.0,0.0,0.0,0.0,0.0,0.0,0.0,0.0,0.0,0.0,0.0,0.0,0.0,0.0,0.0,0.0,0.0,0.0,0.0,0.0,0.0,0.0,0.0,0.0,0.0,0.0,0.0,0.0,0.0,0.0,0.0,0.0,0.0,0.0,0.0,0.0,0.0,0.0,0.0,0.0,0.0,0.0,0.0,0.0,0.0,0.0,0.0,0.0,0.0,0.0,0.0,0.0,0.0,0.0,0.0,0.0,0.0,0.0,0.0,0.0,0.0,0.0,0.0,0.0,0.0,0.0,0.0,0.0,0.0,0.0,0.0,0.0,0.0,0.0,0.0,0.0,0.0,0.0,0.0,0.0,0.0,0.4293,0.0,0.0805,0.0,-0.0348,0.0069,0.0,0.0,0.0,0.0,0.0,0.0,0.0,0.0,0.0,0.0,0.0,0.0,0.0,0.0,0.0,0.0,0.0,0.0,0.0,0.0,0.0,0.0,0.0,0.0,0.0,0.0,0.0,0.0,0.0,0.0,0.0,0.0,0.0,0.0,0.0,0.0,0.0,0.0,0.0,0.0,0.0,0.0,0.0,0.0,0.0,0.0,0.0,0.0,0.0,0.0,0.0,0.0,0.0,0.0,0.0,0.0,0.0,0.0,0.0,0.0,0.0,0.0,0.0,0.0,0.0,0.0,0.0,0.0,0.0,0.0,0.0,0.0,0.0,0.0,0.0,0.0,0.0,0.0,0.0,0.0,0.0,0.0,0.0,0.0,0.0,0.0,0.0,0.0,0.0,0.0,0.0,0.0,0.0,0.0,0.0,0.0,0.0,0.0,0.0,0.0,0.0,0.0,0.0,0.0,0.0,0.0,0.0,0.0,0.4718,0.1954,0.0728,-0.0186,-0.1062,-0.1025,-0.0619,0.0,0.0,0.0,0.0,0.0,0.0,0.0,0.0,0.0,0.0,0.0,0.0,0.0,0.0,0.0,0.0,0.0,0.0,0.0,0.0,0.0,0.0,0.0,0.0,0.0,0.0,0.0,0.0,0.0,0.0,0.0,0.0,0.0,0.0,0.0,0.0,0.0,0.0,0.0,0.0,0.0,0.0,0.0,0.0,0.0,0.0,0.0,0.0,0.0,0.0,0.0,0.0,0.0,0.0,0.0,0.0,0.0,0.0,0.0,0.0,0.0,0.0,0.0,0.0,0.0,0.0,0.0,0.0,0.0,0.0,0.0,0.0,0.0,0.0,0.0,0.0,0.0,0.0,0.0,0.0,0.0,0.0,0.0,0.0,0.0,0.0,0.0,0.0,0.0,0.0,0.0,0.0,0.0,0.0,0.0,0.0,0.0,0.0,0.0,0.0,0.0,0.0,0.0,0.0,0.0,0.0,0.0,0.0,0.0,0.2009,0.1644,0.0906,-0.0275,-0.0331,0.0119,0.0,0.0,0.0,0.0,0.0,0.0,0.0,0.0,0.0,0.0,0.0,0.0,0.0,0.0,0.0,0.0,0.0,0.0,0.0,0.0,0.0,0.0,0.0,0.0,0.0,0.0,0.0,0.0,0.0,0.0,0.0,0.0,0.0,0.0,0.0,0.0,0.0,0.0,0.0,0.0,0.0,0.0,0.0,0.0,0.0,0.0,0.0,0.0,0.0,0.0,0.0,0.0,0.0,0.0,0.0,0.0,0.0,0.0,0.0,0.0,0.0,0.0,0.0,0.0,0.0,0.0,0.0,0.0,0.0,0.0,0.0,0.0,0.0,0.0,0.0,0.0,0.0,0.0,0.0,0.0,0.0,0.0,0.0,0.0,0.0,0.0,0.0,0.0,0.0,0.0,0.0,0.0,0.0,0.0,0.0,0.0,0.0,0.0,0.0,0.0,0.0,0.0,0.0,0.0,0.0,0.0,0.0,0.0,0.0,0.2516,0.1764,0.0809,-0.0364,-0.0416,0.0073,0.1134,0.0,0.0,0.0,0.0,0.0,0.0,0.0,0.0,0.0,0.0,0.0,0.0,0.0,0.0,0.0,0.0,0.0,0.0,0.0,0.0,0.0,0.0,0.0,0.0,0.0,0.0,0.0,0.0,0.0,0.0,0.0,0.0,0.0,0.0,0.0,0.0,0.0,0.0,0.0,0.0,0.0,0.0,0.0,0.0,0.0,0.0,0.0,0.0,0.0,0.0,0.0,0.0,0.0,0.0,0.0,0.0,0.0,0.0,0.0,0.0,0.0,0.0,0.0,0.0,0.0,0.0,0.0,0.0,0.0,0.0,0.0,0.0,0.0,0.0,0.0,0.0,0.0,0.0,0.0,0.0,0.0,0.0,0.0,0.0,0.0,0.0,0.0,0.0,0.0,0.0,0.0,0.0,0.0,0.0,0.0,0.0,0.0,0.0,0.0,0.0,0.0,0.0,0.0,0.0,0.0,0.0,0.0,0.0,0.3314,0.128,-0.0084,-0.0837,-0.0836,-0.0461,0.0,0.0,0.0,0.0,0.0,0.0,0.0,0.0,0.0,0.0,0.0,0.0,0.0,0.0,0.0,0.0,0.0,0.0,0.0,0.0,0.0,0.0,0.0,0.0,0.0,0.0,0.0,0.0,0.0,0.0,0.0,0.0,0.0,0.0,0.0,0.0,0.0,0.0,0.0,0.0,0.0,0.0,0.0,0.0,0.0,0.0,0.0,0.0,0.0,0.0,0.0,0.0,0.0,0.0,0.0,0.0,0.0,0.0,0.0,0.0,0.0,0.0,0.0,0.0,0.0,0.0,0.0,0.0,0.0,0.0,0.0,0.0,0.0,0.0,0.0,0.0,0.0,0.0,0.0,0.0,0.0,0.0,0.0,0.0,0.0,0.0,0.0,0.0,0.0,0.0,0.0,0.0,0.0,0.0,0.0,0.0,0.0,0.0,0.0,0.0,0.0,0.0,0.0,0.0,0.0,0.0,0.0,0.0,0.0,0.335,0.288,0.2254,0.1366,0.132,0.1632,0.0,0.0,0.0,0.0,0.0,0.0,0.0,0.0,0.0,0.0,0.0,0.0,0.0,0.0,0.0,0.0,0.0,0.0,0.0,0.0,0.0,0.0,0.0,0.0,0.0,0.0,0.0,0.0,0.0,0.0,0.0,0.0,0.0,0.0,0.0,0.0,0.0,0.0,0.0,0.0,0.0,0.0,0.0,0.0,0.0,0.0,0.0,0.0,0.0,0.0,0.0,0.0,0.0,0.0,0.0,0.0,0.0,0.0,0.0,0.0,0.0,0.0,0.0,0.0,0.0,0.0,0.0,0.0,0.0,0.0,0.0,0.0,0.0,0.0,0.0,0.0,0.0,0.0,0.0,0.0,0.0,0.0,0.0,0.0,0.0,0.0,0.0,0.0,0.0,0.0,0.0,0.0,0.0,0.0,0.0,0.0,0.0,0.0,0.0,0.0,0.0,0.0,0.0,0.0,0.0,0.0,0.0,0.0,0.5142,0.3849,0.3978,0.378,0.3206,0.2544,0.2452,0.0,0.0,0.0,0.0,0.0,0.0,0.0,0.0,0.0,0.0,0.0,0.0,0.0,0.0,0.0,0.0,0.0,0.0,0.0,0.0,0.0,0.0,0.0,0.0,0.0,0.0,0.0,0.0,0.0,0.0,0.0,0.0,0.0,0.0,0.0,0.0,0.0,0.0,0.0,0.0,0.0,0.0,0.0,0.0,0.0,0.0,0.0,0.0,0.0,0.0,0.0,0.0,0.0,0.0,0.0,0.0,0.0,0.0,0.0,0.0,0.0,0.0,0.0,0.0,0.0,0.0,0.0,0.0,0.0,0.0,0.0,0.0,0.0,0.0,0.0,0.0,0.0,0.0,0.0,0.0,0.0,0.0,0.0,0.0,0.0,0.0,0.0,0.0,0.0,0.0,0.0,0.0,0.0,0.0,0.0,0.0,0.0,0.0,0.0,0.0,0.0,0.0,0.0,0.0,0.0,0.0,0.0,0.0,0.5571,0.4629,0.4752,0.473,0.447,0.3176,0.269,0.0,0.0,0.0,0.0,0.0,0.0,0.0,0.0,0.0,0.0,0.0,0.0,0.0,0.0,0.0,0.0,0.0,0.0,0.0,0.0,0.0,0.0,0.0,0.0,0.0,0.0,0.0,0.0,0.0,0.0,0.0,0.0,0.0,0.0,0.0,0.0,0.0,0.0,0.0,0.0,0.0,0.0,0.0,0.0,0.0,0.0,0.0,0.0,0.0,0.0,0.0,0.0,0.0,0.0,0.0,0.0,0.0,0.0,0.0,0.0,0.0,0.0,0.0,0.0,0.0,0.0,0.0,0.0,0.0,0.0,0.0,0.0,0.0,0.0,0.0,0.0,0.0,0.0,0.0,0.0,0.0,0.0,0.0,0.0,0.0,0.0,0.0,0.0,0.0,0.0,0.0,0.0,0.0,0.0,0.0,0.0,0.0,0.0,0.0,0.0,0.0,0.0,0.0,0.0,0.0,0.0,0.0,0.0,0.6733,0.5336,0.5478,0.5207,0.4522,0.4184,0.3981,0.0,0.0,0.0,0.0,0.0,0.0,0.0,0.0,0.0,0.0,0.0,0.0,0.0,0.0,0.0,0.0,0.0,0.0,0.0,0.0,0.0,0.0,0.0,0.0,0.0,0.0,0.0,0.0,0.0,0.0,0.0,0.0,0.0,0.0,0.0,0.0,0.0,0.0,0.0,0.0,0.0,0.0,0.0,0.0,0.0,0.0,0.0,0.0,1.039,0.0,0.0,0.0,0.0,0.0,0.0,0.0,0.0,0.0,0.0,0.0,0.0,0.0,0.0,0.0,0.0,0.0,0.0,0.0,0.0,0.0,0.0,0.0,0.0,0.0,0.0,0.0,0.0,0.0,0.0,0.0,0.0,0.0,0.0,0.0,0.0,0.0,0.0,0.0,0.0,0.0,0.0,0.0,0.0,0.0,0.0,0.0,0.0,0.0,0.0,0.0,0.0,0.0,0.0,0.0,0.0,0.0,0.0,0.0,0.705,0.5546,0.5612,0.5286,0.455,0.4491,0.4457,0.0,0.0,0.0,0.0,0.0,0.0,0.0,0.0,0.0,0.0,0.0,0.0,0.0,0.0,0.0,0.0,0.0,0.0,0.0,0.0,0.0,0.0,0.0,0.0,0.0,0.0,0.0,0.0,0.0,0.0,0.0,0.0,0.0,0.0,0.0,0.0,0.0,0.0,0.0,0.0,0.0,0.0,0.0,0.0,0.0,0.0,0.0,0.0,0.0,0.0,0.0,0.0,0.0,0.0,0.0,0.0,0.0,0.0,0.0,0.0,0.0,0.0,0.0,0.0,0.0,0.0,0.0,0.0,0.0,0.0,0.0,0.0,0.0,0.0,0.0,0.0,0.0,0.0,0.0,0.0,0.0,0.0,0.0,0.0,0.0,0.0,0.0,0.0,0.0,0.0,0.0,0.0,0.0,0.0,0.0,0.0,0.0,0.0,0.0,0.0,0.0,0.0,0.0,0.0,0.0,0.0,0.0,0.7814,0.7165,0.5891,0.5733,0.5328,0.468,0.4543,0.4491,0.4484,0.0,0.0,0.0,0.0,0.0,0.0,0.0,0.0,0.0,0.0,0.0,0.0,0.0,0.0,0.0,0.0,0.0,0.0,0.0,0.0,0.0,0.0,0.0,0.0,0.0,0.0,0.0,0.0,0.0,0.0,0.0,0.0,0.0,0.0,0.0,0.0,0.0,0.0,0.4819,0.5511,0.0,0.0,0.0,0.0,0.0,0.0,0.0,0.0,0.8181,0.0,0.0,0.0,0.0,0.0,0.0,0.0,0.0,0.0,0.0,0.0,0.0,0.0,0.0,0.0,0.0,0.0,0.0,0.0,0.0,0.0,0.0,0.0,0.0,0.0,0.0,0.0,0.0,0.0,0.0,0.0,0.0,0.0,0.0,0.0,0.0,0.0,0.0,0.0,0.0,0.0,0.0,0.0,0.0,0.0,0.0,0.0,0.0,0.0,0.0,0.0,0.0,0.0,0.0,0.0,0.0,0.8945,0.8502,0.7984,0.7337,0.6718,0.6068,0.5378,0.4791,0.4491,0.4477,0.0,0.0,0.0,0.0,0.0,0.0,0.0,0.0,0.0,0.0,0.0,0.0,0.0,0.0,0.0,0.0,0.0,0.0,0.0,0.0,0.0,0.0,0.0,0.0,0.0,0.0,0.0,0.0,0.0,0.0,0.0,0.0,0.0,0.0,0.0,0.0,0.0,0.0,0.0,0.549,0.5505,0.0,0.0,0.0,0.0,0.0,0.0,0.0,0.0,0.7672,0.0,0.0,0.0,0.0,0.0,0.0,0.0,0.0,0.0,0.0,0.0,0.0,0.0,0.0,0.0,0.0,0.0,0.0,0.0,0.0,0.0,0.0,0.0,0.0,0.0,0.0,0.0,0.0,0.0,0.0,0.0,0.0,0.0,0.0,0.0,0.0,0.0,0.0,0.0,0.0,0.0,0.0,0.0,0.0,0.0,0.0,0.0,0.0,0.0,0.0,0.0,0.0,0.0,0.0,0.0,0.9328,0.8883,0.8136,0.7182,0.6804,0.6068,0.5003,0.4551,0.4314,0.0,0.0,0.0,0.0,0.0,0.0,0.0,0.0,0.0,0.0,0.0,0.0,0.0,0.0,0.0,0.0,0.0,0.0,0.0,0.0,0.0,0.0,0.0,0.0,0.0,0.0,0.0,0.0,0.0,0.0,0.0,0.0,0.0,0.0,0.0,0.0,0.0,0.0,0.0,0.0,0.5701,0.5502,0.3836,0.0,0.0,0.0,0.0,0.0,0.0,0.3758,0.5019,0.0,0.0,0.0,0.0,0.0,0.0,0.0,0.0,0.0,0.0,0.0,0.0,0.0,0.0,0.0,0.0,0.0,0.0,0.0,0.0,0.0,0.0,0.0,0.0,0.0,0.0,0.0,0.0,0.0,0.0,0.0,0.0,0.0,0.0,0.0,0.0,0.0,0.0,0.0,0.0,0.0,0.0,0.0,0.0,0.0,0.0,0.0,0.0,0.0,0.0,0.0,0.0,0.0,0.0,0.0,0.9482,0.8984,0.8106,0.688,0.6669,0.5987,0.4732,0.4402,0.4193,0.0,0.0,0.0,0.0,0.0,0.0,0.0,0.0,0.0,0.0,0.0,0.0,0.0,0.0,0.0,0.0,0.0,0.0,0.0,0.0,0.0,0.0,0.0,0.0,0.0,0.0,0.0,0.0,0.0,0.0,0.0,0.0,0.0,0.0,0.0,0.0,0.0,0.0,0.0,0.0,0.0,0.5488,0.3662,0.2614,0.0,0.0,0.0,0.0,0.1797,0.198,0.0,0.0,0.0,0.0,0.0,0.0,0.0,0.0,0.0,0.0,0.0,0.0,0.0,0.0,0.0,0.0,0.0,0.0,0.0,0.0,0.0,0.0,0.0,0.0,0.0,0.0,0.0,0.0,0.0,0.0,0.0,0.0,0.0,0.0,0.0,0.0,0.0,0.0,0.0,0.0,0.0,0.0,0.0,0.0,0.0,0.0,0.0,0.0,0.0,0.0,0.0,0.0,0.0,0.0,0.0,0.0,0.9466,0.8802,0.8159,0.7572,0.6939,0.6204,0.5406,0.4796,0.4368,0.0,0.0,0.0,0.0,0.0,0.0,0.0,0.0,0.0,0.0,0.0,0.0,0.0,0.0,0.0,0.0,0.0,0.0,0.0,0.0,0.0,0.0,0.0,0.0,0.0,0.0,0.0,0.0,0.0,0.0,0.0,0.0,0.0,0.0,0.0,0.0,0.0,0.0,0.0,0.0,0.0,0.5773,0.3031,0.2699,0.2168,0.0,0.0,0.0,0.0259,0.0803,0.0,0.0,0.0,0.0,0.0,0.0,0.0,0.0,0.0,0.0,0.0,0.0,0.0,0.0,0.0,0.0,0.0,0.0,0.0,0.0,0.0,0.0,0.0,0.0,0.0,0.0,0.0,0.0,0.0,0.0,0.0,0.0,0.0,0.0,0.0,0.0,0.0,0.0,0.0,0.0,0.0,0.0,0.0,0.0,0.0,0.0,0.0,0.0,0.0,0.0,0.0,0.0,0.0,0.0,0.0,0.9389,0.9482,0.8912,0.8143,0.7122,0.6777,0.6068,0.4948,0.4544,0.4273,0.0,0.0,0.0,0.0,0.0,0.0,0.0,0.0,0.0,0.0,0.0,0.0,0.0,0.0,0.0,0.0,0.0,0.0,0.0,0.0,0.0,0.0,0.0,0.0,0.0,0.0,0.0,0.0,0.0,0.0,0.0,0.0,0.0,0.0,0.0,0.0,0.0,0.0,0.0,0.0,0.0,0.0,0.2838,0.2265,0.0,0.0,0.0,0.0,0.0,0.0,0.0,0.0,0.0,0.0,0.0,0.0,0.0,0.0,0.0,0.0,0.0,0.0,0.0,0.0,0.0,0.0,0.0,0.0,0.0,0.0,0.0,0.0,0.0,0.0,0.0,0.0,0.0,0.0,0.0,0.0,0.0,0.0,0.0,0.0,0.0,0.0,0.0,0.0,0.0,0.0,0.0,0.0,0.0,0.0,0.0,0.0,0.0,0.0,0.0,0.0,0.0,0.0,0.0,0.0,0.0,0.0,0.9474,0.9192,0.8249,0.6669,0.6588,0.5932,0.4543,0.4324,0.0,0.0,0.0,0.0,0.0,0.0,0.0,0.0,0.0,0.0,0.0,0.0,0.0,0.0,0.0,0.0,0.0,0.0,0.0,0.0,0.0,0.0,0.0,0.0,0.0,0.0,0.0,0.3371,0.0,0.0,0.0,0.0,0.0,0.0,0.0,0.0,0.0,0.0,0.0,0.0,0.0,0.0,0.3391,0.2433,0.1756,0.1067,0.0,0.0,0.0,0.0,0.0,0.0198,0.0,0.0,0.0,0.0,0.0,0.0,0.0,0.0,0.0,0.0,0.0,0.0,0.0,0.0,0.0,0.0,0.0,0.0,0.0,0.0,0.0,0.0,0.0,0.0,0.0,0.0,0.0,0.0,0.0,0.0,0.0,0.0,0.0,0.0,0.0,0.0,0.0,0.0,0.0,0.0,0.0,0.0,0.0,0.0,0.0,0.0,0.0,0.0,0.0,0.0,0.0,0.0,0.0,0.0,0.0,0.952,0.9644,0.8705,0.6696,0.6588,0.5932,0.4543,0.4297,0.4153,0.0,0.0,0.0,0.0,0.0,0.0,0.0,0.0,0.0,0.0,0.0,0.0,0.0,0.0,0.0,0.0,0.0,0.0,0.0,0.0,0.0,0.0,0.0,0.0,0.0,0.0,0.0,0.0,0.0,0.0,0.0,0.0,0.0,0.0,0.0,0.0,0.0,0.0,0.0,0.0,0.0,0.3432,0.1474,0.143,0.1198,0.0,0.0,0.0,0.0,0.0,0.0,0.0,0.0,0.0,0.0,0.0,0.0,0.0,0.0,0.0,0.0,0.0,0.0,0.0,0.0,0.0,0.0,0.0,0.0,0.0,0.0,0.0,0.0,0.0,0.0,0.0,0.0,0.0,0.0,0.0,0.0,0.0,0.0,0.0,0.0,0.0,0.0,0.0,0.0,0.0,0.0,0.0,0.0,0.0,0.0,0.0,0.0,0.0,0.0,0.0,0.0,0.0,0.0,0.0,0.0,1.0277,1.0179,0.9917,0.9176,0.7927,0.7058,0.6122,0.5136,0.4647,0.4267,0.0,0.0,0.0,0.0,0.0,0.0,0.0,0.0,0.0,0.0,0.0,0.0,0.0,0.0,0.0,0.0,0.0,0.0,0.0,0.0,0.0,0.0,0.0,0.0,0.0,0.0,0.0,0.0,0.372,0.3216,0.2617,0.0,0.0,0.0,0.0,0.0,0.0,0.0,0.0,0.0,0.0,0.2243,0.2114,0.1264,0.0,0.0,0.0,0.0,0.0,0.0,0.0,0.0,-0.0666,0.0,0.0,0.0,0.0,0.0,0.0,0.0,0.0,0.0,0.0,0.0,0.0,0.0,0.0,0.0,0.0,0.0,0.0,0.0,0.0,0.0,0.0,0.0,0.0,0.0,0.0,0.0,0.0,0.0,0.0,0.0,0.0,0.0,0.0,0.0,0.0,0.0,0.0,0.0,0.0,0.0,0.0,0.0,0.0,0.0,0.0,0.0,0.0,0.0,0.0,0.0,0.0,1.0848,1.0786,1.0532,0.9835,0.8731,0.7741,0.6676,0.5542,0.5012,0.451,0.0,0.0,0.0,0.0,0.0,0.0,0.0,0.0,0.0,0.0,0.0,0.0,0.0,0.0,0.0,0.0,0.0,0.0,0.0,0.0,0.0,0.0,0.0,0.0,0.0,0.0,0.0,0.0,0.3476,0.299,0.2587,0.0,0.0,0.0,0.0,0.0,0.0,0.0,0.0,0.0,0.0,0.143,0.2144,0.1199,0.0292,0.0037,0.0211,0.0307,0.0035,0.0,0.0,0.0,0.0,0.0,0.0,0.0,0.0,0.0,0.0,0.0,0.0,0.0,0.0,0.0,0.0,0.0,0.0,0.0,0.0,0.0,0.0,0.0,0.0,0.0,0.0,0.0,0.0,0.0,0.0,1.0762,0.0,0.0,0.8936,0.0,0.0,0.0,0.0,0.0,0.0,0.0,0.0,0.0,0.0,0.0,0.0,0.0,0.0,0.0,0.0,0.0,0.0,0.0,0.0,0.0,0.0,1.1445,1.1219,1.1543,1.0755,0.8803,0.8678,0.7644,0.5647,0.5346,0.4923,0.4187,0.0,0.0,0.0,0.0,0.0,0.0,0.0,0.0,0.0,0.0,0.0,0.0,0.0,0.0,0.0,0.0,0.0,0.0,0.0,0.0,0.0,0.0,0.0,0.0,0.0,0.0,0.342,0.3312,0.3312,0.0,0.0,0.0,0.0,0.0,0.0,0.0,0.0,0.0,0.0,0.1259,0.1308,0.135,0.1308,0.1013,0.0213,0.0791,0.1008,0.0169,0.0,0.0,0.0,0.0,0.0,0.0,0.0,0.0,0.0,0.0,0.0,0.0,0.0,0.0,0.0,0.0,0.0,0.0,0.0,0.0,0.0,0.0,0.0,0.0,0.0,0.0,0.0,0.0,0.0,1.2119,1.1255,0.0,0.0,0.0,0.0,0.0,0.0,0.0,0.0,0.0,0.0,0.0,0.9273,0.9367,0.0,0.0,0.0,0.0,0.0,0.0,0.0,0.0,0.0,0.0,0.0,0.0,1.1956,1.1869,1.1819,1.1258,1.011,0.92,0.8133,0.7009,0.5972,0.4809,0.3506,0.0,0.0,0.0,0.0,0.0,0.0,0.0,0.0,0.0,0.0,0.0,0.0,0.0,0.0,0.0,0.0,0.0,0.0,0.0,0.0,0.0,0.0,0.0,0.0,0.0,0.4211,0.0,0.0,0.0,0.0,0.0,0.0,0.0,0.0,0.0,0.0,0.0,0.2149,0.1208,0.0703,0.0916,0.2192,0.188,0.2008,0.0,0.0,0.0,0.0,0.0,0.0,0.0,0.0,0.0,0.0,0.0,0.0,0.0,0.0,-0.444,-0.4209,-0.415,-0.415,-0.418,0.0,0.0,0.0,0.0,0.0,0.0,0.0,0.0,0.0,0.0,0.0,0.0,0.0,0.0,1.267,0.0,1.1591,0.0,0.0,0.0,0.0,0.0,0.0,0.0,0.0,0.9257,0.9399,0.9679,0.9579,0.9586,0.0,0.9715,0.9339,0.0,0.0,0.0,0.0,0.0,0.0,0.0,0.0,1.2196,1.2414,1.2261,1.1857,1.1141,1.0033,0.8999,0.8045,0.6379,0.478,0.3263,0.2747,0.2141,0.0,0.0,0.0,0.0,0.0,0.0,0.0,0.0,0.0,0.0,0.0,0.0,0.0,0.0,0.0,0.0,0.0,0.0,0.0,0.0,0.0,0.0,0.0,0.4012,0.0,0.0,0.0,0.0,0.0,0.0,0.0,0.0,0.0,0.2633,0.2268,0.1847,0.1329,0.0871,0.1274,0.3182,0.0,0.0,0.0,0.0,0.0,0.0,0.0,0.1248,0.0565,-0.0279,-0.0862,-0.0826,-0.2607,-0.432,-0.5229,0.0,0.0,-0.5108,-0.5074,-0.507,-0.5074,-0.5074,-0.5064,-0.5002,-0.5013,-0.5432,0.0,0.0,0.0,0.0,0.0,0.0,0.0,0.0,1.4107,1.3711,0.0,1.3077,0.0,0.0,0.0,0.0,0.0,0.9224,0.0,0.0,0.9412,0.9397,0.9686,0.9439,0.9411,0.9729,0.9742,0.9546,0.9252,0.9913,0.0,0.0,0.0,0.0,0.0,0.0,1.2138,1.2813,1.2822,1.2501,1.1789,1.1116,1.011,0.8652,0.6661,0.4915,0.3532,0.3419,0.3053,0.2222,0.1514,0.0,0.0,0.0,0.0,0.0,0.0,0.0,0.0,0.0,0.0,0.0,0.0,0.0,0.0,0.0,0.0,0.0,0.0,0.0,0.0,0.3818,0.0,0.0,0.0,0.0,0.0,0.0,0.0,0.0,0.0,0.0,0.1219,0.1094,0.1212,0.1543,0.0,0.0,0.0,0.0,0.4226,0.4262,0.4164,0.3763,0.2904,0.2014,0.1412,0.1313,0.0,0.0,0.0,-0.2174,-0.422,-0.5169,-0.5336,-0.5395,-0.5388,-0.5375,-0.5378,-0.5382,-0.5375,-0.5422,-0.5451,-0.5516,-0.6023,1.76,0.0,0.0,0.0,0.0,1.4114,1.4289,1.459,1.46,1.4202,1.3596,1.3596,0.0,0.0,0.0,0.0,0.0,0.0,0.9713,0.998,0.987,1.002,1.0332,1.0251,1.0258,1.0332,1.01,0.9846,0.9581,0.9528,0.962,0.9795,0.0,0.0,0.0,0.0,1.1416,1.208,1.2107,1.2024,1.1814,1.1141,0.9913,0.8025,0.7385,0.6157,0.4206,0.4125,0.353,0.2275,0.2009,0.0,0.0,0.0,0.0,0.0,0.0,0.0,0.0,0.0,0.0,0.0,0.0,0.0,0.0,0.0,0.0,0.0,0.0,0.0,0.4491,0.4294,0.432,0.0,0.0,0.0,0.0,0.0,0.0,0.0,0.0,0.0,0.0439,0.0852,0.1348,0.0,0.0,0.2329,0.4345,0.4527,0.4678,0.5382,0.5377,0.0,0.3899,0.3526,0.288,0.1523,0.0596,0.0,0.0,-0.1695,-0.3313,-0.4018,-0.4824,-0.5395,-0.5395,-0.5395,-0.5395,-0.5395,-0.5395,-0.5679,-0.6404,-0.6616,-0.7228,1.9686,1.7577,1.7052,1.6177,1.5137,1.5128,1.5176,1.5322,1.5312,1.4984,1.4448,1.4448,1.3987,1.3155,1.2682,0.0,0.0,0.0,1.0329,1.0281,1.0167,1.0214,1.0374,1.0291,1.0244,1.0231,0.9913,0.9644,0.9471,0.9184,0.9159,0.9387,0.0,0.0,1.0397,1.0415,1.0737,1.1366,1.14,1.1409,1.1391,1.0762,0.954,0.7777,0.7696,0.6929,0.5339,0.528,0.4718,0.3556,0.3233,0.3052,0.0,0.0,0.0,0.0,0.0,0.0,0.0,0.0,0.0,0.0,0.0,0.5992,0.632,0.0,0.0,0.0,0.4907,0.4667,0.4721,0.4812,0.0,0.0,0.0,0.0,0.0,0.0,0.0,0.2829,0.1539,0.0489,0.0076,0.0458,0.1111,0.2067,0.2209,0.2945,0.4948,0.0,0.5208,0.5746,0.5724,0.5429,0.4774,0.4369,0.3485,0.1614,0.0871,0.0379,0.0,-0.1185,-0.2613,-0.3954,-0.4589,-0.4957,-0.5326,-0.5395,-0.5395,-0.5428,-0.5686,-0.6166,-0.6824,-0.7367,-0.8222,2.1086,1.9738,1.8569,1.7574,1.6697,1.6697,1.6494,1.6153,1.6095,1.583,1.5469,1.54,1.5195,1.4777,1.3691,0.0,1.1509,1.1398,1.1094,1.0674,1.0305,1.0147,1.0103,0.986,0.9719,0.9719,0.9364,0.9176,0.9204,0.8951,0.8778,0.8778,0.8778,0.9113,0.9692,0.9736,1.0064,1.0686,1.0737,1.0737,1.0788,1.0192,0.9235,0.7931,0.7803,0.745,0.6718,0.6696,0.6367,0.5624,0.4953,0.4514,0.4405,0.0,0.0,0.0,0.0,0.0,0.0,0.0,0.0,0.0,0.0,0.0,0.0,0.0,0.0,0.0,0.5563,0.0,0.5106,0.5306,0.0,0.0,0.0,0.546,0.5519,0.3887,0.2739,0.2812,0.0,0.0,0.0,0.0077,0.0861,0.2843,0.3075,0.3784,0.5744,0.5851,0.5752,0.5621,0.5498,0.5399,0.5279,0.4597,0.3424,0.1817,0.134,0.0941,0.0135,-0.0737,-0.2341,-0.4542,-0.4514,-0.4287,-0.5236,-0.5354,-0.5358,-0.5439,-0.6069,-0.6685,-0.6942,-0.7856,-0.8717,2.0937,1.9414,1.9113,1.8115,1.6697,1.6697,1.6638,1.6553,1.6242,1.6036,1.5919,1.5557,1.5332,1.5225,1.432,1.3794,1.3467,1.2255,1.1605,1.1461,1.0795,1.0486,1.0472,1.0154,1.0013,0.998,0.9457,0.9176,0.917,0.8945,0.8778,0.8778,0.8778,0.8883,0.9035,0.9035,0.9361,1.0038,1.0038,1.0295,1.0788,1.0661,1.0151,0.9347,0.8811,0.8182,0.7477,0.745,0.7095,0.6367,0.6167,0.6063,0.603,0.5951,0.0,0.0,0.0,0.0,0.0,0.0,0.0,0.0,0.0,0.7503,0.7696,0.0,0.7221,0.0,0.5606,0.5303,0.5334,0.5371,0.0,0.0,0.5698,0.5512,0.4962,0.3787,0.2728,0.2001,0.0779,0.0,0.0,0.0704,0.1634,0.2786,0.2968,0.3678,0.565,0.5803,0.5647,0.5602,0.5488,0.5395,0.5326,0.4619,0.3644,0.2544,0.1774,0.1006,0.0135,-0.0694,-0.1766,-0.3092,-0.3682,-0.4161,-0.5005,-0.5101,-0.5247,-0.5736,-0.6099,-0.6674,-0.7725,-0.8267,-0.8699,2.0171,1.9276,1.8888,1.8148,1.7305,1.7262,1.7187,1.6992,1.6553,1.6281,1.6075,1.5596,1.542,1.5352,1.4923,1.454,1.4145,1.3257,1.2473,1.1772,1.1351,1.0888,1.0385,1.006,0.986,0.9684,0.9237,0.9018,0.9011,0.8884,0.8778,0.8778,0.8778,0.8778,0.8778,0.8778,0.8989,0.9335,0.9361,0.9658,1.0338,1.0364,1.0192,0.9821,0.9439,0.8916,0.8215,0.8176,0.783,0.7128,0.7101,0.6939,0.661,0.6839,0.7127,0.0,0.0,0.0,0.0,0.0,0.0,0.0,0.0,0.0,0.0,0.0,0.8404,0.7012,0.6489,0.6092,0.5689,0.5757,0.5866,0.5989,0.6006,0.5689,0.4792,0.3748,0.2696,0.1723,0.0667,0.0,0.0,0.0505,0.142,0.2682,0.2848,0.3536,0.5348,0.5684,0.5576,0.5494,0.5467,0.5395,0.5395,0.4954,0.4295,0.3361,0.249,0.163,0.0651,-0.0162,-0.1129,-0.2349,-0.2953,-0.3612,-0.473,-0.4945,-0.514,-0.5753,-0.6236,-0.6947,-0.8152,-0.8715,-0.9147,1.9233,1.9044,1.8293,1.8008,1.8008,1.8008,1.7773,1.7344,1.6855,1.6396,1.5997,1.5635,1.5469,1.542,1.5469,1.5068,1.4353,1.4243,1.3386,1.1989,1.1865,1.1223,1.016,0.984,0.9552,0.9264,0.8965,0.8778,0.8778,0.8778,0.8778,0.8778,0.8778,0.8778,0.8778,0.8778,0.8778,0.8778,0.8883,0.9263,0.9917,0.9943,0.9961,1.0038,0.9961,0.9614,0.8982,0.8936,0.8613,0.7889,0.783,0.7536,0.6939,0.7477,0.7747,0.0,0.9125,0.0,0.0,0.0,0.0,0.0,0.0,0.0,0.0,0.987,0.9512,0.8386,0.772,0.7066,0.6305,0.6294,0.63,0.6296,0.63,0.5825,0.4649,0.3671,0.2657,0.1528,0.0587,0.0,0.0,0.0115,0.094,0.2527,0.295,0.3676,0.5183,0.5559,0.5539,0.5409,0.5395,0.5395,0.5392,0.5375,0.495,0.3974,0.3089,0.2312,0.1245,0.044,-0.0538,-0.1926,-0.2507,-0.3097,-0.4491,-0.4783,-0.504,-0.5653,-0.6312,-0.71,-0.8057,-0.8899,-0.9549,1.8877,1.8236,1.8076,1.8008,1.8008,1.8008,1.7764,1.7357,1.6564,1.5947,1.5557,1.585,1.5742,1.5449,1.5811,1.5692,1.5147,1.4481,1.3666,1.2757,1.2104,1.1346,1.0504,0.9956,0.9653,0.9566,0.9065,0.8778,0.8778,0.8778,0.8778,0.8778,0.8778,0.8778,0.8778,0.0,0.0,0.0,0.9335,0.9943,1.0568,1.0618,1.0864,1.1383,1.0889,0.0,0.9666,0.9607,0.9302,0.8639,0.8586,0.0,0.0,0.0,0.0,0.0,0.0,0.0,0.0,0.0,0.0,0.0,1.0736,1.0358,1.0043,0.9968,0.993,0.9923,0.8601,0.7652,0.7461,0.6738,0.63,0.63,0.63,0.555,0.3671,0.324,0.2384,0.051,0.0116,0.0,0.0,0.0745,0.1635,0.253,0.3406,0.4288,0.5249,0.541,0.5426,0.5399,0.5382,0.5392,0.5395,0.525,0.4871,0.3937,0.3086,0.2245,0.1322,0.0545,-0.0275,-0.1396,-0.2268,-0.3056,-0.3762,-0.4221,-0.478,-0.5412,-0.6128,-0.6877,-0.7662,-0.8425,-0.8958,1.8405,0.0,1.8008,1.8008,0.0,1.7783,1.7461,1.7021,1.6582,1.6143,1.5762,1.5772,1.5742,1.5732,1.5742,1.5615,1.5381,1.4962,1.4145,1.3009,1.2573,1.1666,1.0365,0.9916,0.9606,0.9424,0.9018,0.8778,0.8778,0.8778,0.8778,0.8778,0.8778,0.8778,0.8778,0.8778,0.8778,0.8778,0.9133,0.964,1.0295,1.0644,1.0965,1.1291,1.1316,0.0,0.0,0.0,0.0,0.0,0.0,0.0,0.0,0.0,0.0,0.9809,1.0731,1.1501,1.1994,1.3065,1.3179,1.1929,1.1278,1.0839,1.0541,1.0738,1.0782,1.0566,0.9338,0.8313,0.7821,0.6907,0.63,0.63,0.63,0.5628,0.4174,0.3401,0.2498,0.1075,0.034,0.0,0.0,0.0436,0.1103,0.1923,0.2825,0.3756,0.4492,0.5078,0.5375,0.5293,0.5247,0.522,0.5152,0.5056,0.4869,0.4281,0.3592,0.2728,0.1799,0.1028,0.0177,-0.0951,-0.1981,-0.2757,-0.3367,-0.4011,-0.4598,-0.4976,-0.5574,-0.6281,-0.7047,-0.8023,-0.8778,1.8008,1.8008,1.8008,1.8008,1.7978,1.7637,1.7311,1.7017,0.0,0.0,0.0,1.585,1.5879,1.6075,1.5771,1.5537,1.542,1.542,1.4599,1.3213,1.3221,1.227,1.063,1.0274,0.9938,0.9653,0.9199,0.8962,0.8956,0.8857,0.8778,0.8778,0.8778,0.8778,0.8778,0.8778,0.8778,0.8778,0.8778,0.9106,0.9788,1.0466,1.0864,1.0965,1.1649,1.1674,1.1015,1.0965,1.0914,1.0788,1.0261,0.9969,0.9969,0.9335,0.9498,1.0659,1.1597,1.2432,1.3267,1.4601,1.4577,1.2647,1.1716,1.1174,1.1095,1.1591,1.169,1.1106,1.0153,0.9145,0.8161,0.7176,0.6479,0.63,0.622,0.5819,0.4742,0.3871,0.2848,0.1721,0.0771,0.0,0.0,0.0,0.0314,0.1176,0.1995,0.2796,0.3695,0.4666,0.5216,0.5086,0.5094,0.5022,0.4924,0.4891,0.48,0.4679,0.4029,0.3286,0.2507,0.157,0.0517,-0.0396,-0.1425,-0.2261,-0.2984,-0.3683,-0.4322,-0.4491,-0.514,-0.5873,-0.6556,-0.7777,-0.8758,1.8008,1.8008,1.8008,1.8008,1.8008,1.7949,1.8055,1.8206,1.6816,1.6153,1.6144,1.6807,1.675,1.6114,1.6406,1.6102,1.543,1.542,1.4903,1.4055,1.4025,1.352,1.256,1.1901,1.1563,1.1439,1.0257,0.9633,0.9588,0.9087,0.8778,0.8778,0.8778,0.8778,0.8778,0.8778,0.8778,0.8778,0.8778,0.914,0.9788,1.0466,1.1091,1.1665,1.2344,1.2403,1.169,1.1665,1.1391,1.0838,1.072,1.0669,1.0636,1.002,1.0268,1.1589,1.1942,1.2683,1.3949,1.4895,1.4698,1.308,1.2365,1.1828,1.1417,1.1677,1.1948,1.2,1.1112,1.0153,0.9183,0.819,0.7179,0.6231,0.6061,0.5563,0.4502,0.4138,0.332,0.1679,0.125,0.0774,0.0,0.0,0.0305,0.1076,0.1445,0.2078,0.3523,0.4467,0.491,0.4924,0.4948,0.4908,0.485,0.4799,0.4721,0.4697,0.3966,0.3406,0.3163,0.171,0.0591,0.0701,-0.0559,-0.1676,-0.2315,-0.2954,-0.3707,-0.4349,-0.5414,-0.6285,-0.6507,-0.767,-0.8699,1.8008,1.8008,1.8008,1.8008,1.8022,1.8235,1.8428,1.8575,1.831,1.8181,1.8171,1.8352,1.7946,1.7144,1.7083,1.6457,1.542,1.542,1.4962,1.4213,1.4183,1.3681,1.2822,1.2423,1.2078,1.1633,1.0681,1.0038,0.9751,0.9133,0.8778,0.8778,0.8778,0.8778,0.8778,0.8778,0.8778,0.8778,0.8778,0.8936,0.9263,0.9917,1.0559,1.1241,1.194,1.2344,1.2393,1.2403,1.2246,1.195,1.1559,1.1333,1.1316,1.0943,1.127,1.245,1.284,1.358,1.4768,1.4776,1.4451,1.3674,1.2616,1.1939,1.1841,1.169,1.175,1.2031,1.1174,1.0394,0.9922,0.8961,0.788,0.6718,0.6594,0.6197,0.5225,0.4509,0.3659,0.2376,0.1632,0.0958,0.0103,0.0,0.0,0.0592,0.0887,0.1831,0.3388,0.3893,0.4264,0.4687,0.4796,0.4755,0.4691,0.4616,0.4597,0.4593,0.4253,0.3821,0.3483,0.2258,0.1619,0.1091,0.0084,-0.1005,-0.1953,-0.2785,-0.3539,-0.4322,-0.4897,-0.5523,-0.6009,-0.7085,-0.8127,1.8178,1.8008,1.8008,1.81,1.8365,1.9072,1.9316,1.9422,2.0257,2.0626,2.055,1.992,1.916,1.8398,1.7798,1.6921,1.5918,1.5537,1.505,1.451,1.4481,1.4012,1.3307,1.3154,1.2746,1.2068,1.1309,1.064,1.0025,0.9361,0.8936,0.8831,0.8778,0.8778,0.8778,0.8778,0.8778,0.8778,0.8778,0.8778,0.8804,0.9465,1.0038,1.0568,1.1366,1.208,1.2608,1.2822,1.2978,1.3055,1.2442,1.2095,1.2209,1.1823,1.2079,1.3168,1.3515,1.4175,1.5235,1.4805,1.4382,1.4204,1.3045,1.2336,1.2346,1.1992,1.175,1.1697,1.1079,1.0569,1.0206,0.9556,0.8607,0.7535,0.7157,0.6745,0.6039,0.4928,0.3802,0.2931,0.1933,0.0974,0.0,0.0,0.0,0.0,0.0639,0.1643,0.2752,0.3168,0.3702,0.4191,0.4521,0.4606,0.4508,0.4498,0.4498,0.4491,0.4463,0.4211,0.3735,0.3347,0.2623,0.1563,0.0587,-0.0474,-0.1701,-0.2538,-0.3262,-0.3987,-0.4594,-0.5058,-0.5792,-0.6571,-0.7409,1.8721,1.8042,1.8042,1.8462,1.9299,2.0821,2.146,2.1615,2.2433,2.2809,2.2536,2.1174,2.0207,1.9585,1.85,1.7687,1.7116,1.5947,1.5381,1.5294,1.5294,1.5245,1.5032,1.4734,1.4339,1.3742,1.2776,1.1748,1.0744,1.002,0.9413,0.8857,0.8778,0.8778,0.8778,0.8778,0.8778,0.8778,0.8778,0.8778,0.8831,0.9465,0.984,0.9891,1.1141,1.1814,1.1947,1.255,1.3152,1.3624,1.3118,1.3045,1.3413,1.2452,1.245,1.3813,1.3505,1.3812,1.5216,1.5323,1.4962,1.4302,1.4055,1.3614,1.3005,1.2854,1.2425,1.1742,1.1422,1.0996,1.009,0.9875,0.9386,0.8225,0.7441,0.6831,0.6464,0.507,0.3694,0.2822,0.1947,0.0973,0.0,0.0,0.0,0.0,0.0541,0.1101,0.1587,0.2495,0.3262,0.3585,0.4036,0.4459,0.4487,0.4491,0.4491,0.4491,0.4491,0.4405,0.4153,0.3622,0.2758,0.2035,0.1004,-0.014,-0.106,-0.1785,-0.2565,-0.3539,-0.4477,-0.5546,-0.6258,-0.648,-0.6674,1.9562,1.8787,1.8787,1.8944,1.9464,2.0623,2.1428,2.1982,2.2732,2.3095,2.3035,2.2372,2.1568,2.0624,1.9785,1.8942,1.7976,1.7098,1.6443,1.6093,1.6036,1.5835,1.542,1.5244,1.4932,1.4476,1.3672,1.2762,1.1722,1.0448,0.9633,0.9368,0.9015,0.8778,0.8778,0.8778,0.8778,0.8778,0.8778,0.8778,0.8804,0.9061,0.9413,0.984,1.0712,1.1416,1.1864,1.2846,1.3552,1.3792,1.3897,1.3897,1.3802,1.3492,1.3345,1.3439,1.3624,1.4256,1.5332,1.542,1.5264,1.4923,1.4481,1.4025,1.3726,1.3274,1.2779,1.2481,1.2477,1.2065,1.0841,1.0969,1.0612,0.9139,0.8065,0.7334,0.6732,0.5606,0.4317,0.2945,0.2376,0.1542,0.0,0.0,0.0,0.0,0.0296,0.0597,0.1036,0.1675,0.2313,0.3007,0.3539,0.3984,0.4349,0.4491,0.4491,0.4491,0.4491,0.4491,0.4405,0.427,0.3572,0.2452,0.1451,0.0307,-0.0922,-0.1312,-0.187,-0.301,-0.4039,-0.503,-0.5308,-0.5332,-0.5336,2.043,1.9748,1.9879,2.0009,2.0107,2.0942,2.1647,2.2218,2.2854,2.3095,2.3095,2.3095,2.26,2.1668,2.0822,1.9865,1.8971,1.8047,1.733,1.681,1.6595,1.6226,1.5719,1.5468,1.5195,1.4788,1.4308,1.358,1.2591,1.1196,1.0302,0.9963,0.9496,0.9117,0.8811,0.8778,0.8778,0.8778,0.8778,0.8778,0.8778,0.8778,0.9035,0.9543,1.0192,1.0847,1.1541,1.2817,1.3711,1.405,1.4479,1.4583,1.4329,1.4265,1.3786,1.3004,1.3472,1.4205,1.4907,1.5148,1.5293,1.5332,1.4835,1.454,1.4421,1.3995,1.3575,1.3346,1.3703,1.3294,1.1914,1.1875,1.1415,1.0079,0.8892,0.7735,0.7111,0.5943,0.4456,0.3278,0.2813,0.2138,0.0,0.0,0.0,0.0,0.0,0.014,0.0699,0.1006,0.1506,0.2452,0.2952,0.3647,0.4319,0.4491,0.4491,0.4491,0.4491,0.4491,0.4491,0.4498,0.3968,0.2565,0.1925,0.1061,-0.0307,-0.0866,-0.1535,-0.2843,-0.379,-0.4291,-0.4653,-0.4515,-0.4515,2.1333,2.073,2.1428,2.1659,2.1803,2.2537,2.2944,2.2975,2.3078,2.3095,2.3095,2.3095,2.3053,2.2837,2.1236,2.0394,2.006,1.8552,1.771,1.7495,1.6905,1.651,1.6397,1.5748,1.5224,1.4975,1.4816,1.4183,1.3105,1.2331,1.1485,1.0543,1.042,0.9841,0.9024,0.8864,0.8818,0.8778,0.8778,0.8778,0.8778,0.8778,0.8831,0.8956,0.9517,1.0261,1.0939,1.2165,1.3419,1.4629,1.4766,1.4994,1.5343,1.4432,1.3431,1.2716,1.2932,1.3386,1.3884,1.4487,1.499,1.5293,1.5303,1.5323,1.5235,1.5196,1.4894,1.4234,1.4852,1.4604,1.3241,1.2522,1.1941,1.1469,0.9456,0.8248,0.7892,0.58,0.4287,0.3785,0.3184,0.2293,0.1298,0.0503,0.0,0.0,0.0,0.0,0.0196,0.0671,0.1146,0.1619,0.245,0.3555,0.4291,0.4491,0.4491,0.457,0.4653,0.4543,0.4487,0.4322,0.3511,0.2732,0.2062,0.1228,0.0224,-0.0755,-0.1647,-0.2538,-0.3093,-0.3566,-0.4027,-0.436,-0.4395,2.2187,2.1396,2.1175,2.1365,2.192,2.223,2.2628,2.3095,2.3095,2.3095,2.3095,2.3095,2.3095,2.3058,2.2072,2.1424,2.1013,2.0013,1.9129,1.8375,1.8015,1.766,1.7146,1.6454,1.6061,1.5851,1.5405,1.4848,1.4155,1.3213,1.2551,1.2056,1.119,1.0429,0.9899,0.9323,0.8971,0.8798,0.8778,0.8778,0.8791,0.8778,0.8778,0.8857,0.9865,1.0542,1.0788,1.285,1.4249,1.4698,1.5752,1.6123,1.5511,1.4214,1.3342,1.3106,1.3011,1.3067,1.3414,1.4259,1.4872,1.5,1.5264,1.54,1.5497,1.5806,1.5979,1.5796,1.5872,1.5728,1.5226,1.4088,1.2923,1.1826,1.0526,0.9099,0.8049,0.6613,0.5332,0.4209,0.3247,0.2354,0.158,0.1005,0.0609,0.0,0.0,0.0,0.0,0.0,0.0,0.0,0.1312,0.2514,0.4332,0.4467,0.4543,0.4814,0.4948,0.4948,0.4921,0.468,0.4012,0.3284,0.2502,0.1629,0.069,-0.039,-0.1336,-0.175,-0.2277,-0.2872,-0.3444,-0.3704,-0.3918,2.2793,2.223,2.1647,2.1741,2.2249,2.2279,2.261,2.3065,2.3095,2.3095,2.3095,2.3095,2.3095,2.3045,2.2706,2.2272,2.1694,2.1004,2.0099,1.9107,1.8806,1.8447,1.7934,1.7202,1.6726,1.6397,1.5758,1.5254,1.4972,1.4232,1.3682,1.3258,1.229,1.1399,1.0682,1.0029,0.957,0.9187,0.8998,0.8951,0.8938,0.8825,0.8778,0.8982,1.0115,1.0813,1.0838,1.2922,1.4318,1.4824,1.6176,1.6646,1.582,1.4444,1.3367,1.2903,1.2419,1.2225,1.2356,1.3177,1.3875,1.4266,1.4875,1.529,1.5567,1.6349,1.6771,1.6838,1.6838,1.6793,1.6368,1.5526,1.4186,1.2465,1.1183,0.9958,0.8603,0.7665,0.6482,0.5163,0.3908,0.2832,0.1915,0.1497,0.0907,0.0,0.0,0.0,0.0,0.0,0.0,0.0,0.0,0.162,0.3181,0.3926,0.467,0.5081,0.5578,0.5546,0.5437,0.5113,0.456,0.3834,0.301,0.2133,0.1122,0.0028,-0.0582,-0.0995,-0.1496,-0.2073,-0.2578,-0.3035,-0.331,2.3078,2.3035,2.3065,2.2944,2.3005,2.2975,2.3078,2.3095,2.3095,2.3095,2.3095,2.3095,2.3095,2.3083,2.311,2.2858,2.2236,2.1411,2.0571,1.9794,1.9095,1.878,1.8661,1.7961,1.7174,1.6492,1.5777,1.5439,1.5323,1.5206,1.4735,1.3976,1.3693,1.2712,1.102,1.0906,1.0451,0.9817,0.9408,0.9217,0.915,0.8964,0.8825,0.8963,1.0105,1.0813,1.0838,1.2205,1.3548,1.4618,1.5806,1.6378,1.6259,1.5127,1.3668,1.2156,1.1283,1.0839,1.0685,1.1335,1.2279,1.305,1.418,1.5071,1.5715,1.6802,1.7523,1.7605,1.7567,1.7357,1.6736,1.6397,1.54,1.3326,1.1765,1.0582,0.9448,0.8511,0.7634,0.651,0.5084,0.3753,0.2789,0.1992,0.1167,0.0,0.0,0.0,0.0,0.0,0.0,0.0,0.0,0.0978,0.2199,0.3385,0.446,0.5401,0.6014,0.6317,0.6226,0.5955,0.521,0.4429,0.3465,0.2563,0.1302,0.0301,-0.0191,-0.0601,-0.099,-0.1311,-0.182,-0.2315,-0.282,2.3095,2.3095,2.3095,2.3095,2.3095,2.3095,2.3095,2.3095,2.3095,2.3095,2.3095,2.3095,2.3095,2.3245,2.3649,2.3589,2.3035,2.2737,2.1891,2.0546,1.9778,1.9449,1.9319,1.8688,1.7677,1.6652,1.6265,1.5864,1.5497,1.542,1.5177,1.4878,1.4317,1.37,1.2766,1.1784,1.0916,1.0523,0.9873,0.9546,0.9519,0.9231,0.9078,0.9187,1.0213,1.0813,1.0889,1.2531,1.364,1.4097,1.5574,1.6583,1.6646,1.5506,1.3966,1.259,1.1818,1.099,1.0277,1.0883,1.155,1.2181,1.3314,1.439,1.5262,1.671,1.7779,1.8248,1.8328,1.807,1.7385,1.6782,1.5747,1.4016,1.3347,1.2127,1.0337,0.8892,0.7697,0.6852,0.6085,0.5069,0.3712,0.2668,0.1703,0.082,0.028,0.0,0.0,0.0,0.0,0.0,0.0,0.0503,0.1977,0.3437,0.4672,0.5778,0.6556,0.7133,0.7042,0.6627,0.5855,0.4942,0.3983,0.2927,0.1645,0.0842,0.0409,0.0,-0.0301,-0.0689,-0.1157,-0.1641,-0.2132,2.3421,2.3434,2.3421,2.3296,2.3108,2.3095,2.3095,2.3095,2.3095,2.3095,2.3095,2.3095,2.3095,2.3275,2.3943,2.4081,2.3784,2.3864,2.3295,2.2036,2.0912,2.0295,1.9786,1.9044,1.8313,1.7357,1.6765,1.6265,1.5816,1.5555,1.541,1.5294,1.4894,1.4214,1.3541,1.2497,1.1644,1.0857,1.0166,0.984,0.9786,0.9559,0.9457,0.9714,1.0514,1.1013,1.1258,1.2691,1.3576,1.4039,1.5452,1.654,1.6807,1.5684,1.4414,1.3192,1.2015,1.0922,1.0017,1.0185,1.0616,1.1064,1.2412,1.388,1.5066,1.6735,1.8084,1.8917,1.9111,1.8715,1.7743,1.7219,1.6234,1.4805,1.4293,1.3278,1.1262,0.9762,0.8682,0.7864,0.6908,0.5775,0.4543,0.3168,0.2172,0.124,0.0224,-0.0392,-0.042,0.0,0.0,0.0,0.0,0.0419,0.1977,0.3437,0.4883,0.6067,0.7155,0.7696,0.7963,0.7305,0.6558,0.5424,0.4403,0.3594,0.2419,0.18,0.1301,0.0881,0.0378,0.0026,-0.0403,-0.0907,-0.1396,2.3991,2.3991,2.3954,2.3577,2.312,2.3095,2.3095,2.3095,2.3095,2.3095,2.3095,2.3095,2.3095,2.3275,2.4047,2.4454,2.4418,2.4653,2.4543,2.3858,2.2663,2.134,2.0029,1.9347,1.8874,1.8367,1.7246,1.6578,1.635,1.5719,1.5381,1.5225,1.5108,1.454,1.3283,1.2962,1.2066,1.0926,1.0377,1.0147,1.0127,0.986,0.9909,1.0272,1.0912,1.1386,1.1769,1.2516,1.3214,1.3909,1.5251,1.6099,1.6207,1.5758,1.4801,1.3648,1.1901,1.0788,0.9891,0.9356,0.9194,0.9732,1.1253,1.3218,1.4795,1.6388,1.8064,1.9453,1.9695,1.915,1.7961,1.7523,1.68,1.5604,1.4628,1.3507,1.2158,1.1114,1.009,0.9099,0.7676,0.6131,0.5168,0.3669,0.2389,0.1297,0.0084,-0.0614,-0.1034,-0.1005,-0.0948,-0.0949,-0.0951,0.0419,0.2006,0.3457,0.4953,0.6619,0.7673,0.8329,0.8468,0.7786,0.7208,0.6053,0.4947,0.4123,0.3409,0.2757,0.2022,0.1383,0.0996,0.0726,0.0328,-0.0194,-0.0787,2.3991,2.3954,2.354,2.3246,2.3108,2.3095,2.3095,2.3095,2.3095,2.3095,2.3095,2.3095,2.3138,2.3245,2.4496,2.5119,2.5246,2.5756,2.5469,2.4675,2.4165,2.2536,2.0911,2.0333,1.9671,1.8729,1.777,1.7034,1.6482,1.5787,1.5099,1.454,1.4569,1.4055,1.3061,1.242,1.1958,1.143,1.0795,1.0459,1.0419,1.0147,1.02,1.0576,1.1098,1.1471,1.1843,1.2501,1.3166,1.3732,1.4168,1.4937,1.5642,1.5264,1.463,1.3812,1.2826,1.1499,1.0082,0.9176,0.8679,0.8368,0.9754,1.1266,1.3563,1.4876,1.6905,1.8932,1.9773,1.9176,1.7961,1.755,1.6856,1.5623,1.468,1.4037,1.3408,1.2296,1.1057,0.9857,0.8279,0.6878,0.5668,0.427,0.2852,0.1874,0.0585,-0.0724,-0.1281,-0.1978,-0.2142,-0.1452,-0.1006,0.0502,0.2031,0.3479,0.5132,0.7057,0.8212,0.9059,0.8771,0.8039,0.7549,0.6903,0.5686,0.4767,0.4174,0.3575,0.2792,0.2069,0.1776,0.1565,0.1025,0.0488,-0.0209,2.4418,2.4004,2.386,2.3534,2.3133,2.3095,2.3095,2.3095,2.3095,2.3095,2.3095,2.3095,2.3288,2.3738,2.4866,2.5605,2.5916,2.6678,2.6599,2.5982,2.5292,2.3714,2.1959,2.1164,2.0358,1.9516,1.8248,1.7451,1.6838,1.595,1.4991,1.4362,1.4183,1.3606,1.2473,1.2081,1.1624,1.1257,1.08,1.0586,1.0566,1.0401,1.0534,1.0923,1.1427,1.1966,1.2464,1.2497,1.2745,1.3314,1.3684,1.4249,1.505,1.4903,1.4641,1.4402,1.348,1.2098,1.0814,0.9725,0.8862,0.8553,0.9278,1.1143,1.3306,1.4726,1.6777,1.9277,1.9489,1.8768,1.7797,1.7079,1.6236,1.5299,1.4735,1.4394,1.4246,1.2942,1.1752,1.0492,0.8952,0.7452,0.6435,0.4867,0.3491,0.2171,0.05,-0.0833,-0.1944,-0.2777,-0.3249,-0.2643,-0.1814,-0.0585,0.1468,0.3219,0.5439,0.7391,0.9264,1.0012,0.9462,0.8678,0.8128,0.7571,0.6421,0.5508,0.5027,0.4488,0.3839,0.3259,0.2832,0.2251,0.1679,0.1088,0.0392,2.4958,2.4117,2.4449,2.4036,2.317,2.3095,2.3095,2.3095,2.3095,2.3185,2.3275,2.3258,2.3738,2.4452,2.5287,2.5906,2.6496,2.7155,2.736,2.6852,2.6001,2.4519,2.2959,2.1722,2.1017,2.0395,1.8679,1.7857,1.7263,1.6169,1.5099,1.4362,1.4094,1.3235,1.2135,1.171,1.1288,1.08,1.0649,1.0586,1.0586,1.0571,1.0712,1.11,1.1644,1.2367,1.2715,1.2479,1.2178,1.2881,1.3457,1.4097,1.4629,1.4721,1.5005,1.5197,1.4136,1.2912,1.1776,1.0578,0.9514,0.9073,0.9773,1.1653,1.3627,1.5292,1.7164,1.9582,1.9073,1.8344,1.7413,1.6255,1.5473,1.4971,1.4796,1.4592,1.4138,1.3287,1.2311,1.1357,0.9486,0.8152,0.6997,0.5652,0.399,0.2666,0.0831,-0.0968,-0.2491,-0.3822,-0.4128,-0.3987,-0.3053,-0.2006,0.0414,0.2907,0.5472,0.7848,1.0046,1.1057,1.0568,0.9838,0.9066,0.8209,0.7124,0.644,0.6031,0.5471,0.477,0.417,0.3591,0.2929,0.2261,0.1648,0.0985,2.4858,2.455,2.3785,2.3333,2.312,2.3095,2.3095,2.3095,2.3095,2.3424,2.3914,2.4031,2.4439,2.5203,2.5892,2.6377,2.6695,2.7312,2.7345,2.6731,2.6019,2.5164,2.405,2.291,2.1779,2.0818,1.98,1.8667,1.7638,1.6669,1.5565,1.4353,1.3696,1.2787,1.1927,1.1288,1.0839,1.0624,1.0586,1.0586,1.0586,1.0618,1.0757,1.1122,1.1393,1.1885,1.2332,1.2065,1.2163,1.2852,1.3556,1.4251,1.4674,1.5141,1.5487,1.5554,1.5342,1.4276,1.2725,1.1419,1.0005,0.9169,0.9566,1.0363,1.3199,1.5297,1.7336,1.9062,1.8996,1.8093,1.6845,1.594,1.5213,1.4788,1.4679,1.4564,1.4097,1.3323,1.2436,1.1425,1.0073,0.8639,0.7672,0.6338,0.4754,0.3154,0.1159,-0.0965,-0.284,-0.4641,-0.5058,-0.5082,-0.4255,-0.3044,-0.0331,0.2621,0.5917,0.8254,1.0452,1.1959,1.1468,1.0645,0.9742,0.8826,0.7879,0.7351,0.6923,0.6153,0.5423,0.4877,0.4289,0.3606,0.2921,0.2255,0.0,2.4732,2.3985,2.3634,2.3346,2.312,2.3095,2.3095,2.3095,2.3095,2.3573,2.4176,2.4279,2.4894,2.5946,2.6596,2.7063,2.755,2.8103,2.81,2.7466,2.6803,2.6138,2.5455,2.44,2.3155,2.1404,2.0155,1.9089,1.8101,1.7013,1.5862,1.4758,1.3948,1.2962,1.195,1.1375,1.1014,1.0649,1.0586,1.0586,1.0586,1.0586,1.0909,1.1147,1.1054,1.1125,1.2001,1.1972,1.2181,1.2916,1.4086,1.4779,1.4857,1.5509,1.6046,1.6361,1.6345,1.5634,1.4144,1.303,1.1844,1.0239,1.0628,1.2335,1.4285,1.6196,1.7956,1.9485,1.9401,1.8274,1.6239,1.547,1.4837,1.4127,1.4107,1.3987,1.3562,1.304,1.2574,1.1851,1.0806,0.9503,0.8282,0.717,0.535,0.3668,0.1297,-0.0854,-0.3465,-0.5128,-0.6018,-0.6018,-0.5345,-0.3793,-0.1069,0.2282,0.6358,0.8715,1.0764,1.1965,1.2298,1.1308,1.0242,0.9449,0.8711,0.8139,0.7652,0.6849,0.6031,0.5395,0.4775,0.4185,0.3552,0.2832,0.2349,2.4657,2.3384,2.374,2.3577,2.3145,2.3095,2.3095,2.3095,2.3095,2.3662,2.4366,2.4465,2.5412,2.6663,2.7329,2.7966,2.8599,2.898,2.8876,2.844,2.8025,2.742,2.6743,2.5963,2.4699,2.2328,2.1065,1.9951,1.8741,1.7539,1.6553,1.5515,1.4729,1.3738,1.2527,1.1989,1.1624,1.1014,1.0919,1.0744,1.0618,1.0586,1.0937,1.1164,1.0704,1.0725,1.1559,1.1853,1.2121,1.266,1.4897,1.5468,1.5383,1.5993,1.6761,1.7289,1.7218,1.662,1.5564,1.4755,1.37,1.2198,1.2977,1.4497,1.6113,1.7481,1.9003,1.9778,1.9826,1.8151,1.5814,1.4959,1.4228,1.354,1.3463,1.3446,1.3244,1.2974,1.2922,1.2412,1.1754,1.0736,0.9537,0.8358,0.6226,0.4066,0.1675,-0.0826,-0.3406,-0.5423,-0.6234,-0.6659,-0.5991,-0.3784,-0.1039,0.2228,0.6274,0.8624,1.073,1.1882,1.2686,1.2172,1.1215,1.0383,0.9706,0.902,0.821,0.7288,0.6526,0.5878,0.5049,0.4218,0.3709,0.3343,0.2717,2.4763,2.4469,2.3597,2.3183,2.312,2.3095,2.3095,2.3095,2.3095,2.393,2.5091,2.5245,2.6252,2.7725,2.8207,2.867,2.9248,2.9546,2.9482,2.9305,2.9035,2.864,2.8075,2.7453,2.6313,2.4855,2.315,2.1435,1.9771,1.8679,1.76,1.6433,1.5515,1.4563,1.3708,1.3152,1.242,1.1686,1.15,1.1233,1.0839,1.0649,1.0555,1.0811,1.0232,1.0433,1.1063,1.1627,1.2174,1.296,1.5013,1.5615,1.5829,1.694,1.7669,1.7508,1.7814,1.7525,1.6464,1.5683,1.4699,1.3882,1.4105,1.5291,1.6879,1.8265,1.9844,2.0452,1.968,1.7725,1.6322,1.5145,1.4238,1.3849,1.389,1.4178,1.4258,1.4193,1.383,1.3227,1.2652,1.2049,1.0839,0.9453,0.7489,0.515,0.2571,-0.0219,-0.3082,-0.4961,-0.6298,-0.6529,-0.6529,-0.3781,-0.0821,0.2603,0.6067,0.8138,1.0101,1.174,1.2437,1.2749,1.2255,1.1341,1.0391,0.9526,0.8659,0.7794,0.6977,0.6279,0.5271,0.4217,0.3536,0.2915,0.1983,2.4612,2.4305,2.3446,2.3283,2.3471,2.3221,2.3095,2.3095,2.3125,2.3959,2.5035,2.5481,2.6361,2.7839,2.8779,2.9451,3.0123,3.033,3.0314,3.0293,2.9989,2.974,2.9312,2.8768,2.7764,2.6558,2.5167,2.323,2.0952,2.0084,1.8767,1.7268,1.6299,1.5352,1.4412,1.3786,1.3183,1.2543,1.205,1.1648,1.117,1.0863,1.0428,0.9964,0.9788,0.9798,0.9966,1.0799,1.168,1.2941,1.5029,1.5944,1.6742,1.7929,1.8976,1.814,1.8467,1.8438,1.7484,1.6879,1.6193,1.5027,1.5426,1.6763,1.8328,1.9763,2.104,2.1492,2.0593,1.852,1.6989,1.5553,1.4583,1.4058,1.4099,1.4328,1.4661,1.496,1.4687,1.4205,1.3927,1.327,1.2128,1.058,0.8767,0.6327,0.3587,0.0627,-0.2419,-0.4245,-0.5742,-0.6438,-0.6303,-0.4075,-0.1123,0.2065,0.5183,0.7364,0.9544,1.1182,1.2246,1.2559,1.2623,1.2218,1.1224,1.0128,0.937,0.8561,0.7632,0.6628,0.5611,0.4533,0.3369,0.2389,0.1527,2.4657,2.413,2.3634,2.371,2.4017,2.3521,2.3283,2.3258,2.3145,2.3872,2.5091,2.5398,2.6187,2.761,2.8957,3.0145,3.1151,3.1134,3.1095,3.0995,3.0699,3.0477,3.033,2.9821,2.8943,2.7913,2.7115,2.5238,2.2498,2.1238,1.9799,1.8311,1.7216,1.6091,1.4992,1.4599,1.3995,1.3274,1.2657,1.2228,1.1679,1.1014,1.0206,0.9402,0.93,0.9125,0.891,1.0011,1.1137,1.2726,1.4706,1.6496,1.7149,1.9331,2.0007,1.8946,1.9438,1.9189,1.8557,1.8193,1.7492,1.6369,1.7213,1.8571,2.0145,2.1532,2.2825,2.296,2.1803,1.9937,1.8097,1.638,1.5344,1.4685,1.44,1.4411,1.5096,1.5533,1.5852,1.5531,1.531,1.4607,1.3557,1.2027,1.0239,0.7919,0.5188,0.2235,-0.0711,-0.3135,-0.474,-0.5901,-0.5792,-0.4084,-0.1593,0.1094,0.3917,0.6204,0.865,1.0747,1.169,1.2427,1.2467,1.2564,1.1814,1.078,1.0074,0.9056,0.7751,0.6638,0.585,0.4651,0.3135,0.2061,0.1251,2.5197,2.472,2.46,2.4637,2.4632,2.413,2.3891,2.3828,2.3358,2.3603,2.4647,2.5189,2.6158,2.7634,2.9358,3.0477,3.0995,3.119,3.119,3.1151,3.1055,3.0995,3.0975,3.0477,2.9756,2.8939,2.8428,2.6416,2.3865,2.2297,2.0881,1.9396,1.8097,1.7045,1.6251,1.5671,1.4874,1.4204,1.3927,1.3166,1.1927,1.1045,1.0263,0.946,0.9166,0.8822,0.8329,0.9388,1.0708,1.1936,1.4695,1.6352,1.7172,1.9344,2.0184,2.0091,2.0097,2.0065,1.9057,1.8728,1.8409,1.7811,1.8622,2.0079,2.1595,2.349,2.4673,2.4228,2.2966,2.1311,1.9362,1.7591,1.6429,1.5775,1.5428,1.5589,1.603,1.5898,1.6247,1.6364,1.5996,1.5754,1.5117,1.3455,1.1712,0.9293,0.6754,0.38,0.09,-0.1695,-0.3726,-0.4918,-0.5494,-0.4009,-0.2428,0.0302,0.2644,0.4996,0.7715,1.0191,1.1283,1.2147,1.2725,1.2618,1.1974,1.127,1.036,0.9174,0.7725,0.6607,0.5752,0.427,0.2573,0.1722,0.1018,2.6684,2.5395,2.4988,2.4963,2.5172,2.4682,2.4437,2.4343,2.3879,2.4059,2.4717,2.5186,2.6344,2.7975,2.9345,3.0086,3.0658,3.1035,3.119,3.119,3.119,3.119,3.1131,3.0878,3.0393,2.9496,2.8903,2.7419,2.5152,2.3619,2.235,2.0185,1.9174,1.8373,1.7575,1.6956,1.6265,1.5487,1.4639,1.3377,1.2135,1.1337,1.0395,0.871,0.8613,0.8091,0.779,0.8366,0.9755,1.1133,1.3714,1.5548,1.6928,1.897,2.0553,2.0548,2.095,2.0657,1.9656,1.9155,1.8565,1.8219,1.8899,2.0226,2.2374,2.443,2.561,2.4832,2.3777,2.2326,2.0693,1.9018,1.7963,1.7165,1.6423,1.6231,1.6389,1.6445,1.6488,1.6616,1.6667,1.6355,1.583,1.4334,1.2681,1.0814,0.821,0.5319,0.2226,-0.0738,-0.2532,-0.3941,-0.4268,-0.407,-0.268,-0.0715,0.1447,0.3929,0.7111,0.9351,1.0906,1.1816,1.2544,1.292,1.2577,1.1728,1.0704,0.9614,0.8456,0.7066,0.5624,0.4131,0.2664,0.1583,0.0973,2.8181,2.6392,2.5769,2.5646,2.5749,2.5234,2.4901,2.4725,2.423,2.4307,2.4848,2.5371,2.6611,2.8119,2.9011,2.9805,3.0356,3.0935,3.1151,3.119,3.119,3.119,3.1171,3.1075,3.0518,2.9422,2.9361,2.7917,2.621,2.4778,2.3306,2.0932,1.9885,1.9284,1.869,1.7857,1.7024,1.6244,1.4884,1.3537,1.2358,1.1888,1.028,0.8854,0.7892,0.7502,0.6724,0.7567,0.8875,1.0291,1.2833,1.4917,1.6535,1.8778,2.0512,2.0887,2.1441,2.1172,2.0181,1.942,1.8587,1.8364,1.8793,2.0495,2.2525,2.4593,2.5448,2.464,2.4264,2.3041,2.1693,2.0208,1.9111,1.8121,1.7225,1.6849,1.6475,1.6402,1.6539,1.6837,1.6845,1.671,1.6027,1.4869,1.3496,1.2055,0.9649,0.6733,0.3713,0.0546,-0.1072,-0.2435,-0.3539,-0.3701,-0.3067,-0.1458,0.0573,0.2817,0.6006,0.8597,1.0201,1.1674,1.2725,1.2905,1.2969,1.2282,1.1299,1.0297,0.92,0.7503,0.5869,0.4351,0.2968,0.1782,0.1058,2.9278,2.7845,2.7561,2.702,2.6361,2.582,2.5272,2.4933,2.4318,2.4173,2.4538,2.5475,2.6588,2.7625,2.8748,2.9629,3.0272,3.0918,3.1095,3.1171,3.119,3.119,3.119,3.1035,3.0597,2.9563,2.9361,2.8266,2.6715,2.5657,2.4088,2.227,2.0879,1.9961,1.9159,1.832,1.7379,1.6472,1.5148,1.3885,1.2909,1.2074,1.062,0.8694,0.7929,0.7284,0.5785,0.7246,0.8495,0.9572,1.2309,1.4449,1.611,1.8401,2.0026,2.1084,2.1409,2.1204,2.0584,1.9606,1.8865,1.8969,1.9431,2.0252,2.1671,2.3504,2.4179,2.3933,2.3677,2.3296,2.2127,2.1093,1.9766,1.8672,1.7599,1.6883,1.6475,1.6173,1.6377,1.6917,1.6833,1.6364,1.5862,1.4619,1.4079,1.2734,1.0302,0.7425,0.5112,0.2304,0.0714,-0.0826,-0.253,-0.3165,-0.3369,-0.2086,-0.09,0.1541,0.4665,0.7344,0.9599,1.1073,1.3125,1.3099,1.3143,1.2521,1.1877,1.0839,0.9548,0.775,0.6124,0.4784,0.3021,0.1475,0.1116,2.9834,2.8051,2.8343,2.7723,2.6474,2.6248,2.6013,2.5749,2.5222,2.5065,2.5146,2.5907,2.6624,2.746,2.8323,2.918,2.9783,3.0356,3.0801,3.1095,3.119,3.119,3.119,3.1015,3.0597,2.9651,2.9316,2.8401,2.6628,2.6135,2.548,2.3924,2.2204,2.1265,2.035,1.8857,1.764,1.6912,1.5661,1.4362,1.3152,1.2665,1.1346,0.9064,0.8812,0.8226,0.7409,0.8194,0.8828,0.9888,1.2081,1.3758,1.5379,1.7666,1.9546,2.0812,2.1058,2.0992,2.0647,1.9579,1.8547,1.7557,1.8027,1.8963,2.0083,2.15,2.2353,2.2527,2.2722,2.2304,2.1816,2.0798,1.9747,1.8776,1.7819,1.6933,1.6312,1.5898,1.5832,1.6167,1.584,1.5365,1.4846,1.4252,1.3916,1.3331,1.0739,0.8254,0.6012,0.4078,0.245,0.0385,-0.1452,-0.3242,-0.3583,-0.3078,-0.2464,0.027,0.3271,0.6137,0.8882,1.2076,1.3676,1.357,1.3416,1.3088,1.2429,1.1358,0.9967,0.8416,0.6881,0.5423,0.349,0.1501,0.1419,2.9428,2.785,2.8036,2.7424,2.6316,2.6424,2.6298,2.5984,2.5674,2.5439,2.5405,2.6026,2.6481,2.7057,2.8259,2.8966,2.9607,3.0251,3.0781,3.1055,3.119,3.119,3.119,3.1055,3.0699,2.9821,2.9323,2.8457,2.7287,2.6733,2.6133,2.5246,2.4139,2.3007,2.1599,1.9634,1.8038,1.7352,1.6128,1.461,1.3235,1.2604,1.1602,0.955,0.9236,0.8748,0.8258,0.8651,0.932,1.0255,1.1773,1.3382,1.4974,1.6751,1.8782,1.9856,2.0441,2.0487,2.0061,1.8918,1.7564,1.6482,1.6379,1.7171,1.8066,1.9254,2.018,2.0713,2.0926,2.1013,2.0687,1.9866,1.8892,1.7775,1.7227,1.6425,1.5764,1.5299,1.5265,1.5331,1.4881,1.4458,1.3814,1.3196,1.221,1.1947,1.0781,0.8737,0.7197,0.5431,0.4078,0.181,-0.0602,-0.2411,-0.3993,-0.3872,-0.3531,-0.1466,0.1662,0.5198,0.8229,1.1373,1.3462,1.3367,1.3306,1.3583,1.2846,1.16,1.0434,0.9243,0.7514,0.5634,0.4576,0.2815,0.2353,2.7908,2.7145,2.6505,2.6037,2.5644,2.6248,2.5933,2.5322,2.5511,2.5199,2.4702,2.6086,2.6388,2.6379,2.8116,2.9134,2.9585,3.0477,3.1112,3.1151,3.119,3.119,3.119,3.1075,3.0818,3.0272,2.9673,2.8957,2.8231,2.7199,2.6628,2.631,2.5451,2.4351,2.3193,2.0773,1.8936,1.759,1.6177,1.4661,1.3226,1.2543,1.1416,1.0174,0.9926,0.9627,0.9398,0.9633,1.0294,1.1003,1.2251,1.37,1.5013,1.6539,1.8216,1.9533,1.9822,1.9691,1.9106,1.7328,1.6161,1.5381,1.5282,1.5503,1.6124,1.7109,1.8113,1.8598,1.9033,1.9075,1.8867,1.8544,1.7575,1.6932,1.6358,1.586,1.5174,1.4525,1.4445,1.4273,1.3973,1.3577,1.2863,1.2011,1.064,1.0047,0.9911,0.8966,0.7545,0.632,0.4829,0.2716,0.0109,-0.2,-0.3739,-0.4868,-0.4494,-0.2551,0.0081,0.3676,0.6754,0.9536,1.1246,1.2463,1.3282,1.3641,1.2817,1.1767,1.0551,0.9226,0.7376,0.5725,0.4861,0.4344,0.3945,2.7489,2.6468,2.6193,2.548,2.4746,2.5544,2.5883,2.5959,2.6059,2.5757,2.5441,2.6484,2.6662,2.6761,2.7771,2.9081,2.954,3.0123,3.0699,3.1171,3.119,3.119,3.119,3.1131,3.0878,3.0309,2.9695,2.9088,2.8439,2.753,2.7265,2.7019,2.632,2.5121,2.321,2.1008,1.9088,1.812,1.6774,1.5177,1.3342,1.31,1.2535,1.0993,1.1329,1.1322,1.0989,1.1322,1.1664,1.2143,1.3356,1.4127,1.4993,1.627,1.7588,1.8694,1.9108,1.8956,1.8196,1.6878,1.5394,1.4688,1.4153,1.4181,1.4552,1.5199,1.591,1.6527,1.7149,1.7217,1.7109,1.6739,1.6061,1.5803,1.5361,1.4971,1.4422,1.3766,1.3372,1.3144,1.2874,1.1527,1.0589,0.9928,0.8733,0.7976,0.7802,0.7897,0.687,0.6081,0.4894,0.2996,0.074,-0.1479,-0.3294,-0.4457,-0.4487,-0.2734,-0.0489,0.2246,0.5145,0.7876,1.0199,1.1972,1.2899,1.3628,1.2638,1.16,1.044,0.9032,0.7564,0.6656,0.6134,0.5896,0.5774,2.6529,2.5735,2.5249,2.469,2.4211,2.5146,2.5824,2.6135,2.5996,2.5561,2.5351,2.6163,2.6416,2.6579,2.7856,2.8943,2.9496,3.0272,3.0683,3.119,3.119,3.119,3.119,3.1151,3.0821,3.0272,2.9673,2.9104,2.8487,2.791,2.7585,2.7342,2.6864,2.5882,2.415,2.2431,2.0242,1.9017,1.7424,1.596,1.4432,1.3691,1.3347,1.2613,1.2581,1.2848,1.294,1.31,1.3304,1.3747,1.4266,1.4895,1.5467,1.6299,1.749,1.8289,1.8731,1.8601,1.7964,1.688,1.5707,1.5068,1.3857,1.3368,1.3576,1.4167,1.455,1.5026,1.5437,1.5501,1.5479,1.5049,1.5004,1.4767,1.4276,1.3888,1.3358,1.2711,1.2236,1.2003,1.1131,0.9713,0.8429,0.7514,0.6705,0.6143,0.5662,0.5842,0.6072,0.5471,0.4676,0.3003,0.1235,-0.0795,-0.264,-0.4084,-0.3777,-0.2754,-0.0903,0.1064,0.3761,0.6524,0.9021,1.1326,1.2113,1.2594,1.2258,1.1399,1.0159,0.9302,0.8461,0.7765,0.7423,0.7241,0.7139,2.4911,2.4814,2.3666,2.3489,2.4079,2.4933,2.5435,2.5523,2.5051,2.4582,2.4166,2.566,2.5989,2.6086,2.8187,2.9316,2.9629,3.0617,3.1015,3.1171,3.119,3.119,3.1151,3.1092,3.072,3.0213,2.9607,2.8919,2.8439,2.7885,2.7625,2.7484,2.7008,2.6409,2.5444,2.4067,2.1889,2.0088,1.8497,1.6887,1.5254,1.4373,1.3883,1.341,1.3342,1.3494,1.3515,1.3597,1.4236,1.4837,1.5418,1.6296,1.7002,1.755,1.8058,1.8504,1.8842,1.8523,1.8063,1.6894,1.6243,1.552,1.4584,1.3744,1.3348,1.3566,1.3758,1.3993,1.4343,1.4145,1.3969,1.4039,1.4143,1.3629,1.3072,1.2599,1.2076,1.1575,1.1116,1.0485,0.9463,0.8226,0.709,0.6077,0.5471,0.4556,0.417,0.4115,0.4368,0.473,0.3932,0.3042,0.135,-0.0165,-0.1789,-0.3149,-0.3432,-0.2516,-0.2101,-0.033,0.2443,0.4946,0.7119,0.917,1.0898,1.1499,1.1233,1.0661,0.9788,0.9073,0.8613,0.8507,0.8043,0.824,0.8139,2.4381,2.3636,2.3248,2.3195,2.3384,2.3684,2.428,2.4958,2.4858,2.4519,2.4072,2.5553,2.5824,2.5673,2.8172,2.9125,2.9848,3.0497,3.1015,3.1171,3.1131,3.1171,3.1035,3.0777,3.0477,2.9995,2.9339,2.8685,2.8391,2.7885,2.76,2.7509,2.7306,2.6982,2.6318,2.5383,2.3385,2.1589,1.9977,1.7984,1.6527,1.5699,1.493,1.4312,1.4387,1.4497,1.4628,1.5041,1.5679,1.6042,1.6683,1.7346,1.7429,1.7633,1.7922,1.8522,1.8456,1.8087,1.7833,1.6967,1.6209,1.5785,1.4847,1.4278,1.3718,1.3392,1.333,1.3406,1.3501,1.342,1.3396,1.3454,1.3478,1.3156,1.2555,1.1913,1.1425,1.0948,1.044,0.9408,0.8337,0.7229,0.6036,0.5382,0.4721,0.3473,0.2751,0.2722,0.286,0.3274,0.3385,0.2552,0.2104,0.0772,-0.0525,-0.1855,-0.2303,-0.2415,-0.2137,-0.1466,0.0876,0.3229,0.5177,0.7231,0.9332,1.013,1.0236,0.9633,0.9119,0.9028,0.8672,0.8725,0.8785,0.8758,0.8771,2.4061,2.3459,2.3195,2.3095,2.3095,2.3108,2.3534,2.4073,2.4111,2.391,2.3849,2.522,2.5715,2.5797,2.7822,2.9157,2.9518,3.0293,3.0898,3.1151,3.0975,3.0838,3.0638,3.0267,2.9805,2.9384,2.8966,2.8407,2.8165,2.787,2.7585,2.7585,2.7585,2.7331,2.6745,2.5875,2.4817,2.3212,2.1539,1.9354,1.8021,1.715,1.6287,1.5347,1.5506,1.5635,1.5836,1.6389,1.6708,1.7219,1.7922,1.8205,1.8367,1.8528,1.8301,1.8773,1.8527,1.835,1.812,1.7186,1.6341,1.5626,1.5006,1.4642,1.4145,1.3717,1.3294,1.3027,1.2978,1.2929,1.2939,1.2915,1.2939,1.2905,1.2181,1.145,1.0948,1.0448,0.9551,0.8521,0.7437,0.6325,0.5469,0.4846,0.407,0.2982,0.2173,0.1839,0.1978,0.2282,0.2559,0.2282,0.2334,0.1997,0.0637,-0.0777,-0.161,-0.2336,-0.2783,-0.1828,-0.0083,0.1641,0.366,0.581,0.8013,0.8443,0.8626,0.883,0.856,0.8421,0.8262,0.8262,0.8374,0.8652,0.8685,2.3966,2.3853,2.3321,2.3095,2.3095,2.3095,2.3145,2.3095,2.3208,2.312,2.342,2.4652,2.5342,2.5755,2.7505,2.8771,2.939,3.0145,3.076,3.1131,3.0679,3.0456,3.023,2.9651,2.9203,2.8709,2.8343,2.8107,2.776,2.7585,2.7585,2.7585,2.7585,2.7408,2.7008,2.6,2.5065,2.4311,2.2669,2.0742,1.9193,1.8407,1.7884,1.6393,1.6136,1.6168,1.644,1.6807,1.7219,1.8178,1.8847,1.9135,1.9371,1.9579,1.9281,1.898,1.8737,1.8448,1.8098,1.728,1.6602,1.5869,1.5139,1.4935,1.4528,1.3797,1.3229,1.3298,1.3381,1.3052,1.2964,1.2925,1.2915,1.2676,1.2098,1.1425,1.0872,1.0108,0.896,0.8006,0.7208,0.6118,0.5273,0.4673,0.368,0.2593,0.1842,0.1312,0.1312,0.1563,0.2009,0.2259,0.2813,0.2751,0.125,-0.0111,-0.1223,-0.2031,-0.2841,-0.2839,-0.1521,0.0247,0.216,0.3878,0.5456,0.6494,0.6929,0.7169,0.7416,0.7391,0.7343,0.7557,0.783,0.8103,0.854,2.374,2.3308,2.3158,2.3095,2.3095,2.3095,2.3095,2.3095,2.3095,2.3095,2.3305,2.4105,2.4866,2.555,2.6931,2.8203,2.9232,2.9783,3.0597,3.0777,3.0477,3.0102,3.0038,2.9225,2.8701,2.8391,2.8116,2.781,2.7635,2.7585,2.7585,2.7585,2.756,2.7433,2.6956,2.5878,2.5203,2.4781,2.3408,2.1689,1.9986,1.8995,1.8237,1.6991,1.6421,1.6548,1.6832,1.7281,1.7822,1.8581,1.9254,1.9592,1.9747,1.9798,1.9721,1.9475,1.898,1.8528,1.7982,1.7295,1.655,1.5935,1.5327,1.5189,1.4717,1.3866,1.352,1.3776,1.3725,1.3328,1.2998,1.2974,1.2856,1.2486,1.2073,1.1459,1.0847,0.9688,0.8468,0.762,0.6923,0.6109,0.5242,0.4254,0.3259,0.2399,0.1647,0.1146,0.109,0.1312,0.2259,0.2706,0.3624,0.3367,0.1835,0.0361,-0.0833,-0.2114,-0.3121,-0.3035,-0.2779,-0.1376,0.0245,0.128,0.2551,0.3638,0.4739,0.5672,0.5882,0.6023,0.6529,0.6794,0.6853,0.7069,0.783,2.3409,2.3108,2.3095,2.3095,2.3095,2.3095,2.3095,2.3095,2.3095,2.3095,2.3215,2.3914,2.4551,2.5119,2.6371,2.75,2.8584,2.9171,2.9701,3.0038,3.0123,2.9695,2.9271,2.8826,2.8391,2.8067,2.7835,2.761,2.7585,2.7585,2.7585,2.7585,2.756,2.7357,2.68,2.6,2.5203,2.4781,2.3649,2.228,2.0715,2.0008,1.8772,1.7515,1.6776,1.6951,1.7358,1.7784,1.8247,1.8886,1.9579,1.9721,1.9798,1.9798,1.9798,1.9592,1.9123,1.8528,1.7978,1.7294,1.6515,1.5917,1.525,1.5036,1.5511,1.4746,1.426,1.4424,1.4273,1.3928,1.3323,1.3115,1.2974,1.2676,1.2058,1.1417,1.0702,0.974,0.8388,0.7106,0.6534,0.6036,0.5109,0.4091,0.3067,0.2062,0.1339,0.1174,0.1062,0.134,0.2232,0.2956,0.3738,0.3569,0.2173,0.0723,-0.0611,-0.1917,-0.3314,-0.3503,-0.3382,-0.2724,-0.1774,-0.1061,-0.0217,0.0926,0.2017,0.3501,0.4354,0.4597,0.5343,0.6113,0.6118,0.6118,0.6654,2.312,2.3095,2.3095,2.3095,2.3095,2.3095,2.3095,2.3095,2.3095,2.3095,2.3155,2.3796,2.4134,2.4753,2.5659,2.6608,2.754,2.8488,2.8996,2.9361,2.9361,2.9134,2.8826,2.8391,2.8042,2.781,2.761,2.7585,2.7585,2.7585,2.7585,2.7585,2.756,2.7484,2.7008,2.6215,2.5203,2.4525,2.3607,2.272,2.1885,2.1132,1.9608,1.8252,1.7288,1.7462,1.791,1.8205,1.8592,1.9131,1.9706,1.9773,1.9798,1.9798,1.9798,1.9643,1.9371,1.89,1.8451,1.7659,1.6814,1.6066,1.5348,1.5252,1.5762,1.5777,1.5293,1.4877,1.4733,1.4403,1.3791,1.3313,1.316,1.3041,1.232,1.1484,1.0702,0.9892,0.848,0.7031,0.6408,0.5959,0.5027,0.4009,0.2954,0.1922,0.1422,0.1256,0.1313,0.187,0.2593,0.2984,0.3458,0.2984,0.2204,0.114,-0.0222,-0.192,-0.3204,-0.3721,-0.4173,-0.4222,-0.4149,-0.3881,-0.2945,-0.1634,0.0055,0.1697,0.2399,0.336,0.447,0.5382,0.5382,0.541,0.5506,2.3095,2.3095,2.3095,2.3095,2.3095,2.3095,2.3095,2.3095,2.3095,2.3095,2.3155,2.3245,2.3632,2.435,2.5189,2.6119,2.7121,2.7932,2.8756,2.9332,2.8943,2.8677,2.8407,2.8067,2.7775,2.765,2.7585,2.7585,2.7585,2.7585,2.7585,2.7585,2.7585,2.7071,2.5919,2.5287,2.4922,2.4192,2.3547,2.275,2.2199,2.1459,2.0632,1.948,1.8497,1.8406,1.8403,1.8276,1.8703,1.9238,1.967,1.9784,1.9798,1.9798,1.9798,1.9798,1.9501,1.9254,1.8741,1.8274,1.7556,1.6712,1.613,1.5756,1.6269,1.6731,1.6129,1.5447,1.5188,1.487,1.4336,1.3868,1.3621,1.3692,1.3297,1.2137,1.1123,1.0228,0.9093,0.7845,0.6864,0.6172,0.5292,0.4223,0.3093,0.2312,0.195,0.1786,0.1647,0.2287,0.2956,0.3234,0.3458,0.2871,0.2313,0.1531,0.0194,-0.1613,-0.3314,-0.4302,-0.5303,-0.6335,-0.6321,-0.6119,-0.5224,-0.3929,-0.2182,-0.0355,0.1545,0.2662,0.3868,0.468,0.4704,0.4811,0.4995]}]]